[[{"header":{"parameterUnit":"m.s-1","parameterCategory":1,"la1":31.0,"la2":29.5877,"lo1":-88.7671,"lo2":-86.6584,"dy":0.0162,"dx":0.0185,"nx":115,"ny":88,"refTime":"2023-06-19T12:00:00:Z","depth":0,"parameterNumber":2,"parameterNumberName":"U-component_of_WINDS"},"data":[0.0,0.0,0.0,0.0,0.0,0.0,0.0,0.0,0.0,0.0,0.0,0.0,0.0,0.0,0.0,0.0,0.0,0.0,0.0,0.0,0.0,0.0,0.0,0.0,0.0,0.0,0.0,0.0,0.0,0.0,0.0,0.0,0.0,0.0,0.0,0.0,0.0,0.0,0.0,0.0,0.0,0.0,0.0,0.0,0.0,0.0,0.0,0.0,0.0,0.0,0.0,0.0,0.0,0.0,0.0,0.0,0.0,0.0,0.0,0.0,0.0,0.0,0.0,0.0,0.0,0.0,0.0,0.0,0.0,0.0,0.0,0.0,0.0,0.0,0.0,0.0,0.0,0.0,0.0,0.0,0.0,0.0,0.0,0.0,0.0,0.0,0.0,0.0,0.0,0.0,0.0,0.0,0.0,0.0,0.0,0.0,0.0,0.0,0.0,0.0,0.0,0.0,0.0,0.0,0.0,0.0,0.0,0.0,0.0,0.0,0.0,0.0,0.0,0.0,0.0,0.0,0.0,0.0,0.0,0.0,0.0,0.0,0.0,0.0,0.0,0.0,0.0,0.0,0.0,0.0,0.0,0.0,0.0,0.0,0.0,0.0,0.0,0.0,0.0,0.0,0.0,0.0,0.0,0.0,0.0,0.0,0.0,0.0,0.0,0.0,0.0,0.0,0.0,0.0,0.0,0.0,0.0,0.0,0.0,0.0,0.0,0.0,0.0,0.0,0.0,0.0,0.0,0.0,0.0,0.0,0.0,0.0,0.0,0.0,0.0,0.0,0.0,0.0,0.0,0.0,0.0,0.0,0.0,0.0,0.0,0.0,0.0,0.0,0.0,0.0,0.0,0.0,0.0,0.0,0.0,0.0,0.0,0.0,0.0,0.0,0.0,0.0,0.0,0.0,0.0,0.0,0.0,0.0,0.0,0.0,0.0,0.0,0.0,0.0,0.0,0.0,0.0,0.0,0.0,0.0,0.0,0.0,0.0,0.0,0.0,0.0,0.0,0.0,0.0,0.0,0.0,0.0,0.0,0.0,0.0,0.0,0.0,0.0,0.0,0.0,0.0,0.0,0.0,0.0,0.0,0.0,0.0,0.0,0.0,0.0,0.0,0.0,0.0,0.0,0.0,0.0,0.0,0.0,0.0,0.0,0.0,0.0,0.0,0.0,0.0,0.0,0.0,0.0,0.0,0.0,0.0,0.0,0.0,0.0,0.0,0.0,0.0,0.0,0.0,0.0,0.0,0.0,0.0,0.0,0.0,0.0,0.0,0.0,0.0,0.0,0.0,0.0,0.0,0.0,0.0,0.0,0.0,0.0,0.0,0.0,0.0,0.0,0.0,0.0,0.0,0.0,0.0,0.0,0.0,0.0,0.0,0.0,0.0,0.0,0.0,0.0,0.0,0.0,0.0,0.0,0.0,0.0,0.0,0.0,0.0,0.0,0.0,0.0,0.0,0.0,0.0,0.0,0.0,0.0,0.0,0.0,0.0,0.0,0.0,0.0,0.0,0.0,0.0,0.0,0.0,0.0,0.0,0.0,0.0,0.0,0.0,0.0,0.0,0.0,0.0,0.0,0.0,0.0,0.0,0.0,0.0,0.0,0.0,0.0,0.0,0.0,0.0,0.0,0.0,0.0,0.0,0.0,0.0,0.0,0.0,0.0,0.0,0.0,0.0,0.0,0.0,0.0,0.0,0.0,0.0,0.0,0.0,0.0,0.0,0.0,0.0,0.0,0.0,0.0,0.0,0.0,0.0,0.0,0.0,0.0,0.0,0.0,0.0,0.0,0.0,0.0,0.0,0.0,0.0,0.0,0.0,0.0,0.0,0.0,0.0,0.0,0.0,0.0,0.0,0.0,0.0,0.0,0.0,0.0,0.0,0.0,0.0,0.0,0.0,0.0,0.0,0.0,0.0,0.0,0.0,0.0,0.0,0.0,0.0,0.0,0.0,0.0,0.0,0.0,0.0,0.0,0.0,0.0,0.0,0.0,0.0,0.0,0.0,0.0,0.0,0.0,0.0,0.0,0.0,0.0,0.0,0.0,0.0,0.0,0.0,0.0,0.0,0.0,0.0,0.0,0.0,0.0,0.0,0.0,0.0,0.0,0.0,0.0,0.0,0.0,0.0,0.0,0.0,0.0,0.0,0.0,0.0,0.0,0.0,0.0,0.0,0.0,0.0,0.0,0.0,0.0,0.0,0.0,0.0,0.0,0.0,0.0,0.0,0.0,0.0,0.0,0.0,0.0,0.0,0.0,0.0,0.0,0.0,0.0,0.0,0.0,0.0,0.0,0.0,0.0,0.0,0.0,0.0,0.0,0.0,0.0,0.0,0.0,0.0,0.0,0.0,0.0,0.0,0.0,0.0,0.0,0.0,0.0,0.0,0.0,0.0,0.0,0.0,0.0,0.0,0.0,0.0,0.0,0.0,0.0,0.0,0.0,0.0,0.0,0.0,0.0,0.0,0.0,0.0,0.0,0.0,0.0,0.0,0.0,0.0,0.0,0.0,0.0,0.0,0.0,0.0,0.0,0.0,0.0,0.0,0.0,0.0,0.0,0.0,0.0,0.0,0.0,0.0,0.0,0.0,0.0,0.0,0.0,0.0,0.0,0.0,0.0,0.0,0.0,0.0,0.0,0.0,0.0,0.0,0.0,0.0,0.0,0.0,0.0,0.0,0.0,0.0,0.0,0.0,0.0,0.0,0.0,0.0,0.0,0.0,0.0,0.0,0.0,0.0,0.0,0.0,0.0,0.0,0.0,0.0,0.0,0.0,0.0,0.0,0.0,0.0,0.0,0.0,0.0,0.0,0.0,0.0,0.0,0.0,0.0,0.0,0.0,0.0,0.0,0.0,0.0,0.0,0.0,0.0,0.0,0.0,0.0,0.0,0.0,0.0,0.0,0.0,0.0,0.0,0.0,0.0,0.0,0.0,0.0,0.0,0.0,0.0,0.0,0.0,0.0,0.0,0.0,0.0,0.0,0.0,0.0,0.0,0.0,0.0,0.0,0.0,0.0,0.0,0.0,0.0,0.0,0.0,0.0,0.0,0.0,0.0,0.0,0.0,0.0,0.0,0.0,0.0,0.0,0.0,0.0,0.0,0.0,0.0,0.0,0.0,0.0,0.0,0.0,0.0,0.0,0.0,0.0,0.0,0.0,0.0,0.0,0.0,0.0,0.0,0.0,0.0,0.0,0.0,0.0,0.0,0.0,0.0,0.0,0.0,0.0,0.0,0.0,0.0,0.0,0.0,0.0,0.0,0.0,0.0,0.0,0.0,0.0,0.0,0.0,0.0,0.0,0.0,0.0,0.0,0.0,0.0,0.0,0.0,0.0,0.0,0.0,0.0,0.0,0.0,0.0,0.0,0.0,0.0,0.0,0.0,0.0,0.0,0.0,0.0,0.0,0.0,0.0,0.0,0.0,0.0,0.0,0.0,0.0,0.0,0.0,0.0,0.0,0.0,0.0,0.0,0.0,0.0,0.0,0.0,0.0,0.0,0.0,0.0,0.0,0.0,0.0,0.0,0.0,0.0,0.0,0.0,0.0,0.0,0.0,0.0,0.0,0.0,0.0,0.0,0.0,0.0,0.0,0.0,0.0,0.0,0.0,0.0,0.0,0.0,0.0,0.0,0.0,0.0,0.0,0.0,0.0,0.0,0.0,0.0,0.0,0.0,0.0,0.0,0.0,0.0,0.0,0.0,0.0,0.0,0.0,0.0,0.0,0.0,0.0,0.0,0.0,0.0,0.0,0.0,0.0,0.0,0.0,0.0,0.0,0.0,0.0,0.0,0.0,0.0,0.0,0.0,0.0,0.0,0.0,0.0,0.0,0.0,0.0,0.0,0.0,0.0,0.0,0.0,0.0,0.0,0.0,0.0,0.0,0.0,0.0,0.0,0.0,0.0,0.0,0.0,0.0,0.0,0.0,0.0,0.0,0.0,0.0,0.0,0.0,0.0,0.0,0.0,0.0,0.0,0.0,0.0,0.0,0.0,0.0,0.0,0.0,0.0,0.0,0.0,0.0,0.0,0.0,0.0,0.0,0.0,0.0,0.0,0.0,0.0,0.0,0.0,0.0,0.0,0.0,0.0,0.0,0.0,0.0,0.0,0.0,0.0,0.0,0.0,0.0,0.0,0.0,0.0,0.0,0.0,0.0,0.0,0.0,0.0,0.0,0.0,0.0,0.0,0.0,0.0,0.0,0.0,0.0,0.0,0.0,0.0,0.0,0.0,0.0,0.0,0.0,0.0,0.0,0.0,0.0,0.0,0.0,-4.431,0.0,0.0,0.0,0.0,0.0,0.0,0.0,0.0,0.0,0.0,0.0,0.0,0.0,0.0,0.0,0.0,0.0,0.0,0.0,0.0,0.0,0.0,0.0,0.0,0.0,0.0,0.0,0.0,0.0,0.0,0.0,0.0,0.0,0.0,0.0,0.0,0.0,0.0,0.0,0.0,0.0,0.0,0.0,0.0,0.0,0.0,0.0,0.0,0.0,0.0,0.0,0.0,0.0,0.0,0.0,0.0,0.0,0.0,0.0,0.0,0.0,0.0,0.0,0.0,0.0,0.0,0.0,0.0,0.0,0.0,0.0,0.0,0.0,0.0,0.0,0.0,0.0,0.0,0.0,0.0,0.0,0.0,0.0,0.0,0.0,0.0,0.0,0.0,0.0,0.0,0.0,0.0,0.0,0.0,0.0,0.0,0.0,0.0,0.0,0.0,0.0,0.0,0.0,0.0,0.0,0.0,0.0,0.0,0.0,0.0,-4.338,-4.4042,-4.4669,-4.4961,-4.4896,0.0,0.0,0.0,0.0,0.0,0.0,0.0,0.0,0.0,0.0,0.0,0.0,0.0,0.0,0.0,0.0,0.0,0.0,0.0,0.0,0.0,0.0,0.0,0.0,0.0,0.0,0.0,0.0,0.0,0.0,0.0,0.0,0.0,0.0,0.0,0.0,0.0,0.0,0.0,0.0,0.0,0.0,0.0,0.0,0.0,0.0,0.0,0.0,0.0,0.0,0.0,0.0,0.0,0.0,0.0,0.0,0.0,0.0,0.0,0.0,0.0,0.0,0.0,0.0,0.0,0.0,0.0,0.0,0.0,0.0,0.0,0.0,0.0,0.0,0.0,0.0,0.0,0.0,0.0,0.0,0.0,0.0,0.0,0.0,0.0,0.0,0.0,0.0,0.0,0.0,0.0,0.0,0.0,0.0,0.0,0.0,0.0,0.0,0.0,0.0,0.0,0.0,0.0,0.0,0.0,0.0,0.0,0.0,0.0,0.0,0.0,0.0,-4.515,-4.5483,-4.5646,0.0,0.0,0.0,0.0,0.0,0.0,0.0,0.0,0.0,0.0,0.0,0.0,0.0,0.0,0.0,0.0,0.0,0.0,0.0,0.0,0.0,0.0,0.0,0.0,0.0,0.0,0.0,0.0,0.0,0.0,0.0,0.0,0.0,0.0,0.0,0.0,0.0,0.0,0.0,0.0,0.0,0.0,0.0,0.0,0.0,0.0,0.0,0.0,0.0,0.0,0.0,0.0,0.0,0.0,0.0,0.0,0.0,0.0,0.0,0.0,0.0,0.0,0.0,0.0,0.0,0.0,0.0,0.0,0.0,0.0,0.0,0.0,0.0,0.0,0.0,0.0,0.0,0.0,0.0,0.0,0.0,0.0,0.0,0.0,0.0,0.0,0.0,0.0,0.0,0.0,0.0,0.0,0.0,0.0,0.0,0.0,0.0,0.0,0.0,0.0,0.0,0.0,0.0,0.0,0.0,0.0,0.0,0.0,0.0,0.0,-4.4697,-4.5274,-4.5371,0.0,-4.636,0.0,0.0,0.0,0.0,0.0,0.0,0.0,0.0,0.0,0.0,0.0,0.0,0.0,0.0,0.0,0.0,0.0,0.0,0.0,0.0,0.0,0.0,0.0,0.0,0.0,0.0,0.0,0.0,0.0,0.0,0.0,0.0,0.0,0.0,0.0,0.0,0.0,0.0,0.0,0.0,0.0,0.0,0.0,0.0,0.0,0.0,0.0,0.0,0.0,0.0,0.0,0.0,0.0,0.0,0.0,0.0,0.0,0.0,0.0,0.0,0.0,0.0,0.0,0.0,0.0,0.0,0.0,0.0,0.0,0.0,0.0,0.0,0.0,0.0,0.0,0.0,0.0,0.0,0.0,0.0,0.0,0.0,0.0,0.0,0.0,0.0,0.0,0.0,0.0,0.0,0.0,0.0,0.0,0.0,0.0,0.0,0.0,0.0,0.0,0.0,0.0,0.0,0.0,0.0,0.0,0.0,0.0,0.0,0.0,0.0,-4.4384,-4.5353,-4.5845,-4.6242,0.0,0.0,0.0,0.0,0.0,0.0,0.0,0.0,0.0,0.0,0.0,0.0,0.0,0.0,0.0,0.0,0.0,0.0,0.0,0.0,0.0,0.0,0.0,0.0,0.0,0.0,0.0,0.0,0.0,0.0,0.0,0.0,0.0,0.0,0.0,0.0,0.0,0.0,0.0,0.0,0.0,0.0,0.0,0.0,0.0,0.0,0.0,0.0,0.0,0.0,0.0,0.0,0.0,0.0,0.0,0.0,0.0,0.0,0.0,0.0,0.0,0.0,0.0,0.0,0.0,0.0,0.0,0.0,0.0,0.0,0.0,0.0,0.0,0.0,0.0,0.0,0.0,0.0,0.0,0.0,0.0,0.0,0.0,0.0,0.0,0.0,0.0,0.0,0.0,0.0,0.0,0.0,0.0,0.0,0.0,0.0,0.0,0.0,0.0,0.0,0.0,0.0,0.0,0.0,0.0,0.0,0.0,0.0,0.0,0.0,-4.3893,-4.4637,-4.5787,-4.6357,-4.6857,-4.7309,0.0,0.0,0.0,0.0,0.0,0.0,0.0,0.0,0.0,0.0,0.0,0.0,0.0,0.0,0.0,0.0,0.0,0.0,0.0,0.0,0.0,0.0,0.0,0.0,0.0,0.0,0.0,0.0,0.0,0.0,0.0,0.0,0.0,0.0,0.0,0.0,0.0,0.0,0.0,0.0,0.0,0.0,0.0,0.0,0.0,0.0,0.0,0.0,0.0,0.0,0.0,0.0,0.0,0.0,0.0,0.0,0.0,0.0,0.0,0.0,0.0,0.0,0.0,0.0,0.0,0.0,0.0,0.0,0.0,0.0,0.0,0.0,0.0,0.0,0.0,0.0,0.0,0.0,0.0,0.0,0.0,0.0,0.0,0.0,0.0,0.0,0.0,0.0,0.0,0.0,0.0,0.0,0.0,0.0,0.0,0.0,0.0,0.0,0.0,0.0,0.0,0.0,0.0,0.0,0.0,0.0,0.0,0.0,-4.3542,-4.4801,-4.5935,-4.6856,-4.6846,-4.7557,0.0,0.0,0.0,0.0,0.0,0.0,0.0,0.0,0.0,0.0,0.0,0.0,0.0,0.0,0.0,0.0,0.0,0.0,0.0,0.0,0.0,0.0,0.0,0.0,0.0,0.0,0.0,0.0,0.0,0.0,0.0,0.0,0.0,0.0,0.0,0.0,0.0,0.0,0.0,0.0,0.0,0.0,0.0,0.0,0.0,0.0,0.0,0.0,0.0,0.0,0.0,0.0,0.0,0.0,0.0,0.0,0.0,0.0,0.0,0.0,0.0,0.0,0.0,0.0,0.0,0.0,0.0,0.0,0.0,0.0,0.0,0.0,0.0,0.0,0.0,0.0,0.0,0.0,0.0,0.0,0.0,0.0,0.0,0.0,0.0,0.0,0.0,0.0,0.0,0.0,0.0,0.0,0.0,0.0,0.0,0.0,0.0,0.0,0.0,0.0,0.0,0.0,0.0,0.0,0.0,0.0,0.0,0.0,0.0,-4.3672,-4.5018,-4.6135,-4.6995,-4.7404,-4.8168,0.0,0.0,0.0,0.0,0.0,0.0,0.0,0.0,0.0,0.0,0.0,0.0,0.0,0.0,0.0,0.0,0.0,0.0,0.0,0.0,0.0,0.0,0.0,0.0,0.0,0.0,0.0,0.0,0.0,0.0,0.0,0.0,0.0,0.0,0.0,0.0,0.0,0.0,0.0,0.0,0.0,0.0,0.0,0.0,0.0,0.0,0.0,0.0,0.0,0.0,0.0,0.0,0.0,0.0,0.0,0.0,0.0,0.0,0.0,0.0,0.0,0.0,0.0,0.0,0.0,0.0,0.0,0.0,0.0,0.0,0.0,0.0,0.0,0.0,0.0,0.0,0.0,0.0,0.0,0.0,0.0,0.0,0.0,0.0,0.0,0.0,0.0,0.0,0.0,0.0,0.0,0.0,0.0,0.0,0.0,0.0,0.0,0.0,0.0,0.0,0.0,0.0,0.0,0.0,0.0,0.0,0.0,0.0,0.0,-4.4445,0.0,-4.6646,-4.7491,-4.8189,-4.8957,0.0,0.0,0.0,0.0,0.0,0.0,0.0,0.0,0.0,0.0,0.0,0.0,0.0,0.0,0.0,0.0,0.0,0.0,0.0,0.0,0.0,0.0,0.0,0.0,0.0,0.0,0.0,0.0,0.0,0.0,0.0,0.0,0.0,0.0,0.0,0.0,0.0,0.0,0.0,0.0,0.0,0.0,0.0,0.0,0.0,0.0,0.0,0.0,0.0,0.0,0.0,0.0,0.0,0.0,0.0,0.0,0.0,0.0,0.0,0.0,0.0,0.0,0.0,0.0,0.0,0.0,0.0,0.0,0.0,0.0,0.0,0.0,0.0,0.0,0.0,0.0,0.0,0.0,0.0,0.0,0.0,0.0,0.0,0.0,0.0,0.0,0.0,0.0,0.0,0.0,0.0,0.0,0.0,0.0,0.0,0.0,0.0,0.0,0.0,0.0,0.0,0.0,0.0,0.0,0.0,0.0,0.0,0.0,-4.449,-4.5949,-4.6766,-4.7638,-4.8477,-4.9117,-4.9905,0.0,0.0,0.0,0.0,0.0,0.0,0.0,0.0,0.0,0.0,0.0,0.0,0.0,0.0,0.0,0.0,0.0,0.0,0.0,0.0,0.0,0.0,0.0,0.0,0.0,0.0,0.0,0.0,0.0,0.0,0.0,0.0,0.0,0.0,0.0,0.0,0.0,0.0,0.0,0.0,0.0,0.0,0.0,0.0,0.0,0.0,0.0,0.0,0.0,0.0,0.0,0.0,0.0,0.0,0.0,0.0,0.0,0.0,0.0,0.0,0.0,0.0,0.0,0.0,0.0,0.0,0.0,0.0,0.0,0.0,0.0,0.0,0.0,0.0,0.0,0.0,0.0,0.0,0.0,0.0,0.0,0.0,0.0,0.0,0.0,0.0,0.0,0.0,0.0,0.0,0.0,0.0,0.0,0.0,0.0,0.0,0.0,0.0,0.0,0.0,0.0,0.0,0.0,0.0,0.0,0.0,0.0,0.0,0.0,-4.6801,-4.7664,-4.8487,-4.9293,-4.953,-5.0039,0.0,0.0,0.0,0.0,0.0,0.0,0.0,0.0,0.0,0.0,0.0,0.0,0.0,0.0,0.0,0.0,0.0,0.0,0.0,0.0,0.0,0.0,0.0,0.0,0.0,0.0,0.0,0.0,0.0,0.0,0.0,0.0,0.0,0.0,0.0,0.0,0.0,0.0,0.0,0.0,0.0,0.0,0.0,0.0,0.0,0.0,0.0,0.0,0.0,0.0,0.0,0.0,0.0,0.0,0.0,0.0,0.0,0.0,0.0,0.0,0.0,0.0,0.0,0.0,0.0,0.0,0.0,0.0,0.0,0.0,0.0,0.0,0.0,0.0,0.0,0.0,0.0,0.0,0.0,0.0,0.0,0.0,0.0,0.0,0.0,0.0,0.0,0.0,0.0,0.0,0.0,0.0,0.0,0.0,0.0,0.0,0.0,0.0,0.0,0.0,0.0,0.0,0.0,0.0,0.0,0.0,0.0,0.0,0.0,-4.8111,-4.8688,-4.9188,-4.9662,-4.996,-5.0364,-5.0855,0.0,0.0,0.0,0.0,0.0,0.0,0.0,0.0,0.0,0.0,0.0,0.0,0.0,0.0,0.0,0.0,0.0,0.0,0.0,0.0,0.0,0.0,0.0,0.0,0.0,0.0,0.0,0.0,0.0,0.0,0.0,0.0,0.0,0.0,0.0,0.0,0.0,0.0,0.0,0.0,0.0,0.0,0.0,0.0,0.0,0.0,0.0,0.0,0.0,0.0,0.0,0.0,0.0,0.0,0.0,0.0,0.0,0.0,0.0,0.0,0.0,0.0,0.0,0.0,0.0,0.0,0.0,0.0,0.0,0.0,0.0,0.0,0.0,0.0,0.0,0.0,0.0,0.0,0.0,0.0,0.0,0.0,0.0,0.0,0.0,0.0,0.0,0.0,0.0,0.0,0.0,0.0,0.0,0.0,0.0,0.0,0.0,0.0,0.0,0.0,0.0,0.0,0.0,0.0,0.0,0.0,0.0,0.0,-4.9679,-4.9758,-4.9776,-4.9767,-5.0487,-5.0891,0.0,0.0,0.0,0.0,0.0,0.0,0.0,0.0,0.0,0.0,0.0,0.0,0.0,0.0,0.0,0.0,0.0,0.0,0.0,0.0,0.0,0.0,0.0,0.0,0.0,0.0,0.0,0.0,0.0,0.0,0.0,0.0,0.0,0.0,0.0,0.0,0.0,0.0,0.0,0.0,0.0,0.0,0.0,0.0,0.0,0.0,0.0,0.0,0.0,0.0,0.0,0.0,0.0,0.0,0.0,0.0,0.0,0.0,0.0,0.0,0.0,0.0,0.0,0.0,0.0,0.0,0.0,0.0,0.0,0.0,0.0,0.0,0.0,0.0,0.0,0.0,0.0,0.0,0.0,0.0,0.0,0.0,0.0,0.0,0.0,0.0,0.0,0.0,0.0,0.0,0.0,0.0,0.0,0.0,0.0,0.0,0.0,0.0,0.0,0.0,0.0,0.0,0.0,0.0,0.0,0.0,0.0,0.0,0.0,-4.967,-5.0471,-5.077,-5.0601,-5.0785,-5.0891,0.0,0.0,0.0,0.0,0.0,0.0,0.0,0.0,0.0,0.0,0.0,0.0,0.0,0.0,0.0,0.0,0.0,0.0,0.0,0.0,0.0,0.0,0.0,0.0,0.0,0.0,0.0,0.0,0.0,0.0,0.0,0.0,0.0,0.0,0.0,0.0,0.0,0.0,0.0,0.0,0.0,0.0,0.0,0.0,0.0,0.0,0.0,0.0,0.0,0.0,0.0,0.0,0.0,0.0,0.0,0.0,0.0,0.0,0.0,0.0,0.0,0.0,0.0,0.0,0.0,0.0,0.0,0.0,0.0,0.0,0.0,0.0,0.0,0.0,0.0,0.0,0.0,0.0,0.0,0.0,0.0,0.0,0.0,0.0,0.0,0.0,0.0,0.0,0.0,0.0,0.0,0.0,0.0,0.0,0.0,0.0,0.0,0.0,0.0,0.0,0.0,0.0,0.0,0.0,0.0,0.0,0.0,0.0,-4.8992,-5.0356,-5.0972,-5.122,-5.1061,-5.1079,-5.1025,0.0,0.0,0.0,0.0,0.0,0.0,0.0,0.0,0.0,0.0,0.0,0.0,0.0,0.0,0.0,0.0,0.0,0.0,0.0,0.0,0.0,0.0,0.0,0.0,0.0,0.0,0.0,0.0,0.0,0.0,0.0,0.0,0.0,0.0,0.0,0.0,0.0,0.0,0.0,0.0,0.0,0.0,0.0,0.0,0.0,0.0,0.0,0.0,0.0,0.0,0.0,0.0,0.0,0.0,0.0,0.0,0.0,0.0,0.0,0.0,0.0,0.0,0.0,0.0,0.0,0.0,0.0,0.0,0.0,0.0,0.0,0.0,0.0,0.0,0.0,0.0,0.0,0.0,0.0,0.0,0.0,0.0,0.0,0.0,0.0,0.0,0.0,0.0,0.0,0.0,0.0,0.0,0.0,0.0,0.0,0.0,0.0,0.0,0.0,0.0,0.0,0.0,0.0,0.0,0.0,0.0,0.0,0.0,-4.9325,-5.1132,-5.1255,-5.1255,-5.1176,-5.1255,-5.1141,0.0,0.0,0.0,0.0,0.0,0.0,0.0,0.0,0.0,0.0,0.0,0.0,0.0,0.0,0.0,0.0,0.0,0.0,0.0,0.0,0.0,0.0,0.0,0.0,0.0,0.0,0.0,0.0,0.0,0.0,0.0,0.0,0.0,0.0,0.0,0.0,0.0,0.0,0.0,0.0,0.0,0.0,0.0,0.0,0.0,0.0,0.0,0.0,0.0,0.0,0.0,0.0,0.0,0.0,0.0,0.0,0.0,0.0,0.0,0.0,0.0,0.0,0.0,0.0,0.0,0.0,0.0,0.0,0.0,0.0,0.0,0.0,0.0,0.0,0.0,0.0,0.0,0.0,0.0,0.0,0.0,0.0,0.0,0.0,0.0,0.0,0.0,0.0,0.0,0.0,0.0,0.0,0.0,0.0,0.0,0.0,0.0,0.0,0.0,0.0,0.0,0.0,0.0,0.0,0.0,0.0,0.0,0.0,-4.9543,-5.0328,-5.0955,-5.0999,-5.0373,-5.0972,-5.099,0.0,0.0,0.0,0.0,0.0,0.0,0.0,0.0,0.0,0.0,0.0,0.0,0.0,0.0,0.0,0.0,0.0,0.0,0.0,0.0,0.0,0.0,0.0,0.0,0.0,0.0,0.0,0.0,0.0,0.0,0.0,0.0,0.0,0.0,0.0,0.0,0.0,0.0,0.0,0.0,0.0,0.0,0.0,0.0,0.0,0.0,0.0,0.0,-5.3518,0.0,0.0,0.0,0.0,0.0,0.0,0.0,0.0,0.0,0.0,0.0,0.0,0.0,0.0,0.0,0.0,0.0,0.0,0.0,0.0,0.0,0.0,0.0,0.0,0.0,0.0,0.0,0.0,0.0,0.0,0.0,0.0,0.0,0.0,0.0,0.0,0.0,0.0,0.0,0.0,0.0,0.0,0.0,0.0,0.0,0.0,0.0,0.0,0.0,0.0,0.0,0.0,0.0,0.0,0.0,0.0,0.0,0.0,0.0,-4.9698,-5.0265,-5.0955,-5.0982,-5.0338,-5.0704,-5.0567,0.0,0.0,0.0,0.0,0.0,0.0,0.0,0.0,0.0,0.0,0.0,0.0,0.0,0.0,0.0,0.0,0.0,0.0,0.0,0.0,0.0,0.0,0.0,0.0,0.0,0.0,0.0,0.0,0.0,0.0,0.0,0.0,0.0,0.0,0.0,0.0,0.0,0.0,0.0,0.0,0.0,0.0,0.0,0.0,0.0,0.0,0.0,0.0,0.0,0.0,0.0,0.0,0.0,0.0,0.0,0.0,0.0,0.0,0.0,0.0,0.0,0.0,0.0,0.0,0.0,0.0,0.0,0.0,0.0,0.0,0.0,0.0,0.0,0.0,0.0,0.0,0.0,0.0,0.0,0.0,0.0,0.0,0.0,0.0,0.0,0.0,0.0,0.0,0.0,0.0,0.0,0.0,0.0,0.0,0.0,0.0,0.0,0.0,0.0,0.0,0.0,0.0,0.0,0.0,0.0,0.0,0.0,-4.9057,-4.9593,-5.0192,-5.0731,-5.0758,-5.0265,-5.0237,-4.9896,-4.9222,0.0,0.0,0.0,0.0,0.0,0.0,0.0,0.0,0.0,0.0,0.0,0.0,0.0,0.0,0.0,0.0,0.0,0.0,0.0,0.0,0.0,0.0,0.0,0.0,0.0,0.0,0.0,0.0,0.0,0.0,0.0,0.0,0.0,0.0,0.0,0.0,0.0,0.0,-4.8963,-5.0876,0.0,0.0,0.0,0.0,0.0,0.0,0.0,0.0,-5.3518,0.0,0.0,0.0,0.0,0.0,0.0,0.0,0.0,0.0,0.0,0.0,0.0,0.0,0.0,0.0,0.0,0.0,0.0,0.0,0.0,0.0,0.0,0.0,0.0,0.0,0.0,0.0,0.0,0.0,0.0,0.0,0.0,0.0,0.0,0.0,0.0,0.0,0.0,0.0,0.0,0.0,0.0,0.0,0.0,0.0,0.0,0.0,0.0,0.0,0.0,0.0,0.0,0.0,0.0,0.0,0.0,-4.8115,-4.8593,-4.8872,-4.8978,-4.9462,-4.9492,-4.9009,-4.8978,-4.8765,-4.8292,0.0,0.0,0.0,0.0,0.0,0.0,0.0,0.0,0.0,0.0,0.0,0.0,0.0,0.0,0.0,0.0,0.0,0.0,0.0,0.0,0.0,0.0,0.0,0.0,0.0,0.0,0.0,0.0,0.0,0.0,0.0,0.0,0.0,0.0,0.0,0.0,0.0,0.0,0.0,-5.2026,-5.3314,0.0,0.0,0.0,0.0,0.0,0.0,0.0,0.0,-5.3518,0.0,0.0,0.0,0.0,0.0,0.0,0.0,0.0,0.0,0.0,0.0,0.0,0.0,0.0,0.0,0.0,0.0,0.0,0.0,0.0,0.0,0.0,0.0,0.0,0.0,0.0,0.0,0.0,0.0,0.0,0.0,0.0,0.0,0.0,0.0,0.0,0.0,0.0,0.0,0.0,0.0,0.0,0.0,0.0,0.0,0.0,0.0,0.0,0.0,0.0,0.0,0.0,0.0,0.0,0.0,-4.8033,-4.8483,-4.875,-4.8861,-4.9333,-4.9316,-4.8892,-4.8861,-4.8562,0.0,0.0,0.0,0.0,0.0,0.0,0.0,0.0,0.0,0.0,0.0,0.0,0.0,0.0,0.0,0.0,0.0,0.0,0.0,0.0,0.0,0.0,0.0,0.0,0.0,0.0,0.0,0.0,0.0,0.0,0.0,0.0,0.0,0.0,0.0,0.0,0.0,0.0,0.0,0.0,-5.1898,-5.3024,-5.3433,0.0,0.0,0.0,0.0,0.0,0.0,-5.3518,-5.3518,0.0,0.0,0.0,0.0,0.0,0.0,0.0,0.0,0.0,0.0,0.0,0.0,0.0,0.0,0.0,0.0,0.0,0.0,0.0,0.0,0.0,0.0,0.0,0.0,0.0,0.0,0.0,0.0,0.0,0.0,0.0,0.0,0.0,0.0,0.0,0.0,0.0,0.0,0.0,0.0,0.0,0.0,0.0,0.0,0.0,0.0,0.0,0.0,0.0,0.0,0.0,0.0,0.0,0.0,0.0,-4.8001,-4.8388,-4.8642,-4.8815,-4.9168,-4.9168,-4.8815,-4.8784,-4.8532,0.0,0.0,0.0,0.0,0.0,0.0,0.0,0.0,0.0,0.0,0.0,0.0,0.0,0.0,0.0,0.0,0.0,0.0,0.0,0.0,0.0,0.0,0.0,0.0,0.0,0.0,0.0,0.0,0.0,0.0,0.0,0.0,0.0,0.0,0.0,0.0,0.0,0.0,0.0,0.0,0.0,-5.2607,-5.3399,-5.3518,0.0,0.0,0.0,0.0,-5.3518,-5.3518,0.0,0.0,0.0,0.0,0.0,0.0,0.0,0.0,0.0,0.0,0.0,0.0,0.0,0.0,0.0,0.0,0.0,0.0,0.0,0.0,0.0,0.0,0.0,0.0,0.0,0.0,0.0,0.0,0.0,0.0,0.0,0.0,0.0,0.0,0.0,0.0,0.0,0.0,0.0,0.0,0.0,0.0,0.0,0.0,0.0,0.0,0.0,0.0,0.0,0.0,0.0,0.0,0.0,0.0,0.0,0.0,-4.8001,-4.8049,-4.8082,-4.8115,-4.8163,-4.8164,-4.8131,-4.8131,-4.8066,0.0,0.0,0.0,0.0,0.0,0.0,0.0,0.0,0.0,0.0,0.0,0.0,0.0,0.0,0.0,0.0,0.0,0.0,0.0,0.0,0.0,0.0,0.0,0.0,0.0,0.0,0.0,0.0,0.0,0.0,0.0,0.0,0.0,0.0,0.0,0.0,0.0,0.0,0.0,0.0,0.0,-5.2607,-5.3399,-5.3518,-5.3518,0.0,0.0,-5.3518,-5.3518,-5.3518,0.0,0.0,0.0,0.0,0.0,0.0,0.0,0.0,0.0,0.0,0.0,0.0,0.0,0.0,0.0,0.0,0.0,0.0,0.0,0.0,0.0,0.0,0.0,0.0,0.0,0.0,0.0,0.0,0.0,0.0,0.0,0.0,0.0,0.0,0.0,0.0,0.0,0.0,0.0,0.0,0.0,0.0,0.0,0.0,0.0,0.0,0.0,0.0,0.0,0.0,0.0,0.0,0.0,0.0,0.0,-4.7371,-4.7355,-4.6957,-4.6839,-4.6934,-4.6917,-4.6917,-4.6917,-4.6917,-4.7053,0.0,0.0,0.0,0.0,0.0,0.0,0.0,0.0,0.0,0.0,0.0,0.0,0.0,0.0,0.0,0.0,0.0,0.0,0.0,0.0,0.0,0.0,0.0,0.0,0.0,0.0,0.0,0.0,0.0,0.0,0.0,0.0,0.0,0.0,0.0,0.0,0.0,0.0,0.0,0.0,0.0,0.0,-5.3314,-5.3518,0.0,0.0,0.0,-5.3518,-5.3518,0.0,0.0,0.0,0.0,0.0,0.0,0.0,0.0,0.0,0.0,0.0,0.0,0.0,0.0,0.0,0.0,0.0,0.0,0.0,0.0,0.0,0.0,0.0,0.0,0.0,0.0,0.0,0.0,0.0,0.0,0.0,0.0,0.0,0.0,0.0,0.0,0.0,0.0,0.0,0.0,0.0,0.0,0.0,0.0,0.0,0.0,0.0,0.0,0.0,0.0,0.0,0.0,0.0,0.0,0.0,0.0,0.0,-4.6626,-4.6063,-4.5891,-4.6017,-4.6017,-4.6032,-4.6048,-4.6032,0.0,0.0,0.0,0.0,0.0,0.0,0.0,0.0,0.0,0.0,0.0,0.0,0.0,0.0,0.0,0.0,0.0,0.0,0.0,0.0,0.0,0.0,0.0,0.0,0.0,0.0,0.0,-4.7309,0.0,0.0,0.0,0.0,0.0,0.0,0.0,0.0,0.0,0.0,0.0,0.0,0.0,0.0,-5.1663,-5.3264,-5.3518,-5.3518,0.0,0.0,-5.3518,-5.3518,-5.3518,-5.3518,0.0,0.0,0.0,0.0,0.0,0.0,0.0,0.0,0.0,0.0,0.0,0.0,0.0,0.0,0.0,0.0,0.0,0.0,0.0,0.0,0.0,0.0,0.0,0.0,0.0,0.0,0.0,0.0,0.0,0.0,0.0,0.0,0.0,0.0,0.0,0.0,0.0,0.0,0.0,0.0,0.0,0.0,0.0,0.0,0.0,0.0,0.0,0.0,0.0,0.0,0.0,0.0,0.0,0.0,-4.5881,-4.5864,-4.5814,-4.5765,-4.5829,-4.5829,-4.5829,-4.5829,-4.5812,-4.616,0.0,0.0,0.0,0.0,0.0,0.0,0.0,0.0,0.0,0.0,0.0,0.0,0.0,0.0,0.0,0.0,0.0,0.0,0.0,0.0,0.0,0.0,0.0,0.0,0.0,0.0,0.0,0.0,0.0,0.0,0.0,0.0,0.0,0.0,0.0,0.0,0.0,0.0,0.0,0.0,0.0,-5.1663,-5.328,-5.3518,-5.3518,0.0,-5.3518,-5.3518,-5.3518,-5.3518,-5.3518,-5.3518,0.0,0.0,0.0,0.0,0.0,0.0,0.0,0.0,0.0,0.0,0.0,0.0,0.0,0.0,0.0,0.0,0.0,0.0,0.0,0.0,0.0,0.0,0.0,0.0,0.0,0.0,0.0,0.0,0.0,0.0,0.0,0.0,0.0,0.0,0.0,0.0,0.0,0.0,0.0,0.0,0.0,0.0,0.0,0.0,0.0,0.0,0.0,0.0,0.0,0.0,0.0,0.0,0.0,-4.5119,-4.5102,-4.4671,-4.4426,-4.444,-4.4426,-4.4456,-4.4456,-4.4456,-4.4804,0.0,0.0,0.0,0.0,0.0,0.0,0.0,0.0,0.0,0.0,0.0,0.0,0.0,0.0,0.0,0.0,0.0,0.0,0.0,0.0,0.0,0.0,0.0,0.0,0.0,0.0,0.0,0.0,-4.7309,-4.7309,-4.7309,0.0,0.0,0.0,0.0,0.0,0.0,0.0,0.0,0.0,0.0,-5.0925,-5.3161,-5.3093,0.0,0.0,-5.3518,-5.3518,-5.3518,-5.3518,-5.3518,-5.3518,-5.3518,0.0,0.0,0.0,0.0,0.0,0.0,0.0,0.0,0.0,0.0,0.0,0.0,0.0,0.0,0.0,0.0,0.0,0.0,0.0,0.0,0.0,0.0,0.0,0.0,0.0,0.0,0.0,0.0,0.0,0.0,0.0,0.0,0.0,0.0,0.0,0.0,0.0,0.0,0.0,0.0,0.0,0.0,0.0,0.0,0.0,0.0,0.0,0.0,0.0,0.0,0.0,0.0,-4.4373,-4.4373,-4.3876,-4.3615,-4.3615,-4.3615,-4.3615,-4.3615,-4.3615,-4.3929,0.0,0.0,0.0,0.0,0.0,0.0,0.0,0.0,0.0,0.0,0.0,0.0,0.0,0.0,0.0,0.0,0.0,0.0,0.0,0.0,0.0,0.0,0.0,0.0,0.0,0.0,0.0,0.0,-4.7309,-4.7309,-4.7309,0.0,0.0,0.0,0.0,0.0,0.0,0.0,0.0,0.0,0.0,-5.0643,-5.2731,-5.259,-5.2589,-5.3399,-5.328,-5.3212,-5.3467,-5.3518,-5.3518,-5.3518,0.0,0.0,0.0,0.0,0.0,0.0,0.0,0.0,0.0,0.0,0.0,0.0,0.0,0.0,0.0,0.0,0.0,0.0,0.0,0.0,0.0,0.0,0.0,0.0,0.0,0.0,0.0,-4.9826,0.0,0.0,-4.8415,0.0,0.0,0.0,0.0,0.0,0.0,0.0,0.0,0.0,0.0,0.0,0.0,0.0,0.0,0.0,0.0,0.0,0.0,0.0,0.0,0.0,0.0,-4.3631,-4.3631,-4.3615,-4.3615,-4.3615,-4.3615,-4.3615,-4.3615,-4.3615,-4.3929,-4.4655,0.0,0.0,0.0,0.0,0.0,0.0,0.0,0.0,0.0,0.0,0.0,0.0,0.0,0.0,0.0,0.0,0.0,0.0,0.0,0.0,0.0,0.0,0.0,0.0,0.0,0.0,-4.7309,-4.7309,-4.7309,0.0,0.0,0.0,0.0,0.0,0.0,0.0,0.0,0.0,-4.8743,-4.9891,-5.0946,-5.1849,-5.215,-5.2572,-5.3399,-5.2834,-5.2607,-5.3399,-5.3518,-5.3518,0.0,0.0,0.0,0.0,0.0,0.0,0.0,0.0,0.0,0.0,0.0,0.0,0.0,0.0,0.0,0.0,0.0,0.0,0.0,0.0,0.0,0.0,0.0,0.0,0.0,0.0,0.0,-5.0691,-4.9672,0.0,0.0,0.0,0.0,0.0,0.0,0.0,0.0,0.0,0.0,0.0,-4.434,-4.4092,0.0,0.0,0.0,0.0,0.0,0.0,0.0,0.0,0.0,0.0,0.0,0.0,-4.3615,-4.3615,-4.3615,-4.3615,-4.3615,-4.3615,-4.3615,-4.3615,-4.3615,-4.3959,-4.4702,0.0,0.0,0.0,0.0,0.0,0.0,0.0,0.0,0.0,0.0,0.0,0.0,0.0,0.0,0.0,0.0,0.0,0.0,0.0,0.0,0.0,0.0,0.0,0.0,0.0,-4.7934,0.0,0.0,0.0,0.0,0.0,0.0,0.0,0.0,0.0,0.0,0.0,-4.7722,-4.8677,-4.8856,-4.9662,-5.1614,-5.1683,-5.1987,0.0,0.0,0.0,0.0,0.0,0.0,0.0,0.0,0.0,0.0,0.0,0.0,0.0,0.0,-5.3518,-5.3518,-5.328,-5.3024,-5.2747,0.0,0.0,0.0,0.0,0.0,0.0,0.0,0.0,0.0,0.0,0.0,0.0,0.0,0.0,-5.0838,0.0,-4.9249,0.0,0.0,0.0,0.0,0.0,0.0,0.0,0.0,-4.3975,-4.3671,-4.3818,-4.3687,-4.3615,0.0,-4.3615,-4.3615,0.0,0.0,0.0,0.0,0.0,0.0,0.0,0.0,-4.3615,-4.3615,-4.3615,-4.3615,-4.3615,-4.3615,-4.3615,-4.3615,-4.3615,-4.3813,-4.4291,-4.4307,-4.4324,0.0,0.0,0.0,0.0,0.0,0.0,0.0,0.0,0.0,0.0,0.0,0.0,0.0,0.0,0.0,0.0,0.0,0.0,0.0,0.0,0.0,0.0,0.0,-4.824,0.0,0.0,0.0,0.0,0.0,0.0,0.0,0.0,0.0,-4.7309,-4.7309,-4.7523,-4.8183,-4.8267,-4.8897,-5.0611,0.0,0.0,0.0,0.0,0.0,0.0,0.0,-5.3518,-5.3518,-5.3467,-5.3382,-5.3382,-5.3467,-5.3433,-5.3144,0.0,0.0,-5.3093,-5.3093,-5.2903,-5.2362,-5.1983,-5.1544,-5.0826,-5.043,-5.0034,0.0,0.0,0.0,0.0,0.0,0.0,0.0,0.0,-5.1593,-5.0878,0.0,-4.9089,0.0,0.0,0.0,0.0,0.0,-4.4051,0.0,0.0,-4.4006,-4.3848,-4.4224,-4.3789,-4.3615,-4.3615,-4.3615,-4.3615,-4.3615,-4.3615,0.0,0.0,0.0,0.0,0.0,0.0,-4.3615,-4.3615,-4.3615,-4.3615,-4.3615,-4.3615,-4.3615,-4.3615,-4.3615,-4.3615,-4.3615,-4.3615,-4.3615,-4.3615,-4.3631,0.0,0.0,0.0,0.0,0.0,0.0,0.0,0.0,0.0,0.0,0.0,0.0,0.0,0.0,0.0,0.0,0.0,0.0,0.0,0.0,-4.8599,0.0,0.0,0.0,0.0,0.0,0.0,0.0,0.0,0.0,0.0,-4.7309,-4.7309,-4.7309,-4.7309,0.0,0.0,0.0,0.0,-5.0064,-5.1631,-5.1426,-5.1643,-5.3161,-5.3399,-5.3433,-5.3501,0.0,0.0,-5.3128,-5.3264,-5.3093,-5.2378,-5.2236,-5.2236,-5.2183,-5.2183,-5.1822,-5.04,-5.0647,-5.0783,-5.0167,-5.0393,-5.08,-5.2498,0.0,0.0,0.0,0.0,-5.1629,-5.1303,-5.0782,-5.0565,-4.9911,-4.9016,-4.852,0.0,0.0,0.0,0.0,0.0,0.0,-4.453,-4.4446,-4.4207,-4.3993,-4.3789,-4.3641,-4.3615,-4.3615,-4.3615,-4.3615,-4.3615,-4.3615,-4.3615,-4.3615,0.0,0.0,0.0,0.0,-4.3615,-4.3615,-4.3615,-4.3615,-4.3615,-4.3615,-4.3615,-4.3615,-4.3615,-4.3615,-4.3615,-4.3615,-4.3615,-4.3615,-4.3615,0.0,0.0,0.0,0.0,0.0,0.0,0.0,0.0,0.0,0.0,0.0,0.0,0.0,0.0,0.0,0.0,0.0,0.0,0.0,-4.8599,-4.8599,-4.8256,0.0,0.0,0.0,0.0,0.0,0.0,0.0,0.0,0.0,-4.7309,-4.7309,-4.7309,0.0,0.0,-4.8157,-4.8702,-4.9085,-4.9662,-5.0681,-5.0681,0.0,-5.1426,-5.1974,-5.262,-5.3369,-5.1995,-5.1043,-5.1914,-5.1631,-5.1225,-5.1,-5.0962,-5.0773,-5.0252,-5.0843,-5.122,-5.0859,-5.0499,-5.0206,-4.9947,-4.963,-4.9349,-5.1556,-5.1574,-5.1882,-5.1556,-5.0832,-5.0836,-5.0565,-5.0053,-4.9657,-4.9109,-4.8466,-4.7841,-4.7128,-4.6381,-4.5963,0.0,0.0,0.0,-4.4954,-4.5025,-4.468,-4.439,-4.4105,-4.3948,-4.3776,-4.3615,-4.3615,-4.3615,-4.3615,-4.3615,-4.3615,-4.3615,0.0,0.0,-4.3615,-4.3615,-4.3615,-4.3615,-4.3615,-4.3615,-4.3615,-4.3615,-4.3615,-4.3615,-4.3615,-4.3615,-4.3615,-4.3615,-4.3615,-4.3615,-4.3615,-4.3615,0.0,0.0,0.0,0.0,0.0,0.0,0.0,0.0,0.0,0.0,0.0,-4.8953,-4.8599,0.0,0.0,0.0,-4.9197,-4.9075,-4.906,-4.8805,0.0,0.0,0.0,0.0,0.0,0.0,0.0,-4.7309,-4.7309,-4.7309,-4.7309,-4.7309,-4.7309,-4.7309,-4.7424,-4.7651,-4.8157,0.0,-4.8846,-4.9671,-4.9868,-5.0064,-5.049,-5.0984,-5.1524,-5.2052,-5.0883,-5.008,-5.0806,-5.0665,-5.0297,-5.0041,-4.9907,-4.9647,-4.8846,-4.9358,-4.9994,-5.0252,-4.9678,-4.9362,-4.9992,-4.9501,-4.8971,-5.0075,-5.0071,-5.0778,-5.0669,-5.0021,-5.0021,-4.9945,-4.9792,-4.8812,-4.8376,-4.8254,-4.7103,-4.6708,-4.6888,-4.6284,0.0,-4.6172,-4.5363,-4.5407,-4.6105,-4.5284,-4.4882,-4.4828,-4.4418,-4.4023,-4.3615,-4.3615,-4.3615,-4.3615,-4.3615,-4.3615,-4.3615,-4.3615,-4.3615,-4.3615,-4.3615,-4.3615,-4.3615,-4.3615,-4.3615,-4.3615,-4.3615,-4.3615,-4.3615,-4.3615,-4.3615,-4.3615,-4.3615,-4.3615,-4.3615,-4.3615,-4.3615,-4.3631,0.0,0.0,0.0,0.0,0.0,0.0,0.0,0.0,0.0,0.0,0.0,0.0,0.0,0.0,0.0,-4.9463,0.0,-4.9686,-4.8994,0.0,0.0,0.0,-4.7309,-4.7309,-4.7309,-4.7309,-4.7309,0.0,0.0,-4.7309,-4.7309,-4.7309,-4.7309,-4.7309,-4.7309,-4.7309,-4.751,-4.7849,-4.861,-4.8913,-4.9318,-4.9907,-5.0117,-5.0217,-5.0313,-4.9833,-4.9628,-4.9891,-4.997,-4.9789,-4.9157,-4.905,-4.8821,-4.8091,-4.8049,-4.8202,-4.905,-4.865,-4.8661,-4.9978,-4.9904,-4.9684,-4.9727,-4.922,-4.9401,-4.9343,-4.9202,-4.9202,-4.8714,-4.7965,-4.7701,-4.7389,-4.7026,-4.6749,-4.6518,-4.6392,-4.6204,-4.6172,-4.6189,-4.598,-4.5854,-4.5727,-4.5169,-4.4746,-4.4435,-4.3993,-4.37,-4.3598,-4.3615,-4.3615,-4.3615,-4.3615,-4.3615,-4.3615,-4.3615,-4.3615,-4.3615,-4.3615,-4.3615,-4.3615,-4.3615,-4.3615,-4.3615,-4.3615,-4.3615,-4.3615,-4.3615,-4.3615,-4.3615,-4.3615,-4.3615,-4.3615,-4.3615,-4.3615,-4.3615,-4.4307,0.0,0.0,0.0,0.0,0.0,0.0,0.0,0.0,0.0,-5.0422,-4.9567,0.0,-5.0057,0.0,-5.0461,-4.9543,-4.8953,-4.813,0.0,0.0,-4.7424,-4.7309,-4.7309,-4.7309,-4.7309,-4.7309,-4.7309,-4.7309,-4.7309,-4.7309,-4.7309,-4.7309,-4.7309,-4.7309,-4.7309,-4.7352,-4.7424,-4.7651,-4.7737,-4.7864,-4.8267,-4.8449,-4.8944,-4.9946,-4.8882,-4.8165,-4.886,-4.8434,-4.7976,-4.7779,-4.7737,-4.7666,-4.751,-4.7467,-4.7794,-4.8578,-4.8863,-4.9096,-4.952,-5.0008,-5.0411,-4.8768,-4.8387,-4.8348,-4.8348,-4.8348,-4.8366,-4.7948,-4.7298,-4.7209,-4.6962,-4.659,-4.6471,-4.6343,-4.6214,-4.6214,-4.6214,-4.6214,-4.6214,-4.6073,-4.5854,-4.5407,-4.4981,-4.4558,-4.4121,-4.3789,-4.3598,-4.3615,-4.3615,-4.3615,-4.3615,-4.3615,-4.3615,-4.3615,-4.3615,-4.3615,-4.3615,-4.3615,-4.3615,-4.3615,-4.3615,-4.3615,-4.3615,-4.3615,-4.3615,-4.3615,-4.3615,-4.3615,-4.3615,-4.3615,-4.3615,-4.3615,-4.3687,-4.3866,-4.4572,-4.5281,0.0,0.0,0.0,0.0,0.0,0.0,0.0,0.0,0.0,0.0,0.0,-5.0477,-5.0685,-4.9821,-4.906,-4.8641,-4.7807,-4.7467,-4.7864,-4.7553,-4.7309,-4.7309,-4.7309,-4.7309,-4.7309,-4.7309,-4.7309,-4.7309,-4.7309,-4.7309,-4.7309,-4.7309,-4.7309,-4.7309,-4.7309,-4.7309,-4.7309,-4.7309,-4.7352,-4.7467,-4.758,-4.7961,-4.8558,-4.8002,-4.7482,-4.7943,-4.7624,-4.7309,-4.7309,-4.7309,-4.7309,-4.7309,-4.7309,-4.751,-4.7943,-4.8809,-4.9532,-5.0082,-5.0593,-5.1059,-4.7699,-4.7699,-4.7699,-4.7699,-4.7696,-4.7675,-4.7511,-4.7254,-4.7048,-4.6795,-4.6542,-4.6295,-4.6214,-4.6214,-4.6214,-4.6214,-4.6214,-4.6214,-4.6214,-4.6189,-4.5752,-4.5302,-4.4882,-4.4418,-4.3993,-4.3598,-4.3615,-4.3615,-4.3615,-4.3615,-4.3615,-4.3615,-4.3615,-4.3615,-4.3615,-4.3615,-4.3582,-4.3522,-4.3582,-4.3568,-4.3462,-4.3539,-4.3522,-4.3462,-4.3479,-4.3462,-4.3462,-4.3462,-4.3462,-4.3462,-4.3462,-4.3687,-4.4116,-4.4866,-4.5603,0.0,-4.7045,0.0,0.0,0.0,0.0,0.0,0.0,0.0,0.0,-5.0951,-5.0283,-4.8723,-4.8599,-4.8599,-4.8599,-4.7807,-4.7624,-4.8297,-4.7737,-4.7309,-4.7309,-4.7309,-4.7309,-4.7309,-4.7309,-4.7309,-4.7309,-4.7309,-4.7309,-4.7309,-4.7309,-4.7309,-4.7309,-4.7309,-4.7309,-4.7309,-4.7309,-4.7294,-4.7309,-4.7294,-4.7322,-4.7337,-4.7351,-4.7309,-4.7337,-4.7309,-4.7309,-4.7309,-4.7309,-4.7309,-4.7309,-4.7309,-4.7339,-4.7546,-4.8622,-4.9833,-5.0651,-5.1192,-5.1648,-4.7699,-4.7699,-4.7699,-4.7699,-4.7696,-4.7468,-4.7254,-4.7048,-4.6795,-4.6518,-4.627,-4.6221,-4.6214,-4.6214,-4.6214,-4.6214,-4.6214,-4.6214,-4.6214,-4.6172,-4.539,-4.4974,-4.4838,-4.4076,-4.3687,-4.3598,-4.3615,-4.3615,-4.3615,-4.3615,-4.3615,-4.3615,-4.3615,-4.3615,-4.3615,0.0,0.0,0.0,-4.3462,-4.3325,-4.282,-4.3035,-4.3066,-4.2803,-4.2789,0.0,-4.2789,-4.2803,-4.2772,-4.2789,-4.2772,0.0,0.0,0.0,0.0,0.0,0.0,0.0,0.0,0.0,0.0,0.0,-4.9758,-5.016,-5.0055,-5.0057,-4.9638,-4.8723,-4.8599,-4.8599,-4.8558,-4.7822,-4.7337,-4.751,-4.7424,-4.7309,-4.7309,-4.7309,-4.7309,-4.7309,-4.7309,-4.7309,-4.7309,-4.7309,-4.7309,-4.7309,-4.7309,-4.7309,-4.7309,-4.7309,-4.7309,-4.7309,-4.7309,-4.7309,-4.7309,-4.7309,-4.7309,-4.7309,-4.7309,-4.7309,-4.7309,-4.7309,-4.7309,-4.7309,-4.7309,-4.7309,-4.7309,-4.7309,-4.7459,-4.7982,-4.8893,-4.9642,-4.9895,-5.0969,-5.1972,-4.7699,-4.7699,-4.7699,-4.7699,0.0,-4.7407,-4.7205,-4.6998,-4.6708,-4.6447,-4.6214,-4.6214,-4.6214,-4.6214,-4.6214,-4.6214,-4.6214,-4.6214,-4.6214,-4.6147,-4.5311,-4.4892,-4.4882,-4.3989,-4.3615,-4.3615,-4.3615,-4.3615,-4.3615,-4.3615,-4.3615,-4.3615,-4.3449,-4.3372,-4.3325,-4.3204,-4.3096,-4.3096,-4.3113,-4.2959,-4.2601,-4.2774,-4.2789,-4.2617,-4.2617,0.0,0.0,0.0,0.0,0.0,0.0,0.0,0.0,-4.4642,0.0,-4.6531,-4.7291,-4.7605,-4.7487,-4.881,-4.9619,-4.9602,-4.9773,-4.9885,-4.9789,-4.9423,-4.9035,-4.8656,-4.8198,-4.7976,-4.7934,-4.7538,-4.7309,-4.7309,-4.7309,-4.7309,-4.7309,-4.7309,-4.7309,-4.7309,-4.7309,-4.7309,-4.7309,-4.7309,-4.7309,-4.7309,-4.7309,-4.7309,-4.7309,-4.7309,-4.7309,-4.7309,-4.7309,-4.7309,-4.7309,-4.7309,-4.7309,-4.7309,-4.7309,-4.7309,-4.7309,-4.7309,-4.7309,-4.7309,-4.7309,-4.7309,-4.7309,-4.7309,-4.7414,-4.7803,-4.867,-4.9404,-4.9539,-5.0819,-5.2063,-4.7699,-4.7699,-4.7699,-4.7699,-4.7678,-4.7389,-4.7165,-4.6929,0.0,0.0,0.0,-4.6214,-4.6214,-4.6214,-4.6214,-4.6214,-4.6214,-4.6214,-4.6214,-4.6147,-4.5284,-4.4892,-4.4855,-4.4006,-4.3615,-4.3615,-4.3615,-4.3615,-4.3615,-4.3615,-4.3568,-4.3492,-4.3235,-4.3066,-4.3005,-4.2679,-4.2648,-4.2912,-4.271,-4.2539,-4.2445,-4.2508,-4.2492,-4.2444,-4.2428,-4.2428,-4.2428,-4.2428,-4.2428,-4.2428,-4.2428,-4.2928,-4.4042,-4.4539,-4.5452,-4.6781,-4.7286,-4.7671,-4.8001,-4.9392,-5.0182,-5.0136,-4.9805,-4.9583,-4.9567,-4.8846,-4.8366,-4.8366,-4.7603,-4.7174,-4.7294,-4.7189,-4.7189,-4.7294,-4.7309,-4.7309,-4.7309,-4.7309,-4.7309,-4.7309,-4.7309,-4.7309,-4.7309,-4.7309,-4.7309,-4.7309,-4.7309,-4.7309,-4.7309,-4.7309,-4.7309,-4.7309,-4.7309,-4.7309,-4.7309,-4.7309,-4.7309,-4.7309,-4.7309,-4.7309,-4.7309,-4.7309,-4.7309,-4.7309,-4.7309,-4.7309,-4.7309,-4.7309,-4.7354,-4.7459,-4.8416,-4.9359,-4.9554,-5.0758,-5.1941,-4.7699,-4.7699,-4.7699,-4.7699,-4.7678,-4.7407,-4.7075,-4.6637,-4.6374,-4.6221,-4.6214,-4.6214,-4.6214,-4.6214,-4.6214,-4.6214,-4.6214,-4.6214,-4.6214,-4.6147,-4.5311,-4.4892,-4.4855,-4.4006,-4.3615,-4.3615,-4.3615,-4.3615,-4.3615,-4.3615,-4.3446,-4.3204,-4.3127,-4.2943,-4.2679,-4.2349,-4.2206,-4.2238,-4.2476,-4.2301,-4.1753,-4.2013,-4.2045,-4.1785,-4.1737,-4.1753,-4.1753,-4.1753,-4.1737,-4.1753,-4.1737,-4.237,-4.3699,-4.4439,-4.542,-4.6815,-4.7538,-4.7935,-4.8034,-4.9375,-5.0088,-4.9821,-4.9209,-4.8764,-4.8723,-4.7976,-4.7467,-4.7437,-4.6886,-4.6696,-4.7174,-4.6815,-4.6756,-4.7219,-4.7309,-4.7309,-4.7309,-4.7309,-4.7309,-4.7309,-4.7309,-4.7309,-4.7309,-4.7309,-4.7309,-4.7309,-4.7309,-4.7309,-4.7309,-4.7309,-4.7309,-4.7309,-4.7309,-4.7309,-4.7309,-4.7309,-4.7309,-4.7309,-4.7309,-4.7309,-4.7309,-4.7309,-4.7309,-4.7309,-4.7309,-4.7309,-4.7309,-4.7309,-4.7504,-4.7908,-4.873,-4.9374,-4.9853,-5.0847,-5.1711,-4.7699,-4.7699,-4.7699,-4.7699,-4.7675,-4.7294,-4.7007,-4.6795,-4.6368,-4.6214,-4.6214,-4.6214,-4.6214,-4.6214,-4.6214,-4.6214,-4.6214,-4.6214,-4.6214,-4.6147,-4.558,-4.5152,-4.4855,-4.4276,-4.3848,-4.3628,-4.3615,-4.3615,-4.3615,-4.3615,-4.3492,-4.3325,-4.3005,-4.2664,-4.2317,-4.2013,-4.19,-4.2077,-4.2061,-4.19,-4.1606,-4.1737,-4.1753,-4.1588,-4.1588,-4.1588,-4.1588,-4.1588,-4.1588,-4.1588,-4.2166,-4.2933,-4.397,-4.4844,-4.5825,-4.683,-4.7404,-4.7671,-4.7671,-4.8799,-4.958,-4.9741,-4.8733,-4.7829,-4.7388,-4.6996,-4.677,-4.677,-4.6444,-4.6399,-4.6756,-4.6815,-4.6965,-4.7249,-4.7309,-4.7309,-4.7309,-4.7309,-4.7309,-4.7309,-4.7309,-4.7309,-4.7309,-4.7309,-4.7309,-4.7309,-4.7309,-4.7309,-4.7309,-4.7309,-4.7309,-4.7309,-4.7309,-4.7309,-4.7309,-4.7309,-4.7309,-4.7309,-4.7309,-4.7309,-4.7309,-4.7309,-4.7309,-4.7309,-4.7309,-4.7309,-4.7309,-4.7309,-4.7474,-4.7698,-4.8611,-4.9284,-4.9492,-5.0514,-5.1681,-4.7699,-4.7699,-4.7699,-4.7657,-4.7572,-4.716,-4.6957,-4.6865,-4.6392,-4.6214,-4.6214,-4.6214,-4.6214,-4.6214,-4.6214,-4.6214,-4.6214,-4.6214,-4.6214,-4.6147,-4.5803,-4.5354,-4.4882,-4.4474,-4.4051,-4.3658,-4.3615,-4.3615,-4.3615,-4.3615,-4.3522,-4.3325,-4.2789,-4.2349,-4.2109,-4.1851,-4.1851,-4.2077,-4.1801,-4.1588,-4.1588,-4.1588,-4.1588,-4.1588,-4.1588,-4.1588,-4.1588,-4.1588,-4.1588,-4.1653,-4.2633,-4.3501,-4.4172,-4.5184,-4.6131,-4.6813,-4.7218,-4.7484,-4.7742,-4.812,-4.8642,-4.9205,-4.7939,-4.6772,-4.6152,-4.5948,-4.5906,-4.6067,-4.6082,-4.6127,-4.6324,-4.6756,-4.7145,-4.7279,-4.7309,-4.7309,-4.7309,-4.7309,-4.7309,-4.7309,-4.7309,-4.7309,-4.7309,-4.7309,-4.7309,-4.7309,-4.7309,-4.7309,-4.7309,-4.7309,-4.7309,-4.7309,-4.7309,-4.7309,-4.7309,-4.7309,-4.7309,-4.7309,-4.7309,-4.7309,-4.7309,-4.7309,-4.7309,-4.7309,-4.7309,-4.7309,-4.7309,-4.7309,-4.7324,-4.7459,-4.8237,-4.9015,-4.9314,-5.0423,-5.165,-4.7699,-4.7699,-4.7699,-4.7554,-4.7302,-4.7093,-4.6865,-4.6631,-4.6301,-4.6214,-4.6214,-4.6214,-4.6214,-4.6214,-4.6214,-4.6214,-4.6214,-4.6214,-4.6214,-4.6147,-4.5803,-4.5372,-4.491,-4.4502,-4.4051,-4.3658,-4.3615,-4.3615,-4.3615,-4.3615,-4.3295,-4.271,-4.2317,-4.2174,-4.2109,-4.2077,-4.2077,-4.2077,-4.1785,-4.1588,-4.1588,-4.1588,-4.1588,-4.1588,-4.1588,-4.1588,-4.1588,-4.1588,-4.1588,-4.1685,-4.2649,-4.3401,-4.3881,-4.5064,-4.6131,-4.6862,-4.7218,-4.7774,-4.8544,-4.762,-4.7186,-4.7605,-4.6427,-4.5545,-4.5364,-4.4855,-4.4781,-4.5244,-4.5394,-4.5678,-4.619,-4.6426,-4.6756,-4.7249,-4.7309,-4.7309,-4.7309,-4.7309,-4.7309,-4.7309,-4.7309,-4.7309,-4.7309,-4.7309,-4.7309,-4.7309,-4.7309,-4.7309,-4.7309,-4.7309,-4.7309,-4.7309,-4.7309,-4.7309,-4.7309,-4.7309,-4.7309,-4.7309,-4.7309,-4.7309,-4.7309,-4.7309,-4.7309,-4.7309,-4.7309,-4.7309,-4.7309,-4.7309,-4.7309,-4.7369,-4.7952,-4.8745,-4.996,-5.0861,-5.1373,-4.7699,-4.7699,-4.7699,-4.7533,-4.7298,-4.7093,-4.6865,-4.659,-4.6319,-4.6214,-4.6214,-4.6214,-4.6214,-4.6214,-4.6214,-4.6214,-4.6214,-4.6214,-4.6214,-4.6189,-4.6023,-4.5563,-4.4937,-4.4763,-4.4288,-4.3658,-4.3615,-4.3615,-4.3615,-4.3615,-4.3235,-4.2664,-4.2633,-4.2601,-4.2412,-4.2206,-4.2206,-4.2365,-4.1883,-4.1588,-4.1588,-4.1588,-4.1588,-4.1588,-4.1588,-4.1588,-4.1588,-4.1588,-4.1877,-4.2537,-4.357,-4.441,-4.4934,-4.5914,-4.6568,-4.686,-4.6791,-4.7211,-4.8217,-4.6866,-4.6276,-4.6936,-4.5597,-4.4721,-4.4691,-4.4067,-4.4003,-4.4631,-4.505,-4.5439,-4.5753,-4.6426,-4.701,-4.7249,-4.7309,-4.7309,-4.7309,-4.7309,-4.7309,-4.7309,-4.7309,-4.7309,-4.7309,-4.7309,-4.7309,-4.7309,-4.7309,-4.7309,-4.7309,-4.7309,-4.7309,-4.7309,-4.7309,-4.7309,-4.7309,-4.7309,-4.7309,-4.7309,-4.7309,-4.7309,-4.7309,-4.7309,-4.7309,-4.7309,-4.7309,-4.7309,-4.7309,-4.7309,-4.7309,-4.7399,-4.7507,-4.8209,-5.0019,-5.0831,-5.1207,-4.7699,-4.7699,-4.7699,-4.7529,-4.7209,-4.707,-4.6795,-4.6495,-4.627,-4.6214,-4.6214,-4.6214,-4.6214,-4.6214,-4.6214,-4.6214,-4.6214,-4.6214,-4.6214,-4.6214,-4.6214,-4.5829,-4.5142,-4.4964,-4.4513,-4.3877,-4.3658,-4.3615,-4.3598,-4.3492,-4.3143,-4.2711,-4.2912,-4.2881,-4.2491,-4.2302,-4.2285,-4.2365,-4.19,-4.1588,-4.1588,-4.1588,-4.1588,-4.1588,-4.1588,-4.1588,-4.1588,-4.1588,-4.2037,-4.3033,-4.4087,-4.4896,-4.5488,-4.6401,-4.6945,-4.7014,-4.6636,-4.6766,-4.7512,-4.6103,-4.544,-4.581,-4.473,-4.4007,-4.3932,-4.3559,-4.3618,-4.4272,-4.4915,-4.5349,-4.5693,-4.6606,-4.7264,-4.7309,-4.7309,-4.7309,-4.7309,-4.7309,-4.7309,-4.7309,-4.7309,-4.7309,-4.7309,-4.7309,-4.7309,-4.7309,-4.7309,-4.7309,-4.7309,-4.7309,-4.7309,-4.7309,-4.7309,-4.7309,-4.7309,-4.7309,-4.7309,-4.7309,-4.7309,-4.7309,-4.7309,-4.7309,-4.7309,-4.7309,-4.7309,-4.7309,-4.7309,-4.7309,-4.7309,-4.7311,-4.7404,-4.7822,-4.9209,-5.0124,-5.0575,-4.7699,-4.7699,-4.7699,-4.7443,-4.7002,-4.7002,-4.6702,-4.6246,-4.6196,-4.6214,-4.6214,-4.6214,-4.6214,-4.6214,-4.6214,-4.6214,-4.6214,-4.6214,-4.6214,-4.6214,-4.6214,-4.598,-4.5555,-4.5115,-4.468,-4.4196,-4.3789,-4.3615,-4.3568,-4.3312,-4.2943,-4.2648,-4.299,-4.2805,-4.2333,-4.2428,-4.2412,-4.219,-4.1818,-4.1588,-4.1588,-4.1588,-4.1588,-4.1588,-4.1588,-4.1588,-4.1588,-4.1588,-4.1969,-4.2697,-4.3785,-4.4489,-4.4862,-4.6159,-4.7014,-4.7236,-4.6965,-4.6734,-4.6539,-4.5359,-4.451,-4.4379,-4.3833,-4.3364,-4.3439,-4.3349,-4.3618,-4.4272,-4.493,-4.5529,-4.6217,-4.6875,-4.7294,-4.7309,-4.7309,-4.7309,-4.7309,-4.7309,-4.7309,-4.7309,-4.7309,-4.7309,-4.7309,-4.7309,-4.7309,-4.7309,-4.7309,-4.7309,-4.7309,-4.7309,-4.7309,-4.7309,-4.7309,-4.7309,-4.7309,-4.7309,-4.7309,-4.7309,-4.7309,-4.7309,-4.7309,-4.7309,-4.7309,-4.7309,-4.7309,-4.7309,-4.7309,-4.7309,-4.7309,-4.7282,-4.7329,-4.7837,-4.8671,-4.9015,-4.9479,-4.7699,-4.7699,-4.7699,-4.7421,-4.7002,-4.6998,-4.6702,-4.6214,-4.6214,-4.6214,-4.6214,-4.6214,-4.6214,-4.6214,-4.6214,-4.6214,-4.6214,-4.6214,-4.6214,-4.6214,-4.6214,-4.598,-4.558,-4.5142,-4.468,-4.4265,-4.3818,-4.3615,-4.3598,-4.3462,-4.3265,-4.3035,-4.3235,-4.319,-4.2805,-4.2648,-4.2522,-4.2381,-4.1867,-4.1588,-4.1588,-4.1588,-4.1588,-4.1588,-4.1588,-4.1588,-4.1588,-4.1588,-4.2259,-4.3653,-4.4076,-4.4715,-4.5649,-4.6454,-4.6858,-4.6687,-4.6304,-4.5864,-4.5257,-4.4335,-4.372,-4.3668,-4.3439,-4.3305,-4.3305,-4.3319,-4.3638,-4.4419,-4.4994,-4.5738,-4.6696,-4.7174,-4.7309,-4.7309,-4.7309,-4.7309,-4.7309,-4.7309,-4.7309,-4.7309,-4.7309,-4.7309,-4.7309,-4.7309,-4.7309,-4.7309,-4.7309,-4.7309,-4.7309,-4.7309,-4.7309,-4.7309,-4.7309,-4.7309,-4.7309,-4.7309,-4.7309,-4.7309,-4.7309,-4.7309,-4.7309,-4.7309,-4.7309,-4.7309,-4.7309,-4.7309,-4.7309,-4.7309,-4.7309,-4.7296,-4.7299,-4.7567,-4.8192,-4.8535,-4.888,-4.7699,-4.7699,-4.7699,-4.7421,-4.702,-4.6998,-4.6678,-4.6239,-4.6214,-4.6214,-4.6214,-4.6214,-4.6214,-4.6214,-4.6214,-4.6214,-4.6214,-4.6214,-4.6214,-4.6214,-4.6214,-4.6055,-4.5735,-4.5178,-4.4746,-4.4418,-4.386,-4.3615,-4.3615,-4.3615,-4.3402,-4.3143,-4.3432,-4.3372,-4.2974,-4.271,-4.257,-4.2333,-4.1867,-4.1588,-4.1588,-4.1588,-4.1588,-4.1588,-4.1588,-4.1588,-4.1604,-4.181,-4.2574,-4.3892,-4.4325,-4.5067,-4.6333,-4.6738,-4.6756,-4.6461,-4.5985,-4.5332,-4.4548,-4.3771,-4.3305,-4.3305,-4.3305,-4.3305,-4.3305,-4.3484,-4.3997,-4.4616,-4.5326,-4.6127,-4.698,-4.7309,-4.7309,-4.7309,-4.7309,-4.7309,-4.7309,-4.7309,-4.7309,-4.7309,-4.7309,-4.7309,-4.7309,-4.7309,-4.7309,-4.7309,-4.7309,-4.7309,-4.7309,-4.7309,-4.7309,-4.7309,-4.7309,-4.7309,-4.7309,-4.7309,-4.7309,-4.7309,-4.7309,-4.7309,-4.7309,-4.7309,-4.7309,-4.7309,-4.7309,-4.7309,-4.7309,-4.7309,-4.7309,-4.7309,-4.7311,-4.7475,-4.7788,-4.7996,-4.8281,-4.7699,-4.7699,-4.7699,-4.7443,-4.7043,-4.6998,-4.6702,-4.6263,-4.6214,-4.6214,-4.6214,-4.6214,-4.6214,-4.6214,-4.6214,-4.6214,-4.6214,-4.6214,-4.6214,-4.6214,-4.6214,-4.6214,-4.6097,-4.5284,-4.4845,-4.4663,-4.3977,-4.3598,-4.3615,-4.3615,-4.3432,-4.3235,-4.3432,-4.3325,-4.2648,-4.2648,-4.2444,-4.2174,-4.1818,-4.1588,-4.1588,-4.1588,-4.1588,-4.1588,-4.1588,-4.162,-4.1652,-4.2284,-4.2947,-4.3709,-4.4357,-4.5391,-4.6609,-4.6876,-4.686,-4.662,-4.6092,-4.5332,-4.4472,-4.3732,-4.3305,-4.3305,-4.3305,-4.3305,-4.3379,-4.3843,-4.437,-4.4911,-4.5669,-4.6576,-4.713,-4.7309,-4.7309,-4.7309,-4.7309,-4.7309,-4.7309,-4.7309,-4.7309,-4.7309,-4.7309,-4.7309,-4.7309,-4.7309,-4.7309,-4.7309,-4.7309,-4.7309,-4.7309,-4.7309,-4.7309,-4.7309,-4.7309,-4.7309,-4.7309,-4.7309,-4.7309,-4.7309,-4.7309,-4.7309,-4.7309,-4.7309,-4.7309,-4.7309,-4.7309,-4.7309,-4.7309,-4.7309,-4.7309,-4.7309,-4.7324,-4.7339,-4.7489,-4.7667,-4.7534,-4.7699,-4.7699,-4.7699,-4.7421,-4.702,-4.6998,-4.6702,-4.6239,-4.6214,-4.6214,-4.6214,-4.6214,-4.6214,-4.6214,-4.6214,-4.6214,-4.6214,-4.6214,-4.6214,-4.6214,-4.6214,-4.6214,-4.603,-4.5328,-4.458,-4.4047,-4.3759,-4.3615,-4.3615,-4.3615,-4.3539,-4.3492,-4.3522,-4.3492,-4.3235,-4.2851,-4.2539,-4.2413,-4.1883,-4.1588,-4.1588,-4.1588,-4.1588,-4.1588,-4.1588,-4.181,-4.2315,-4.2568,-4.3011,-4.3674,-4.4354,-4.5371,-4.6576,-4.6911,-4.6601,-4.6108,-4.5841,-4.5058,-4.3849,-4.3488,-4.3305,-4.3305,-4.3305,-4.3305,-4.3364,-4.3958,-4.4702,-4.5447,-4.605,-4.6606,-4.7145,-4.7309,-4.7309,-4.7309,-4.7309,-4.7309,-4.7309,-4.7309,-4.7309,-4.7309,-4.7309,-4.7309,-4.7309,-4.7309,-4.7309,-4.7309,-4.7309,-4.7309,-4.7309,-4.7309,-4.7309,-4.7309,-4.7309,-4.7309,-4.7309,-4.7309,-4.7309,-4.7309,-4.7309,-4.7309,-4.7309,-4.7309,-4.7309,-4.7309,-4.7309,-4.7309,-4.7309,-4.7309,-4.7309,-4.7309,-4.7324,-4.7324,-4.7309,-4.7309,-4.7309,-4.7699,-4.7696,-4.7593,-4.7338,-4.6998,-4.6888,-4.6607,-4.6239,-4.6214,-4.6214,-4.6214,-4.6214,-4.6214,-4.6214,-4.6214,-4.6214,-4.6214,-4.6214,-4.6214,-4.6214,-4.6214,-4.6214,-4.608,-4.5328,-4.444,-4.373,-4.3615,-4.3615,-4.3598,-4.3492,-4.3386,-4.3402,-4.3312,-4.3295,-4.3342,-4.2758,-4.2476,-4.2476,-4.1932,-4.1588,-4.1588,-4.1588,-4.1588,-4.1636,-4.1857,-4.222,-4.2695,-4.3137,-4.3627,-4.4101,-4.4733,-4.5709,-4.6775,-4.6876,-4.6547,-4.5877,-4.5588,-4.4983,-4.3551,-4.3344,-4.3305,-4.3305,-4.3305,-4.3509,-4.3793,-4.4387,-4.5177,-4.6259,-4.6629,-4.686,-4.7219,-4.7309,-4.7309,-4.7309,-4.7309,-4.7309,-4.7309,-4.7309,-4.7309,-4.7309,-4.7309,-4.7309,-4.7309,-4.7309,-4.7309,-4.7309,-4.7309,-4.7309,-4.7309,-4.7309,-4.7309,-4.7309,-4.7309,-4.7309,-4.7309,-4.7309,-4.7309,-4.7309,-4.7309,-4.7309,-4.7309,-4.7309,-4.7309,-4.7309,-4.7309,-4.7309,-4.7309,-4.7309,-4.7309,-4.7309,-4.7309,-4.7309,-4.7309,-4.7309,-4.7309,-4.7699,-4.7657,-4.7428,-4.7209,-4.6998,-4.6754,-4.6495,-4.6221,-4.6214,-4.6214,-4.6214,-4.6214,-4.6214,-4.6214,-4.6214,-4.6214,-4.6214,-4.6214,-4.6214,-4.6214,-4.6214,-4.6172,-4.598,-4.5275,-4.4468,-4.3818,-4.3628,-4.3615,-4.3582,-4.3295,-4.3096,-4.3096,-4.2881,-4.2772,-4.2912,-4.2412,-4.2285,-4.2412,-4.19,-4.1588,-4.1588,-4.1588,-4.1588,-4.162,-4.227,-4.2679,-4.2979,-4.4006,-4.4717,-4.4859,-4.5309,-4.5897,-4.6633,-4.6807,-4.6285,-4.5572,-4.5588,-4.4774,-4.3669,-4.3305,-4.3305,-4.3305,-4.3334,-4.3673,-4.4398,-4.4896,-4.5657,-4.6801,-4.7139,-4.7249,-4.7294,-4.7309,-4.7309,-4.7309,-4.7309,-4.7309,-4.7309,-4.7309,-4.7309,-4.7309,-4.7309,-4.7309,-4.7309,-4.7309,-4.7309,-4.7309,-4.7309,-4.7309,-4.7309,-4.7309,-4.7309,-4.7309,-4.7309,-4.7309,-4.7309,-4.7309,-4.7309,-4.7309,-4.7309,-4.7309,-4.7309,-4.7309,-4.7309,-4.7309,-4.7309,-4.7309,-4.7309,-4.7309,-4.7309,-4.7309,-4.7309,-4.7309,-4.7309,-4.7309,-4.7309,-4.7699,-4.7678,-4.7615,-4.7359,-4.702,-4.6911,-4.6631,-4.6239,-4.6214,-4.6214,-4.6214,-4.6214,-4.6214,-4.6214,-4.6214,-4.6214,-4.6214,-4.6214,-4.6214,-4.6214,-4.6214,-4.6023,-4.5709,-4.5196,-4.4625,-4.4109,-4.373,-4.3615,-4.3568,-4.3235,-4.3066,-4.3096,-4.2726,-4.2617,-4.2648,-4.2285,-4.2142,-4.2174,-4.1835,-4.1588,-4.1588,-4.1588,-4.1588,-4.1652,-4.2315,-4.2963,-4.35,-4.478,-4.5523,-4.5487,-4.518,-4.5348,-4.5913,-4.5645,-4.5279,-4.4983,-4.4796,-4.4396,-4.3551,-4.3305,-4.3305,-4.3305,-4.3349,-4.3658,-4.4372,-4.4945,-4.5675,-4.6481,-4.695,-4.7309,-4.7309,-4.7309,-4.7309,-4.7309,-4.7309,-4.7309,-4.7309,-4.7309,-4.7309,-4.7309,-4.7309,-4.7309,-4.7309,-4.7309,-4.7309,-4.7309,-4.7309,-4.7309,-4.7309,-4.7309,-4.7309,-4.7309,-4.7309,-4.7309,-4.7309,-4.7309,-4.7309,-4.7309,-4.7309,-4.7309,-4.7309,-4.7309,-4.7309,-4.7309,-4.7309,-4.7309,-4.7309,-4.7309,-4.7309,-4.7309,-4.7309,-4.7309,-4.7309,-4.7309,-4.7309,-4.7699,-4.7696,-4.7575,-4.7316,-4.702,-4.687,-4.6607,-4.6263,-4.6214,-4.6214,-4.6214,-4.6214,-4.6214,-4.6214,-4.6214,-4.6214,-4.6214,-4.6214,-4.6214,-4.6214,-4.6214,-4.5879,-4.5363,-4.4991,-4.4597,-4.4023,-4.373,-4.3522,-4.3342,-4.3052,-4.2851,-4.2601,-4.2349,-4.2254,-4.2365,-4.2061,-4.198,-4.2013,-4.1785,-4.1588,-4.1588,-4.1588,-4.1825,-4.2094,-4.2758,-4.3532,-4.4543,-4.5396,-4.5698,-4.5395,-4.5014,-4.4946,-4.5258,-4.4983,-4.4699,-4.451,-4.451,-4.4143,-4.3472,-4.3305,-4.3305,-4.3364,-4.3499,-4.4062,-4.4691,-4.5334,-4.6007,-4.6711,-4.7115,-4.7264,-4.7309,-4.7309,-4.7309,-4.7309,-4.7309,-4.7309,-4.7309,-4.7309,-4.7309,-4.7309,-4.7309,-4.7309,-4.7309,-4.7309,-4.7309,-4.7309,-4.7309,-4.7309,-4.7309,-4.7309,-4.7309,-4.7309,-4.7309,-4.7309,-4.7309,-4.7309,-4.7309,-4.7309,-4.7309,-4.7309,-4.7309,-4.7309,-4.7309,-4.7309,-4.7309,-4.7309,-4.7309,-4.7309,-4.7309,-4.7309,-4.7309,-4.7309,-4.7309,-4.7309,-4.7309,-4.7699,-4.7657,-4.7446,-4.7209,-4.698,-4.6749,-4.6512,-4.6221,-4.6214,-4.6214,-4.6214,-4.6214,-4.6214,-4.6214,-4.6214,-4.6214,-4.6214,-4.6214,-4.6214,-4.6214,-4.6122,-4.5786,-4.5045,-4.4937,-4.444,-4.3802,-4.3628,-4.3355,-4.3066,-4.2741,-4.2444,-4.2206,-4.1851,-4.1785,-4.1948,-4.1785,-4.1785,-4.1916,-4.1753,-4.1588,-4.1588,-4.162,-4.1904,-4.2584,-4.3421,-4.4385,-4.5302,-4.5771,-4.5484,-4.4752,-4.4699,-4.4662,-4.4677,-4.4624,-4.4472,-4.4297,-4.4182,-4.3912,-4.3448,-4.3305,-4.3305,-4.3379,-4.3873,-4.4586,-4.517,-4.5813,-4.6486,-4.713,-4.7294,-4.7309,-4.7309,-4.7309,-4.7309,-4.7309,-4.7309,-4.7309,-4.7309,-4.7309,-4.7309,-4.7309,-4.7309,-4.7309,-4.7309,-4.7309,-4.7309,-4.7309,-4.7309,-4.7309,-4.7309,-4.7309,-4.7309,-4.7309,-4.7309,-4.7309,-4.7309,-4.7309,-4.7309,-4.7309,-4.7309,-4.7309,-4.7309,-4.7309,-4.7309,-4.7309,-4.7309,-4.7309,-4.7309,-4.7309,-4.7309,-4.7309,-4.7309,-4.7309,-4.7309,-4.7309,-4.7309,-4.7699,-4.7717,-4.7636,-4.7359,-4.7025,-4.6934,-4.6631,-4.6214,-4.6214,-4.6214,-4.6214,-4.6214,-4.6214,-4.6214,-4.6214,-4.6214,-4.6214,-4.6214,-4.6214,-4.6214,-4.6214,-4.5709,-4.5028,-4.4892,-4.4468,-4.3873,-4.3641,-4.3265,-4.2803,-4.2585,-4.2412,-4.2077,-4.1785,-4.1621,-4.1687,-4.1654,-4.1606,-4.1687,-4.1621,-4.1588,-4.1604,-4.1667,-4.2031,-4.2805,-4.3911,-4.4891,-4.5602,-4.5807,-4.5262,-4.4389,-4.412,-4.412,-4.381,-4.3354,-4.3275,-4.3551,-4.3457,-4.3339,-4.329,-4.3305,-4.3319,-4.3424,-4.3977,-4.4601,-4.5244,-4.5935,-4.6621,-4.7145,-4.7309,-4.7309,-4.7309,-4.7309,-4.7309,-4.7309,-4.7309,-4.7309,-4.7309,-4.7309,-4.7309,-4.7309,-4.7309,-4.7309,-4.7309,-4.7309,-4.7309,-4.7309,-4.7309,-4.7309,-4.7309,-4.7309,-4.7309,-4.7309,-4.7309,-4.7309,-4.7309,-4.7309,-4.7309,-4.7309,-4.7309,-4.7309,-4.7309,-4.7309,-4.7309,-4.7309,-4.7309,-4.7309,-4.7309,-4.7309,-4.7309,-4.7309,-4.7309,-4.7309,-4.7309,-4.7309,-4.7309,-4.7699,-4.7699,-4.7699,-4.7421,-4.7025,-4.6998,-4.672,-4.6288,-4.6214,-4.6214,-4.6214,-4.6214,-4.6214,-4.6214,-4.6214,-4.6214,-4.6214,-4.6214,-4.6214,-4.6214,-4.6189,-4.5709,-4.5028,-4.4783,-4.4468,-4.3621,-4.3386,-4.2974,-4.2539,-4.2349,-4.2158,-4.1883,-4.1687,-4.1621,-4.1588,-4.1588,-4.1588,-4.1588,-4.1588,-4.1588,-4.1604,-4.1952,-4.2663,-4.3579,-4.4654,-4.546,-4.5776,-4.5807,-4.53,-4.4541,-4.4043,-4.363,-4.313,-4.2662,-4.2718,-4.301,-4.3076,-4.3101,-4.325,-4.3319,-4.3439,-4.3738,-4.4392,-4.5065,-4.5723,-4.6396,-4.6875,-4.7204,-4.7309,-4.7309,-4.7309,-4.7309,-4.7309,-4.7309,-4.7309,-4.7309,-4.7309,-4.7309,-4.7309,-4.7309,-4.7309,-4.7309,-4.7309,-4.7309,-4.7309,-4.7309,-4.7309,-4.7309,-4.7309,-4.7309,-4.7309,-4.7309,-4.7309,-4.7309,-4.7309,-4.7309,-4.7309,-4.7309,-4.7309,-4.7309,-4.7309,-4.7309,-4.7309,-4.7309,-4.7309,-4.7309,-4.7309,-4.7309,-4.7309,-4.7309,-4.7309,-4.7309,-4.7309,-4.7309,-4.7309,-4.7699,-4.7699,-4.7699,-4.7443,-4.7025,-4.6998,-4.6702,-4.6263,-4.6214,-4.6214,-4.6214,-4.6214,-4.6214,-4.6214,-4.6214,-4.6214,-4.6214,-4.6214,-4.6214,-4.6214,-4.6214,-4.5684,-4.5072,-4.4729,-4.4197,-4.3157,-4.3113,-4.2726,-4.2238,-4.2045,-4.1964,-4.1687,-4.1621,-4.1588,-4.1588,-4.1588,-4.1588,-4.1588,-4.1588,-4.1588,-4.1715,-4.2268,-4.3248,-4.4417,-4.5254,-4.5697,-4.5807,-4.5771,-4.5468,-4.4827,-4.4236,-4.3418,-4.2729,-4.2392,-4.2581,-4.2941,-4.2941,-4.3036,-4.325,-4.3334,-4.3559,-4.4272,-4.49,-4.5574,-4.6217,-4.6785,-4.716,-4.7264,-4.7309,-4.7309,-4.7309,-4.7309,-4.7309,-4.7309,-4.7309,-4.7309,-4.7309,-4.7309,-4.7309,-4.7309,-4.7309,-4.7309,-4.7309,-4.7309,-4.7309,-4.7309,-4.7309,-4.7309,-4.7309,-4.7309,-4.7309,-4.7309,-4.7309,-4.7309,-4.7309,-4.7309,-4.7309,-4.7309,-4.7309,-4.7309,-4.7309,-4.7309,-4.7309,-4.7309,-4.7309,-4.7309,-4.7309,-4.7309,-4.7309,-4.7309,-4.7309,-4.7309,-4.7309,-4.7309,-4.7309,-4.7699,-4.7699,-4.7699,-4.7421,-4.7043,-4.6998,-4.6678,-4.6263,-4.6214,-4.6214,-4.6214,-4.6214,-4.6214,-4.6214,-4.6214,-4.6214,-4.6214,-4.6214,-4.6214,-4.6214,-4.6172,-4.5735,-4.5018,-4.4618,-4.3848,-4.3064,-4.2851,-4.2539,-4.198,-4.19,-4.1883,-4.1654,-4.1588,-4.1588,-4.1588,-4.1588,-4.1588,-4.1588,-4.1588,-4.1604,-4.1857,-4.2537,-4.3485,-4.4717,-4.5491,-4.576,-4.5807,-4.5771,-4.5468,-4.4812,-4.422,-4.3576,-4.2955,-4.2459,-4.2459,-4.2809,-4.285,-4.293,-4.321,-4.3349,-4.3648,-4.4272,-4.499,-4.5633,-4.6307,-4.6905,-4.7249,-4.7309,-4.7309,-4.7309,-4.7309,-4.7309,-4.7309,-4.7309,-4.7309,-4.7309,-4.7309,-4.7309,-4.7309,-4.7309,-4.7309,-4.7309,-4.7309,-4.7309,-4.7309,-4.7309,-4.7309,-4.7309,-4.7309,-4.7309,-4.7309,-4.7309,-4.7309,-4.7309,-4.7309,-4.7309,-4.7309,-4.7309,-4.7309,-4.7309,-4.7309,-4.7309,-4.7309,-4.7309,-4.7309,-4.7309,-4.7309,-4.7309,-4.7309,-4.7309,-4.7309,-4.7309,-4.7309,-4.7309,-4.7309,-4.7699,-4.7678,-4.7554,-4.7316,-4.7002,-4.6824,-4.6566,-4.6239,-4.6214,-4.6214,-4.6214,-4.6214,-4.6214,-4.6214,-4.6214,-4.6214,-4.6214,-4.6214,-4.6214,-4.6214,-4.6147,-4.5735,-4.492,-4.4563,-4.3689,-4.288,-4.257,-4.2285,-4.1671,-4.1753,-4.1753,-4.1654,-4.1588,-4.1588,-4.1588,-4.1588,-4.1588,-4.1588,-4.1604,-4.1794,-4.2236,-4.3121,-4.4259,-4.508,-4.5555,-4.5792,-4.5807,-4.5807,-4.5682,-4.5247,-4.4427,-4.3849,-4.3314,-4.2743,-4.2366,-4.2729,-4.2769,-4.289,-4.3315,-4.3574,-4.4167,-4.4796,-4.5424,-4.6112,-4.6666,-4.713,-4.7294,-4.7309,-4.7309,-4.7309,-4.7309,-4.7309,-4.7309,-4.7309,-4.7309,-4.7309,-4.7309,-4.7309,-4.7309,-4.7309,-4.7309,-4.7309,-4.7309,-4.7309,-4.7309,-4.7309,-4.7309,-4.7309,-4.7309,-4.7309,-4.7309,-4.7309,-4.7309,-4.7309,-4.7309,-4.7309,-4.7309,-4.7309,-4.7309,-4.7309,-4.7309,-4.7309,-4.7309,-4.7309,-4.7309,-4.7309,-4.7309,-4.7309,-4.7309,-4.7309,-4.7309,-4.7309,-4.7309,-4.7309,-4.7309,-4.7699,-4.7696,-4.7425,-4.7187,-4.698,-4.6725,-4.6447,-4.6239,-4.6214,-4.6214,-4.6214,-4.6214,-4.6214,-4.6214,-4.6214,-4.6214,-4.6214,-4.6214,-4.6214,-4.6172,-4.6073,-4.5615,-4.5001,-4.4378,-4.366,-4.2694,-4.2317,-4.1916,-4.1654,-4.1621,-4.1588,-4.1588,-4.1588,-4.1588,-4.1588,-4.1588,-4.1588,-4.1588,-4.162,-4.1999,-4.2979,-4.4053,-4.5065,-4.5728,-4.5807,-4.5807,-4.5807,-4.5609,-4.552,-4.5173,-4.4556,-4.3795,-4.3576,-4.2809,-4.2433,-4.2662,-4.2688,-4.289,-4.3279,-4.3888,-4.4496,-4.514,-4.5888,-4.6576,-4.7085,-4.7249,-4.7309,-4.7309,-4.7309,-4.7309,-4.7309,-4.7309,-4.7309,-4.7309,-4.7309,-4.7309,-4.7309,-4.7309,-4.7309,-4.7309,-4.7309,-4.7309,-4.7309,-4.7309,-4.7309,-4.7309,-4.7309,-4.7309,-4.7309,-4.7309,-4.7309,-4.7309,-4.7309,-4.7309,-4.7309,-4.7309,-4.7309,-4.7309,-4.7309,-4.7309,-4.7309,-4.7309,-4.7309,-4.7309,-4.7309,-4.7309,-4.7309,-4.7309,-4.7309,-4.7309,-4.7309,-4.7309,-4.7309,-4.7309,-4.7309,-4.7699,-4.7678,-4.7425,-4.7187,-4.6975,-4.6684,-4.6464,-4.6214,-4.6214,-4.6214,-4.6214,-4.6214,-4.6214,-4.6214,-4.6214,-4.6214,-4.6214,-4.6214,-4.6214,-4.6172,-4.5879,-4.5459,-4.4838,-4.4169,-4.3469,-4.2648,-4.2222,-4.1916,-4.1687,-4.1588,-4.1588,-4.1588,-4.1588,-4.1588,-4.1588,-4.1588,-4.1588,-4.1588,-4.1636,-4.2268,-4.3456,-4.4338,-4.5128,-4.5618,-4.5807,-4.5735,-4.5646,-4.5268,-4.503,-4.4827,-4.4259,-4.3639,-4.322,-4.3036,-4.2795,-4.2729,-4.2729,-4.2809,-4.3199,-4.3967,-4.4721,-4.5394,-4.6022,-4.6621,-4.71,-4.7309,-4.7309,-4.7309,-4.7309,-4.7309,-4.7309,-4.7309,-4.7309,-4.7309,-4.7309,-4.7309,-4.7309,-4.7309,-4.7309,-4.7309,-4.7309,-4.7309,-4.7309,-4.7309,-4.7309,-4.7309,-4.7309,-4.7309,-4.7309,-4.7309,-4.7309,-4.7309,-4.7309,-4.7309,-4.7309,-4.7309,-4.7309,-4.7309,-4.7309,-4.7309,-4.7309,-4.7309,-4.7309,-4.7309,-4.7309,-4.7309,-4.7309,-4.7309,-4.7309,-4.7309,-4.7309,-4.7309,-4.7309,-4.7309,-4.7309,-4.7699,-4.7675,-4.7312,-4.7093,-4.6934,-4.6542,-4.6319,-4.6239,-4.6214,-4.6214,-4.6214,-4.6214,-4.6214,-4.6214,-4.6214,-4.6214,-4.6214,-4.6214,-4.6214,-4.6097,-4.5778,-4.5328,-4.4773,-4.3968,-4.3155,-4.26,-4.211,-4.1785,-4.1621,-4.1588,-4.1588,-4.1588,-4.1588,-4.1588,-4.1588,-4.1588,-4.1588,-4.181,-4.2347,-4.3074,-4.3832,-4.4717,-4.5476,-4.5792,-4.5807,-4.5594,-4.5216,-4.5014,-4.4586,-4.4282,-4.3717,-4.3299,-4.2955,-4.2688,-4.2433,-4.2392,-4.2474,-4.292,-4.3696,-4.4415,-4.5125,-4.5813,-4.6456,-4.701,-4.7264,-4.7309,-4.7309,-4.7309,-4.7309,-4.7309,-4.7309,-4.7309,-4.7309,-4.7309,-4.7309,-4.7309,-4.7309,-4.7309,-4.7309,-4.7309,-4.7309,-4.7309,-4.7309,-4.7309,-4.7309,-4.7309,-4.7309,-4.7309,-4.7309,-4.7309,-4.7309,-4.7309,-4.7309,-4.7309,-4.7309,-4.7309,-4.7309,-4.7309,-4.7309,-4.7309,-4.7309,-4.7309,-4.7309,-4.7309,-4.7309,-4.7309,-4.7309,-4.7309,-4.7309,-4.7309,-4.7309,-4.7309,-4.7309,-4.7309,-4.7309,-4.7699,-4.7675,-4.7201,-4.6998,-4.6934,-4.6416,-4.6214,-4.6214,-4.6214,-4.6214,-4.6214,-4.6214,-4.6214,-4.6214,-4.6214,-4.6214,-4.6214,-4.6214,-4.6214,-4.6048,-4.5641,-4.5178,-4.4563,-4.3764,-4.2988,-4.2459,-4.2061,-4.1753,-4.1621,-4.1588,-4.1588,-4.1588,-4.1588,-4.1588,-4.1588,-4.162,-4.1667,-4.2062,-4.3026,-4.364,-4.4145,-4.5159,-4.5634,-4.5807,-4.5735,-4.5468,-4.4887,-4.4586,-4.4259,-4.3678,-4.3339,-4.2996,-4.2688,-4.2581,-4.2392,-4.2424,-4.2553,-4.3199,-4.4042,-4.484,-4.555,-4.6234,-4.6875,-4.7234,-4.7279,-4.7309,-4.7309,-4.7309,-4.7309,-4.7309,-4.7309,-4.7309,-4.7309,-4.7309,-4.7309,-4.7309,-4.7309,-4.7309,-4.7309,-4.7309,-4.7309,-4.7309,-4.7309,-4.7309,-4.7309,-4.7309,-4.7309,-4.7309,-4.7309,-4.7309,-4.7309,-4.7309,-4.7309,-4.7309,-4.7309,-4.7309,-4.7309,-4.7309,-4.7309,-4.7309,-4.7309,-4.7309,-4.7309,-4.7309,-4.7309,-4.7309,-4.7309,-4.7309,-4.7309,-4.7309,-4.7309,-4.7309,-4.7309,-4.7309,-4.7309,-4.7699,-4.7657,-4.7201,-4.6998,-4.6957,-4.644,-4.6214,-4.6214,-4.6214,-4.6214,-4.6214,-4.6214,-4.6214,-4.6214,-4.6214,-4.6214,-4.6214,-4.6214,-4.6214,-4.593,-4.5407,-4.4848,-4.4266,-4.3604,-4.2789,-4.2254,-4.1948,-4.1785,-4.1654,-4.1588,-4.1588,-4.1588,-4.1588,-4.1588,-4.1588,-4.1604,-4.1952,-4.2442,-4.3327,-4.4022,-4.4575,-4.5333,-4.5776,-4.5807,-4.5771,-4.5484,-4.4827,-4.4335,-4.3732,-4.3155,-4.2955,-4.2688,-4.2433,-4.2541,-4.2474,-4.2439,-4.2806,-4.3512,-4.4337,-4.4944,-4.5483,-4.6207,-4.6875,-4.7309,-4.7309,-4.7309,-4.7309,-4.7309,-4.7309,-4.7309,-4.7309,-4.7309,-4.7309,-4.7309,-4.7309,-4.7309,-4.7309,-4.7309,-4.7309,-4.7309,-4.7309,-4.7309,-4.7309,-4.7309,-4.7309,-4.7309,-4.7309,-4.7309,-4.7309,-4.7309,-4.7309,-4.7309,-4.7309,-4.7309,-4.7309,-4.7309,-4.7309,-4.7309,-4.7309,-4.7309,-4.7309,-4.7309,-4.7309,-4.7309,-4.7309,-4.7309,-4.7309,-4.7309,-4.7309,-4.7309,-4.7309,-4.7309,-4.7309,-4.7309,-4.7309,-4.7699,-4.7657,-4.7201,-4.6998,-4.6957,-4.6434,-4.6214,-4.6214,-4.6214,-4.6214,-4.6214,-4.6214,-4.6214,-4.6214,-4.6214,-4.6214,-4.6214,-4.6214,-4.6214,-4.5905,-4.5363,-4.4783,-4.4152,-4.3363,-4.2522,-4.2126,-4.1916,-4.1753,-4.1621,-4.1588,-4.1588,-4.1588,-4.1588,-4.1588,-4.1588,-4.1636,-4.2047,-4.2695,-4.339,-4.4003,-4.4717,-4.5396,-4.5807,-4.5807,-4.5807,-4.521,-4.4389,-4.4082,-4.3369,-4.2784,-4.2541,-4.2351,-4.216,-4.2392,-4.2392,-4.233,-4.2869,-4.358,-4.4449,-4.516,-4.5992,-4.667,-4.716,-4.7309,-4.7309,-4.7309,-4.7309,-4.7309,-4.7309,-4.7309,-4.7309,-4.7309,-4.7309,-4.7309,-4.7309,-4.7309,-4.7309,-4.7309,-4.7309,-4.7309,-4.7309,-4.7309,-4.7309,-4.7309,-4.7309,-4.7309,-4.7309,-4.7309,-4.7309,-4.7309,-4.7309,-4.7309,-4.7309,-4.7309,-4.7309,-4.7309,-4.7309,-4.7309,-4.7309,-4.7309,-4.7309,-4.7309,-4.7309,-4.7309,-4.7309,-4.7309,-4.7309,-4.7309,-4.7309,-4.7309,-4.7309,-4.7309,-4.7309,-4.7309,-4.7309,-4.7636,-4.7533,-4.7209,-4.7048,-4.6934,-4.6416,-4.6214,-4.6214,-4.6214,-4.6214,-4.6214,-4.6214,-4.6214,-4.6214,-4.6214,-4.6214,-4.6214,-4.6214,-4.6214,-4.5879,-4.5337,-4.4712,-4.3992,-4.3213,-4.2381,-4.2013,-4.1753,-4.1588,-4.1588,-4.1588,-4.1588,-4.1588,-4.1588,-4.1588,-4.1588,-4.1636,-4.2031,-4.29,-4.3437,-4.4208,-4.4986,-4.5507,-4.5807,-4.5807,-4.5807,-4.5336,-4.4579,-4.422,-4.3615,-4.289,-4.2474,-4.231,-4.216,-4.2092,-4.2092,-4.2339,-4.2832,-4.3571,-4.4324,-4.5517,-4.6528,-4.7116,-4.7249,-4.7309,-4.7309,-4.7309,-4.7309,-4.7309,-4.7309,-4.7309,-4.7309,-4.7309,-4.7309,-4.7309,-4.7309,-4.7309,-4.7309,-4.7309,-4.7309,-4.7309,-4.7309,-4.7309,-4.7309,-4.7309,-4.7309,-4.7309,-4.7309,-4.7309,-4.7309,-4.7309,-4.7309,-4.7309,-4.7309,-4.7309,-4.7309,-4.7309,-4.7309,-4.7309,-4.7309,-4.7309,-4.7309,-4.7309,-4.7309,-4.7309,-4.7309,-4.7309,-4.7309,-4.7309,-4.7309,-4.7309,-4.7309,-4.7309,-4.7309,-4.7309,-4.7309,-4.7572,-4.732,-4.7298,-4.7183,-4.6911,-4.644,-4.6196,-4.6214,-4.6214,-4.6214,-4.6214,-4.6214,-4.6214,-4.6214,-4.6214,-4.6214,-4.6214,-4.6214,-4.6189,-4.5905,-4.5284,-4.4584,-4.3818,-4.3017,-4.2302,-4.1753,-4.1588,-4.1588,-4.1588,-4.1588,-4.1588,-4.1588,-4.1588,-4.1588,-4.1588,-4.1604,-4.2349,-4.3487,-4.3674,-4.4524,-4.5396,-4.5744,-4.5792,-4.5807,-4.5807,-4.5373,-4.479,-4.4586,-4.4028,-4.322,-4.2996,-4.2769,-4.231,-4.2242,-4.2201,-4.2165,-4.3268,-4.3935,-4.4225,-4.5902,-4.6811,-4.7236,-4.7309,-4.7309,-4.7309,-4.7309,-4.7309,-4.7309,-4.7309,-4.7309,-4.7309,-4.7309,-4.7309,-4.7309,-4.7309,-4.7309,-4.7309,-4.7309,-4.7309,-4.7309,-4.7309,-4.7309,-4.7309,-4.7309,-4.7309,-4.7309,-4.7309,-4.7309,-4.7309,-4.7309,-4.7309,-4.7309,-4.7309,-4.7309,-4.7309,-4.7309,-4.7309,-4.7309,-4.7309,-4.7309,-4.7309,-4.7309,-4.7309,-4.7309,-4.7309,-4.7309,-4.7309,-4.7309,-4.7309,-4.7309,-4.7309,-4.7309,-4.7309,-4.7309,-4.7309,-4.7533,-4.728,-4.7143,-4.698,-4.6708,-4.6542,-4.6368,-4.6239,-4.6214,-4.6214,-4.6214,-4.6214,-4.6214,-4.6214,-4.6214,-4.6214,-4.6214,-4.6172,-4.6147,-4.5735,-4.5125,-4.435,-4.3571,-4.288,-4.2238,-4.1753,-4.1588,-4.1588,-4.1588,-4.1588,-4.1588,-4.1588,-4.1588,-4.1588,-4.1746,-4.2031,-4.2853,-4.3643,-4.418,-4.4859,-4.5697,-4.5807,-4.5807,-4.5807,-4.5807,-4.5484,-4.494,-4.4902,-4.4434,-4.3717,-4.36,-4.3299,-4.2809,-4.2688,-4.2474,-4.2505,-4.3339,-4.4588,-4.5347,-4.6535,-4.6858,-4.7121,-4.7309,-4.7309,-4.7309,-4.7309,-4.7309,-4.7309,-4.7309,-4.7309,-4.7309,-4.7309,-4.7309,-4.7309,-4.7309,-4.7309,-4.7309,-4.7309,-4.7309,-4.7309,-4.7309,-4.7309,-4.7309,-4.7309,-4.7309,-4.7309,-4.7309,-4.7309,-4.7309,-4.7309,-4.7309,-4.7309,-4.7309,-4.7309,-4.7309,-4.7309,-4.7309,-4.7309,-4.7309,-4.7309,-4.7309,-4.7309,-4.7309,-4.7309,-4.7309,-4.7309,-4.7309,-4.7309,-4.7309,-4.7309,-4.7309,-4.7309,-4.7309,-4.7309,-4.7309,-4.678,-4.6757,-4.6637,-4.6547,-4.6477,-4.6447,-4.6368,-4.6214,-4.6214,-4.6214,-4.6214,-4.6214,-4.6214,-4.6214,-4.6214,-4.6214,-4.6189,-4.6023,-4.593,-4.5503,-4.4801,-4.4083,-4.3366,-4.2679,-4.2126,-4.172,-4.1588,-4.1588,-4.1588,-4.1588,-4.1588,-4.1588,-4.1588,-4.1588,-4.1794,-4.2284,-4.2995,-4.3706,-4.4322,-4.5017,-4.5586,-4.5807,-4.5807,-4.5807,-4.5771,-4.5594,-4.5268,-4.5067,-4.4865,-4.4412,-4.4143,-4.3927,-4.3497,-4.3076,-4.285,-4.2852,-4.341,-4.4835,-4.605,-4.6535,-4.6858,-4.7266,-4.7309,-4.7309,-4.7309,-4.7309,-4.7309,-4.7309,-4.7309,-4.7309,-4.7309,-4.7309,-4.7309,-4.7309,-4.7309,-4.7309,-4.7309,-4.7309,-4.7309,-4.7309,-4.7309,-4.7309,-4.7309,-4.7309,-4.7309,-4.7309,-4.7309,-4.7309,-4.7309,-4.7309,-4.7309,-4.7309,-4.7309,-4.7309,-4.7309,-4.7309,-4.7309,-4.7309,-4.7309,-4.7309,-4.7309,-4.7309,-4.7309,-4.7309,-4.7309,-4.7309,-4.7309,-4.7309,-4.7309,-4.7309,-4.7309,-4.7309,-4.7309,-4.7309,-4.7309,-4.5326,-4.5735,-4.5753,-4.5921,-4.6123,-4.6186,-4.6196,-4.6214,-4.6214,-4.6214,-4.6214,-4.6214,-4.6214,-4.6214,-4.6214,-4.6165,-4.6073,-4.5778,-4.5572,-4.5196,-4.4412,-4.3752,-4.3125,-4.2507,-4.2013,-4.172,-4.1588,-4.1588,-4.1588,-4.1588,-4.1588,-4.1588,-4.1588,-4.1683,-4.1968,-4.2521,-4.3169,-4.3769,-4.4575,-4.5207,-4.5713,-4.5807,-4.5807,-4.5807,-4.5771,-4.5771,-4.5646,-4.5609,-4.5321,-4.503,-4.4827,-4.4434,-4.3974,-4.3379,-4.3195,-4.3279,-4.3796,-4.5008,-4.6226,-4.658,-4.6858,-4.7207,-4.7309,-4.7309,-4.7309,-4.7309,-4.7309,-4.7309,-4.7309,-4.7309,-4.7309,-4.7309,-4.7309,-4.7309,-4.7309,-4.7309,-4.7309,-4.7309,-4.7309,-4.7309,-4.7309,-4.7309,-4.7309,-4.7309,-4.7309,-4.7309,-4.7309,-4.7309,-4.7309,-4.7309,-4.7309,-4.7309,-4.7309,-4.7309,-4.7309,-4.7309,-4.7309,-4.7309,-4.7309,-4.7309,-4.7309,-4.7309,-4.7309,-4.7309,-4.7309,-4.7309,-4.7309,-4.7309,-4.7309,-4.7309,-4.7309,-4.7309,-4.7309,-4.7309,-4.7309,-4.4964,-4.4942,-4.4787,-4.4998,-4.5473,-4.5986,-4.6214,-4.6214,-4.6214,-4.6214,-4.6214,-4.6214,-4.6214,-4.6214,-4.6214,-4.6023,-4.5829,-4.5598,-4.5159,-4.4625,-4.4013,-4.3396,-4.2834,-4.2285,-4.1916,-4.172,-4.1588,-4.1588,-4.1588,-4.1588,-4.1588,-4.1588,-4.1588,-4.1841,-4.2394,-4.3058,-4.3437,-4.399,-4.4859,-4.5428,-4.5728,-4.5807,-4.5807,-4.5807,-4.5807,-4.5807,-4.5807,-4.5807,-4.5594,-4.552,-4.5484,-4.521,-4.4586,-4.4366,-4.4303,-4.4329,-4.4659,-4.5207,-4.6285,-4.6594,-4.6771,-4.7164,-4.7294,-4.7309,-4.7309,-4.7309,-4.7309,-4.7309,-4.7309,-4.7309,-4.7309,-4.7309,-4.7309,-4.7309,-4.7309,-4.7309,-4.7309,-4.7309,-4.7309,-4.7309,-4.7309,-4.7309,-4.7309,-4.7309,-4.7309,-4.7309,-4.7309,-4.7309,-4.7309,-4.7309,-4.7309,-4.7309,-4.7309,-4.7309,-4.7309,-4.7309,-4.7309,-4.7309,-4.7309,-4.7309,-4.7309,-4.7309,-4.7309,-4.7309,-4.7309,-4.7309,-4.7309,-4.7309,-4.7309,-4.7309,-4.7309,-4.7309,-4.7309,-4.7309,-4.7309,-4.4148,-4.4228,-4.3943,-4.4311,-4.5157,-4.5898,-4.6214,-4.6214,-4.6214,-4.6214,-4.6214,-4.6214,-4.6214,-4.6147,-4.6023,-4.5829,-4.5606,-4.5133,-4.4697,-4.4186,-4.3604,-4.2988,-4.246,-4.2077,-4.1834,-4.1654,-4.1588,-4.1588,-4.1588,-4.1588,-4.1588,-4.1588,-4.1588,-4.2047,-4.2647,-4.3279,-4.3816,-4.4417,-4.508,-4.5649,-4.5807,-4.5807,-4.5807,-4.5807,-4.5807,-4.5807,-4.5807,-4.5807,-4.5807,-4.5807,-4.5807,-4.5646,-4.5104,-4.4986,-4.5064,-4.506,-4.4953,-4.5639,-4.6561,-4.6668,-4.6858,-4.7033,-4.7207,-4.7309,-4.7309,-4.7309,-4.7309,-4.7309,-4.7309,-4.7309,-4.7309,-4.7309,-4.7309,-4.7309,-4.7309,-4.7309,-4.7309,-4.7309,-4.7309,-4.7309,-4.7309,-4.7309,-4.7309,-4.7309,-4.7309,-4.7309,-4.7309,-4.7309,-4.7309,-4.7309,-4.7309,-4.7309,-4.7309,-4.7309,-4.7309,-4.7309,-4.7309,-4.7309,-4.7309,-4.7309,-4.7309,-4.7309,-4.7309,-4.7309,-4.7309,-4.7309,-4.7309,-4.7309,-4.7309,-4.7309,-4.7309,-4.7309,-4.7309,-4.7309,-4.7309,-4.3059,-4.3663,-4.328,-4.3852,-4.5016,-4.574,-4.6126,-4.6214,-4.6214,-4.6214,-4.6214,-4.6214,-4.6214,-4.6122,-4.5879,-4.5624,-4.5266,-4.4807,-4.4276,-4.3722,-4.3125,-4.257,-4.2206,-4.1785,-4.1687,-4.1621,-4.1588,-4.1588,-4.1588,-4.1588,-4.1588,-4.1604,-4.1746,-4.2205,-4.2947,-4.3627,-4.4243,-4.4907,-4.5365,-4.5807,-4.5807,-4.5807,-4.5807,-4.5807,-4.5807,-4.5807,-4.5807,-4.5807,-4.5807,-4.5807,-4.5807,-4.5771,-4.5557,-4.5315,-4.5442,-4.5654,-4.5514,-4.6007,-4.6687,-4.6901,-4.68,-4.6975,-4.7121,-4.7222,-4.7222,-4.7309,-4.7309,-4.7309,-4.7309,-4.7309,-4.7309,-4.7309,-4.7309,-4.7309,-4.7309,-4.7309,-4.7309,-4.7309,-4.7309,-4.7309,-4.7309,-4.7309,-4.7309,-4.7309,-4.7309,-4.7309,-4.7309,-4.7309,-4.7309,-4.7309,-4.7309,-4.7309,-4.7309,-4.7309,-4.7309,-4.7309,-4.7309,-4.7309,-4.7309,-4.7309,-4.7309,-4.7309,-4.7309,-4.7309,-4.7309,-4.7309,-4.7309,-4.7309,-4.7309,-4.7309,-4.7309,-4.7309,-4.7309,-4.7309,-4.7309,-4.2717,-4.2911,-4.3067,-4.3553,-4.4261,-4.5045,-4.5705,-4.6196,-4.6214,-4.6214,-4.6214,-4.6214,-4.6214,-4.6122,-4.5709,-4.5424,-4.5008,-4.4502,-4.3919,-4.3383,-4.2772,-4.2381,-4.2077,-4.1753,-4.1621,-4.1588,-4.1588,-4.1588,-4.1588,-4.1588,-4.162,-4.1667,-4.1999,-4.2663,-4.3358,-4.4038,-4.4701,-4.5365,-4.5602,-4.5807,-4.5807,-4.5807,-4.5807,-4.5807,-4.5807,-4.5807,-4.5807,-4.5807,-4.5807,-4.5807,-4.5807,-4.5807,-4.5771,-4.5609,-4.5928,-4.6391,-4.6398,-4.6726,-4.7054,-4.7263,-4.7104,-4.6873,-4.6931,-4.7077,-4.7179,-4.7266,-4.7309,-4.7309,-4.7309,-4.7309,-4.7309,-4.7309,-4.7309,-4.7309,-4.7309,-4.7309,-4.7309,-4.7309,-4.7309,-4.7309,-4.7309,-4.7309,-4.7309,-4.7309,-4.7309,-4.7309,-4.7309,-4.7309,-4.7309,-4.7309,-4.7309,-4.7309,-4.7309,-4.7309,-4.7309,-4.7309,-4.7309,-4.7309,-4.7309,-4.7309,-4.7309,-4.7309,-4.7309,-4.7309,-4.7309,-4.7309,-4.7309,-4.7309,-4.7309,-4.7309,-4.7309,-4.7309,-4.7309,-4.7309,-4.7309,-4.2728,-4.276,-4.3087,-4.3478,-4.4003,-4.4764,-4.5495,-4.6126,-4.6214,-4.6214,-4.6214,-4.6214,-4.6214,-4.6073,-4.558,-4.5222,-4.4773,-4.4248,-4.3578,-4.299,-4.2664,-4.2285,-4.1964,-4.1687,-4.1621,-4.1588,-4.1588,-4.1588,-4.1588,-4.1588,-4.162,-4.178,-4.2347,-4.3058,-4.3722,-4.4385,-4.5096,-4.5744,-4.5807,-4.5807,-4.5807,-4.5807,-4.5807,-4.5807,-4.5807,-4.5807,-4.5807,-4.5807,-4.5807,-4.5807,-4.5807,-4.5807,-4.5807,-4.5771,-4.6349,-4.6917,-4.7247,-4.7415,-4.7762,-4.7773,-4.7505,-4.7306,-4.68,-4.6902,-4.7166,-4.7239,-4.7222,-4.7207,-4.7309,-4.7309,-4.7309,-4.7309,-4.7309,-4.7309,-4.7309,-4.7309,-4.7309,-4.7309,-4.7309,-4.7309,-4.7309,-4.7309,-4.7309,-4.7309,-4.7309,-4.7309,-4.7309,-4.7309,-4.7309,-4.7309,-4.7309,-4.7309,-4.7309,-4.7309,-4.7309,-4.7309,-4.7309,-4.7309,-4.7309,-4.7309,-4.7309,-4.7309,-4.7309,-4.7309,-4.7309,-4.7309,-4.7309,-4.7309,-4.7309,-4.7309,-4.7309,-4.7309,-4.7309,-4.7309,-4.7309,-4.2862,-4.2876,-4.3128,-4.3523,-4.3968,-4.4624,-4.5431,-4.6109,-4.6214,-4.6214,-4.6189,-4.6122,-4.6122,-4.5837,-4.5311,-4.5018,-4.458,-4.3902,-4.3204,-4.2774,-4.2539,-4.2158,-4.1835,-4.1588,-4.1588,-4.1588,-4.1588,-4.1588,-4.1588,-4.1604,-4.1683,-4.1874,-4.2442,-4.3169,-4.3816,-4.4496,-4.527,-4.5665,-4.5807,-4.5807,-4.5807,-4.5807,-4.5807,-4.5807,-4.5807,-4.5807,-4.5807,-4.5807,-4.5807,-4.5807,-4.5807,-4.5807,-4.588,-4.5911,-4.6729,-4.7322,-4.7662,-4.8192,-4.8687,-4.8403,-4.8153,-4.7804,-4.7076,-4.6873,-4.7123,-4.7166,-4.7135,-4.7164,-4.7222,-4.7309,-4.7309,-4.7309,-4.7309,-4.7309,-4.7309,-4.7309,-4.7309,-4.7309,-4.7309,-4.7309,-4.7309,-4.7309,-4.7309,-4.7309,-4.7309,-4.7309,-4.7309,-4.7309,-4.7309,-4.7309,-4.7309,-4.7309,-4.7309,-4.7309,-4.7309,-4.7309,-4.7309,-4.7309,-4.7309,-4.7309,-4.7309,-4.7309,-4.7309,-4.7309,-4.7309,-4.7309,-4.7309,-4.7309,-4.7309,-4.7309,-4.7309,-4.7309,-4.7309,-4.7309,-4.7309,-4.271,-4.2427,-4.2489,-4.3048,-4.3845,-4.4079,-4.4922,-4.6074,-4.6214,-4.6214,-4.6122,-4.5854,-4.5727,-4.5701,-4.5196,-4.4773,-4.439,-4.3638,-4.308,-4.2648,-4.2444,-4.2029,-4.1704,-4.1621,-4.1588,-4.1588,-4.1588,-4.1588,-4.1588,-4.162,-4.192,-4.2444,-4.3124,-4.3785,-4.448,-4.5096,-4.5586,-4.5807,-4.5807,-4.5807,-4.5807,-4.5807,-4.5807,-4.5807,-4.5807,-4.5807,-4.5807,-4.5807,-4.5807,-4.5807,-4.5807,-4.5807,-4.59,-4.6108,-4.6855,-4.7691,-4.8019,-4.8588,-4.8897,-4.882,-4.861,-4.8084,-4.745,-4.6974,-4.7062,-4.6961,-4.6975,-4.699,-4.7077,-4.7266,-4.7266,-4.7309,-4.7309,-4.7309,-4.7309,-4.7309,-4.7309,-4.7309,-4.7309,-4.7309,-4.7309,-4.7309,-4.7309,-4.7309,-4.7309,-4.7309,-4.7309,-4.7309,-4.7309,-4.7309,-4.7309,-4.7309,-4.7309,-4.7309,-4.7309,-4.7309,-4.7309,-4.7309,-4.7309,-4.7309,-4.7309,-4.7309,-4.7309,-4.7309,-4.7309,-4.7309,-4.7309,-4.7309,-4.7309,-4.7309,-4.7309,-4.7309,-4.7309,-4.7309,-4.7309]},{"header":{"parameterUnit":"m.s-1","parameterCategory":1,"la1":31.0,"la2":29.5877,"lo1":-88.7671,"lo2":-86.6584,"dy":0.0162,"dx":0.0185,"nx":115,"ny":88,"refTime":"2023-06-19T12:00:00:Z","depth":0,"parameterNumber":3,"parameterNumberName":"V-component_of_WINDS"},"data":[0.0,0.0,0.0,0.0,0.0,0.0,0.0,0.0,0.0,0.0,0.0,0.0,0.0,0.0,0.0,0.0,0.0,0.0,0.0,0.0,0.0,0.0,0.0,0.0,0.0,0.0,0.0,0.0,0.0,0.0,0.0,0.0,0.0,0.0,0.0,0.0,0.0,0.0,0.0,0.0,0.0,0.0,0.0,0.0,0.0,0.0,0.0,0.0,0.0,0.0,0.0,0.0,0.0,0.0,0.0,0.0,0.0,0.0,0.0,0.0,0.0,0.0,0.0,0.0,0.0,0.0,0.0,0.0,0.0,0.0,0.0,0.0,0.0,0.0,0.0,0.0,0.0,0.0,0.0,0.0,0.0,0.0,0.0,0.0,0.0,0.0,0.0,0.0,0.0,0.0,0.0,0.0,0.0,0.0,0.0,0.0,0.0,0.0,0.0,0.0,0.0,0.0,0.0,0.0,0.0,0.0,0.0,0.0,0.0,0.0,0.0,0.0,0.0,0.0,0.0,0.0,0.0,0.0,0.0,0.0,0.0,0.0,0.0,0.0,0.0,0.0,0.0,0.0,0.0,0.0,0.0,0.0,0.0,0.0,0.0,0.0,0.0,0.0,0.0,0.0,0.0,0.0,0.0,0.0,0.0,0.0,0.0,0.0,0.0,0.0,0.0,0.0,0.0,0.0,0.0,0.0,0.0,0.0,0.0,0.0,0.0,0.0,0.0,0.0,0.0,0.0,0.0,0.0,0.0,0.0,0.0,0.0,0.0,0.0,0.0,0.0,0.0,0.0,0.0,0.0,0.0,0.0,0.0,0.0,0.0,0.0,0.0,0.0,0.0,0.0,0.0,0.0,0.0,0.0,0.0,0.0,0.0,0.0,0.0,0.0,0.0,0.0,0.0,0.0,0.0,0.0,0.0,0.0,0.0,0.0,0.0,0.0,0.0,0.0,0.0,0.0,0.0,0.0,0.0,0.0,0.0,0.0,0.0,0.0,0.0,0.0,0.0,0.0,0.0,0.0,0.0,0.0,0.0,0.0,0.0,0.0,0.0,0.0,0.0,0.0,0.0,0.0,0.0,0.0,0.0,0.0,0.0,0.0,0.0,0.0,0.0,0.0,0.0,0.0,0.0,0.0,0.0,0.0,0.0,0.0,0.0,0.0,0.0,0.0,0.0,0.0,0.0,0.0,0.0,0.0,0.0,0.0,0.0,0.0,0.0,0.0,0.0,0.0,0.0,0.0,0.0,0.0,0.0,0.0,0.0,0.0,0.0,0.0,0.0,0.0,0.0,0.0,0.0,0.0,0.0,0.0,0.0,0.0,0.0,0.0,0.0,0.0,0.0,0.0,0.0,0.0,0.0,0.0,0.0,0.0,0.0,0.0,0.0,0.0,0.0,0.0,0.0,0.0,0.0,0.0,0.0,0.0,0.0,0.0,0.0,0.0,0.0,0.0,0.0,0.0,0.0,0.0,0.0,0.0,0.0,0.0,0.0,0.0,0.0,0.0,0.0,0.0,0.0,0.0,0.0,0.0,0.0,0.0,0.0,0.0,0.0,0.0,0.0,0.0,0.0,0.0,0.0,0.0,0.0,0.0,0.0,0.0,0.0,0.0,0.0,0.0,0.0,0.0,0.0,0.0,0.0,0.0,0.0,0.0,0.0,0.0,0.0,0.0,0.0,0.0,0.0,0.0,0.0,0.0,0.0,0.0,0.0,0.0,0.0,0.0,0.0,0.0,0.0,0.0,0.0,0.0,0.0,0.0,0.0,0.0,0.0,0.0,0.0,0.0,0.0,0.0,0.0,0.0,0.0,0.0,0.0,0.0,0.0,0.0,0.0,0.0,0.0,0.0,0.0,0.0,0.0,0.0,0.0,0.0,0.0,0.0,0.0,0.0,0.0,0.0,0.0,0.0,0.0,0.0,0.0,0.0,0.0,0.0,0.0,0.0,0.0,0.0,0.0,0.0,0.0,0.0,0.0,0.0,0.0,0.0,0.0,0.0,0.0,0.0,0.0,0.0,0.0,0.0,0.0,0.0,0.0,0.0,0.0,0.0,0.0,0.0,0.0,0.0,0.0,0.0,0.0,0.0,0.0,0.0,0.0,0.0,0.0,0.0,0.0,0.0,0.0,0.0,0.0,0.0,0.0,0.0,0.0,0.0,0.0,0.0,0.0,0.0,0.0,0.0,0.0,0.0,0.0,0.0,0.0,0.0,0.0,0.0,0.0,0.0,0.0,0.0,0.0,0.0,0.0,0.0,0.0,0.0,0.0,0.0,0.0,0.0,0.0,0.0,0.0,0.0,0.0,0.0,0.0,0.0,0.0,0.0,0.0,0.0,0.0,0.0,0.0,0.0,0.0,0.0,0.0,0.0,0.0,0.0,0.0,0.0,0.0,0.0,0.0,0.0,0.0,0.0,0.0,0.0,0.0,0.0,0.0,0.0,0.0,0.0,0.0,0.0,0.0,0.0,0.0,0.0,0.0,0.0,0.0,0.0,0.0,0.0,0.0,0.0,0.0,0.0,0.0,0.0,0.0,0.0,0.0,0.0,0.0,0.0,0.0,0.0,0.0,0.0,0.0,0.0,0.0,0.0,0.0,0.0,0.0,0.0,0.0,0.0,0.0,0.0,0.0,0.0,0.0,0.0,0.0,0.0,0.0,0.0,0.0,0.0,0.0,0.0,0.0,0.0,0.0,0.0,0.0,0.0,0.0,0.0,0.0,0.0,0.0,0.0,0.0,0.0,0.0,0.0,0.0,0.0,0.0,0.0,0.0,0.0,0.0,0.0,0.0,0.0,0.0,0.0,0.0,0.0,0.0,0.0,0.0,0.0,0.0,0.0,0.0,0.0,0.0,0.0,0.0,0.0,0.0,0.0,0.0,0.0,0.0,0.0,0.0,0.0,0.0,0.0,0.0,0.0,0.0,0.0,0.0,0.0,0.0,0.0,0.0,0.0,0.0,0.0,0.0,0.0,0.0,0.0,0.0,0.0,0.0,0.0,0.0,0.0,0.0,0.0,0.0,0.0,0.0,0.0,0.0,0.0,0.0,0.0,0.0,0.0,0.0,0.0,0.0,0.0,0.0,0.0,0.0,0.0,0.0,0.0,0.0,0.0,0.0,0.0,0.0,0.0,0.0,0.0,0.0,0.0,0.0,0.0,0.0,0.0,0.0,0.0,0.0,0.0,0.0,0.0,0.0,0.0,0.0,0.0,0.0,0.0,0.0,0.0,0.0,0.0,0.0,0.0,0.0,0.0,0.0,0.0,0.0,0.0,0.0,0.0,0.0,0.0,0.0,0.0,0.0,0.0,0.0,0.0,0.0,0.0,0.0,0.0,0.0,0.0,0.0,0.0,0.0,0.0,0.0,0.0,0.0,0.0,0.0,0.0,0.0,0.0,0.0,0.0,0.0,0.0,0.0,0.0,0.0,0.0,0.0,0.0,0.0,0.0,0.0,0.0,0.0,0.0,0.0,0.0,0.0,0.0,0.0,0.0,0.0,0.0,0.0,0.0,0.0,0.0,0.0,0.0,0.0,0.0,0.0,0.0,0.0,0.0,0.0,0.0,0.0,0.0,0.0,0.0,0.0,0.0,0.0,0.0,0.0,0.0,0.0,0.0,0.0,0.0,0.0,0.0,0.0,0.0,0.0,0.0,0.0,0.0,0.0,0.0,0.0,0.0,0.0,0.0,0.0,0.0,0.0,0.0,0.0,0.0,0.0,0.0,0.0,0.0,0.0,0.0,0.0,0.0,0.0,0.0,0.0,0.0,0.0,0.0,0.0,0.0,0.0,0.0,0.0,0.0,0.0,0.0,0.0,0.0,0.0,0.0,0.0,0.0,0.0,0.0,0.0,0.0,0.0,0.0,0.0,0.0,0.0,0.0,0.0,0.0,0.0,0.0,0.0,0.0,0.0,0.0,0.0,0.0,0.0,0.0,0.0,0.0,0.0,0.0,0.0,0.0,0.0,0.0,0.0,0.0,0.0,0.0,0.0,0.0,0.0,0.0,0.0,0.0,0.0,0.0,0.0,0.0,0.0,0.0,0.0,0.0,0.0,0.0,0.0,0.0,0.0,0.0,0.0,0.0,0.0,0.0,0.0,0.0,0.0,0.0,0.0,0.0,0.0,0.0,0.0,0.0,0.0,0.0,0.0,0.0,0.0,0.0,0.0,0.0,0.0,0.0,0.0,0.0,0.0,0.0,0.0,0.0,0.0,0.0,0.0,0.0,0.0,0.0,0.0,0.0,0.0,0.0,0.0,0.0,0.0,0.0,-2.61,0.0,0.0,0.0,0.0,0.0,0.0,0.0,0.0,0.0,0.0,0.0,0.0,0.0,0.0,0.0,0.0,0.0,0.0,0.0,0.0,0.0,0.0,0.0,0.0,0.0,0.0,0.0,0.0,0.0,0.0,0.0,0.0,0.0,0.0,0.0,0.0,0.0,0.0,0.0,0.0,0.0,0.0,0.0,0.0,0.0,0.0,0.0,0.0,0.0,0.0,0.0,0.0,0.0,0.0,0.0,0.0,0.0,0.0,0.0,0.0,0.0,0.0,0.0,0.0,0.0,0.0,0.0,0.0,0.0,0.0,0.0,0.0,0.0,0.0,0.0,0.0,0.0,0.0,0.0,0.0,0.0,0.0,0.0,0.0,0.0,0.0,0.0,0.0,0.0,0.0,0.0,0.0,0.0,0.0,0.0,0.0,0.0,0.0,0.0,0.0,0.0,0.0,0.0,0.0,0.0,0.0,0.0,0.0,0.0,0.0,-2.7437,-2.6398,-2.5401,-2.4922,-2.5079,0.0,0.0,0.0,0.0,0.0,0.0,0.0,0.0,0.0,0.0,0.0,0.0,0.0,0.0,0.0,0.0,0.0,0.0,0.0,0.0,0.0,0.0,0.0,0.0,0.0,0.0,0.0,0.0,0.0,0.0,0.0,0.0,0.0,0.0,0.0,0.0,0.0,0.0,0.0,0.0,0.0,0.0,0.0,0.0,0.0,0.0,0.0,0.0,0.0,0.0,0.0,0.0,0.0,0.0,0.0,0.0,0.0,0.0,0.0,0.0,0.0,0.0,0.0,0.0,0.0,0.0,0.0,0.0,0.0,0.0,0.0,0.0,0.0,0.0,0.0,0.0,0.0,0.0,0.0,0.0,0.0,0.0,0.0,0.0,0.0,0.0,0.0,0.0,0.0,0.0,0.0,0.0,0.0,0.0,0.0,0.0,0.0,0.0,0.0,0.0,0.0,0.0,0.0,0.0,0.0,0.0,0.0,0.0,0.0,0.0,0.0,0.0,-2.4578,-2.4248,-2.4398,0.0,0.0,0.0,0.0,0.0,0.0,0.0,0.0,0.0,0.0,0.0,0.0,0.0,0.0,0.0,0.0,0.0,0.0,0.0,0.0,0.0,0.0,0.0,0.0,0.0,0.0,0.0,0.0,0.0,0.0,0.0,0.0,0.0,0.0,0.0,0.0,0.0,0.0,0.0,0.0,0.0,0.0,0.0,0.0,0.0,0.0,0.0,0.0,0.0,0.0,0.0,0.0,0.0,0.0,0.0,0.0,0.0,0.0,0.0,0.0,0.0,0.0,0.0,0.0,0.0,0.0,0.0,0.0,0.0,0.0,0.0,0.0,0.0,0.0,0.0,0.0,0.0,0.0,0.0,0.0,0.0,0.0,0.0,0.0,0.0,0.0,0.0,0.0,0.0,0.0,0.0,0.0,0.0,0.0,0.0,0.0,0.0,0.0,0.0,0.0,0.0,0.0,0.0,0.0,0.0,0.0,0.0,0.0,0.0,0.0,-2.5353,-2.439,-2.4251,0.0,-2.4845,0.0,0.0,0.0,0.0,0.0,0.0,0.0,0.0,0.0,0.0,0.0,0.0,0.0,0.0,0.0,0.0,0.0,0.0,0.0,0.0,0.0,0.0,0.0,0.0,0.0,0.0,0.0,0.0,0.0,0.0,0.0,0.0,0.0,0.0,0.0,0.0,0.0,0.0,0.0,0.0,0.0,0.0,0.0,0.0,0.0,0.0,0.0,0.0,0.0,0.0,0.0,0.0,0.0,0.0,0.0,0.0,0.0,0.0,0.0,0.0,0.0,0.0,0.0,0.0,0.0,0.0,0.0,0.0,0.0,0.0,0.0,0.0,0.0,0.0,0.0,0.0,0.0,0.0,0.0,0.0,0.0,0.0,0.0,0.0,0.0,0.0,0.0,0.0,0.0,0.0,0.0,0.0,0.0,0.0,0.0,0.0,0.0,0.0,0.0,0.0,0.0,0.0,0.0,0.0,0.0,0.0,0.0,0.0,0.0,0.0,-2.5819,-2.4242,-2.444,-2.4652,0.0,0.0,0.0,0.0,0.0,0.0,0.0,0.0,0.0,0.0,0.0,0.0,0.0,0.0,0.0,0.0,0.0,0.0,0.0,0.0,0.0,0.0,0.0,0.0,0.0,0.0,0.0,0.0,0.0,0.0,0.0,0.0,0.0,0.0,0.0,0.0,0.0,0.0,0.0,0.0,0.0,0.0,0.0,0.0,0.0,0.0,0.0,0.0,0.0,0.0,0.0,0.0,0.0,0.0,0.0,0.0,0.0,0.0,0.0,0.0,0.0,0.0,0.0,0.0,0.0,0.0,0.0,0.0,0.0,0.0,0.0,0.0,0.0,0.0,0.0,0.0,0.0,0.0,0.0,0.0,0.0,0.0,0.0,0.0,0.0,0.0,0.0,0.0,0.0,0.0,0.0,0.0,0.0,0.0,0.0,0.0,0.0,0.0,0.0,0.0,0.0,0.0,0.0,0.0,0.0,0.0,0.0,0.0,0.0,0.0,-2.657,-2.5577,-2.4217,-2.4519,-2.4783,-2.489,0.0,0.0,0.0,0.0,0.0,0.0,0.0,0.0,0.0,0.0,0.0,0.0,0.0,0.0,0.0,0.0,0.0,0.0,0.0,0.0,0.0,0.0,0.0,0.0,0.0,0.0,0.0,0.0,0.0,0.0,0.0,0.0,0.0,0.0,0.0,0.0,0.0,0.0,0.0,0.0,0.0,0.0,0.0,0.0,0.0,0.0,0.0,0.0,0.0,0.0,0.0,0.0,0.0,0.0,0.0,0.0,0.0,0.0,0.0,0.0,0.0,0.0,0.0,0.0,0.0,0.0,0.0,0.0,0.0,0.0,0.0,0.0,0.0,0.0,0.0,0.0,0.0,0.0,0.0,0.0,0.0,0.0,0.0,0.0,0.0,0.0,0.0,0.0,0.0,0.0,0.0,0.0,0.0,0.0,0.0,0.0,0.0,0.0,0.0,0.0,0.0,0.0,0.0,0.0,0.0,0.0,0.0,0.0,-2.7142,-2.5089,-2.3976,-2.3939,-2.4257,-2.4625,0.0,0.0,0.0,0.0,0.0,0.0,0.0,0.0,0.0,0.0,0.0,0.0,0.0,0.0,0.0,0.0,0.0,0.0,0.0,0.0,0.0,0.0,0.0,0.0,0.0,0.0,0.0,0.0,0.0,0.0,0.0,0.0,0.0,0.0,0.0,0.0,0.0,0.0,0.0,0.0,0.0,0.0,0.0,0.0,0.0,0.0,0.0,0.0,0.0,0.0,0.0,0.0,0.0,0.0,0.0,0.0,0.0,0.0,0.0,0.0,0.0,0.0,0.0,0.0,0.0,0.0,0.0,0.0,0.0,0.0,0.0,0.0,0.0,0.0,0.0,0.0,0.0,0.0,0.0,0.0,0.0,0.0,0.0,0.0,0.0,0.0,0.0,0.0,0.0,0.0,0.0,0.0,0.0,0.0,0.0,0.0,0.0,0.0,0.0,0.0,0.0,0.0,0.0,0.0,0.0,0.0,0.0,0.0,0.0,-2.6894,-2.4698,-2.3634,-2.3881,-2.4284,-2.4676,0.0,0.0,0.0,0.0,0.0,0.0,0.0,0.0,0.0,0.0,0.0,0.0,0.0,0.0,0.0,0.0,0.0,0.0,0.0,0.0,0.0,0.0,0.0,0.0,0.0,0.0,0.0,0.0,0.0,0.0,0.0,0.0,0.0,0.0,0.0,0.0,0.0,0.0,0.0,0.0,0.0,0.0,0.0,0.0,0.0,0.0,0.0,0.0,0.0,0.0,0.0,0.0,0.0,0.0,0.0,0.0,0.0,0.0,0.0,0.0,0.0,0.0,0.0,0.0,0.0,0.0,0.0,0.0,0.0,0.0,0.0,0.0,0.0,0.0,0.0,0.0,0.0,0.0,0.0,0.0,0.0,0.0,0.0,0.0,0.0,0.0,0.0,0.0,0.0,0.0,0.0,0.0,0.0,0.0,0.0,0.0,0.0,0.0,0.0,0.0,0.0,0.0,0.0,0.0,0.0,0.0,0.0,0.0,0.0,-2.5596,0.0,-2.3576,-2.3808,-2.4289,-2.4676,0.0,0.0,0.0,0.0,0.0,0.0,0.0,0.0,0.0,0.0,0.0,0.0,0.0,0.0,0.0,0.0,0.0,0.0,0.0,0.0,0.0,0.0,0.0,0.0,0.0,0.0,0.0,0.0,0.0,0.0,0.0,0.0,0.0,0.0,0.0,0.0,0.0,0.0,0.0,0.0,0.0,0.0,0.0,0.0,0.0,0.0,0.0,0.0,0.0,0.0,0.0,0.0,0.0,0.0,0.0,0.0,0.0,0.0,0.0,0.0,0.0,0.0,0.0,0.0,0.0,0.0,0.0,0.0,0.0,0.0,0.0,0.0,0.0,0.0,0.0,0.0,0.0,0.0,0.0,0.0,0.0,0.0,0.0,0.0,0.0,0.0,0.0,0.0,0.0,0.0,0.0,0.0,0.0,0.0,0.0,0.0,0.0,0.0,0.0,0.0,0.0,0.0,0.0,0.0,0.0,0.0,0.0,0.0,-2.5557,-2.3223,-2.338,-2.3557,-2.3709,-2.4355,-2.4746,0.0,0.0,0.0,0.0,0.0,0.0,0.0,0.0,0.0,0.0,0.0,0.0,0.0,0.0,0.0,0.0,0.0,0.0,0.0,0.0,0.0,0.0,0.0,0.0,0.0,0.0,0.0,0.0,0.0,0.0,0.0,0.0,0.0,0.0,0.0,0.0,0.0,0.0,0.0,0.0,0.0,0.0,0.0,0.0,0.0,0.0,0.0,0.0,0.0,0.0,0.0,0.0,0.0,0.0,0.0,0.0,0.0,0.0,0.0,0.0,0.0,0.0,0.0,0.0,0.0,0.0,0.0,0.0,0.0,0.0,0.0,0.0,0.0,0.0,0.0,0.0,0.0,0.0,0.0,0.0,0.0,0.0,0.0,0.0,0.0,0.0,0.0,0.0,0.0,0.0,0.0,0.0,0.0,0.0,0.0,0.0,0.0,0.0,0.0,0.0,0.0,0.0,0.0,0.0,0.0,0.0,0.0,0.0,0.0,-2.3398,-2.3505,-2.378,-2.4042,-2.4224,-2.4473,0.0,0.0,0.0,0.0,0.0,0.0,0.0,0.0,0.0,0.0,0.0,0.0,0.0,0.0,0.0,0.0,0.0,0.0,0.0,0.0,0.0,0.0,0.0,0.0,0.0,0.0,0.0,0.0,0.0,0.0,0.0,0.0,0.0,0.0,0.0,0.0,0.0,0.0,0.0,0.0,0.0,0.0,0.0,0.0,0.0,0.0,0.0,0.0,0.0,0.0,0.0,0.0,0.0,0.0,0.0,0.0,0.0,0.0,0.0,0.0,0.0,0.0,0.0,0.0,0.0,0.0,0.0,0.0,0.0,0.0,0.0,0.0,0.0,0.0,0.0,0.0,0.0,0.0,0.0,0.0,0.0,0.0,0.0,0.0,0.0,0.0,0.0,0.0,0.0,0.0,0.0,0.0,0.0,0.0,0.0,0.0,0.0,0.0,0.0,0.0,0.0,0.0,0.0,0.0,0.0,0.0,0.0,0.0,0.0,-2.3791,-2.3812,-2.399,-2.4222,-2.4367,-2.4564,-2.4804,0.0,0.0,0.0,0.0,0.0,0.0,0.0,0.0,0.0,0.0,0.0,0.0,0.0,0.0,0.0,0.0,0.0,0.0,0.0,0.0,0.0,0.0,0.0,0.0,0.0,0.0,0.0,0.0,0.0,0.0,0.0,0.0,0.0,0.0,0.0,0.0,0.0,0.0,0.0,0.0,0.0,0.0,0.0,0.0,0.0,0.0,0.0,0.0,0.0,0.0,0.0,0.0,0.0,0.0,0.0,0.0,0.0,0.0,0.0,0.0,0.0,0.0,0.0,0.0,0.0,0.0,0.0,0.0,0.0,0.0,0.0,0.0,0.0,0.0,0.0,0.0,0.0,0.0,0.0,0.0,0.0,0.0,0.0,0.0,0.0,0.0,0.0,0.0,0.0,0.0,0.0,0.0,0.0,0.0,0.0,0.0,0.0,0.0,0.0,0.0,0.0,0.0,0.0,0.0,0.0,0.0,0.0,0.0,-2.423,-2.4202,-2.421,-2.4273,-2.4624,-2.4821,0.0,0.0,0.0,0.0,0.0,0.0,0.0,0.0,0.0,0.0,0.0,0.0,0.0,0.0,0.0,0.0,0.0,0.0,0.0,0.0,0.0,0.0,0.0,0.0,0.0,0.0,0.0,0.0,0.0,0.0,0.0,0.0,0.0,0.0,0.0,0.0,0.0,0.0,0.0,0.0,0.0,0.0,0.0,0.0,0.0,0.0,0.0,0.0,0.0,0.0,0.0,0.0,0.0,0.0,0.0,0.0,0.0,0.0,0.0,0.0,0.0,0.0,0.0,0.0,0.0,0.0,0.0,0.0,0.0,0.0,0.0,0.0,0.0,0.0,0.0,0.0,0.0,0.0,0.0,0.0,0.0,0.0,0.0,0.0,0.0,0.0,0.0,0.0,0.0,0.0,0.0,0.0,0.0,0.0,0.0,0.0,0.0,0.0,0.0,0.0,0.0,0.0,0.0,0.0,0.0,0.0,0.0,0.0,0.0,-2.4293,-2.4073,-2.4216,-2.4612,-2.477,-2.4821,0.0,0.0,0.0,0.0,0.0,0.0,0.0,0.0,0.0,0.0,0.0,0.0,0.0,0.0,0.0,0.0,0.0,0.0,0.0,0.0,0.0,0.0,0.0,0.0,0.0,0.0,0.0,0.0,0.0,0.0,0.0,0.0,0.0,0.0,0.0,0.0,0.0,0.0,0.0,0.0,0.0,0.0,0.0,0.0,0.0,0.0,0.0,0.0,0.0,0.0,0.0,0.0,0.0,0.0,0.0,0.0,0.0,0.0,0.0,0.0,0.0,0.0,0.0,0.0,0.0,0.0,0.0,0.0,0.0,0.0,0.0,0.0,0.0,0.0,0.0,0.0,0.0,0.0,0.0,0.0,0.0,0.0,0.0,0.0,0.0,0.0,0.0,0.0,0.0,0.0,0.0,0.0,0.0,0.0,0.0,0.0,0.0,0.0,0.0,0.0,0.0,0.0,0.0,0.0,0.0,0.0,0.0,0.0,-2.5844,-2.4086,-2.3972,-2.4089,-2.4423,-2.4432,-2.4543,0.0,0.0,0.0,0.0,0.0,0.0,0.0,0.0,0.0,0.0,0.0,0.0,0.0,0.0,0.0,0.0,0.0,0.0,0.0,0.0,0.0,0.0,0.0,0.0,0.0,0.0,0.0,0.0,0.0,0.0,0.0,0.0,0.0,0.0,0.0,0.0,0.0,0.0,0.0,0.0,0.0,0.0,0.0,0.0,0.0,0.0,0.0,0.0,0.0,0.0,0.0,0.0,0.0,0.0,0.0,0.0,0.0,0.0,0.0,0.0,0.0,0.0,0.0,0.0,0.0,0.0,0.0,0.0,0.0,0.0,0.0,0.0,0.0,0.0,0.0,0.0,0.0,0.0,0.0,0.0,0.0,0.0,0.0,0.0,0.0,0.0,0.0,0.0,0.0,0.0,0.0,0.0,0.0,0.0,0.0,0.0,0.0,0.0,0.0,0.0,0.0,0.0,0.0,0.0,0.0,0.0,0.0,0.0,-2.5882,-2.4184,-2.3968,-2.3968,-2.4136,-2.3968,-2.4256,0.0,0.0,0.0,0.0,0.0,0.0,0.0,0.0,0.0,0.0,0.0,0.0,0.0,0.0,0.0,0.0,0.0,0.0,0.0,0.0,0.0,0.0,0.0,0.0,0.0,0.0,0.0,0.0,0.0,0.0,0.0,0.0,0.0,0.0,0.0,0.0,0.0,0.0,0.0,0.0,0.0,0.0,0.0,0.0,0.0,0.0,0.0,0.0,0.0,0.0,0.0,0.0,0.0,0.0,0.0,0.0,0.0,0.0,0.0,0.0,0.0,0.0,0.0,0.0,0.0,0.0,0.0,0.0,0.0,0.0,0.0,0.0,0.0,0.0,0.0,0.0,0.0,0.0,0.0,0.0,0.0,0.0,0.0,0.0,0.0,0.0,0.0,0.0,0.0,0.0,0.0,0.0,0.0,0.0,0.0,0.0,0.0,0.0,0.0,0.0,0.0,0.0,0.0,0.0,0.0,0.0,0.0,0.0,-2.676,-2.5643,-2.4509,-2.4462,-2.5597,-2.4518,-2.4526,0.0,0.0,0.0,0.0,0.0,0.0,0.0,0.0,0.0,0.0,0.0,0.0,0.0,0.0,0.0,0.0,0.0,0.0,0.0,0.0,0.0,0.0,0.0,0.0,0.0,0.0,0.0,0.0,0.0,0.0,0.0,0.0,0.0,0.0,0.0,0.0,0.0,0.0,0.0,0.0,0.0,0.0,0.0,0.0,0.0,0.0,0.0,0.0,-3.0898,0.0,0.0,0.0,0.0,0.0,0.0,0.0,0.0,0.0,0.0,0.0,0.0,0.0,0.0,0.0,0.0,0.0,0.0,0.0,0.0,0.0,0.0,0.0,0.0,0.0,0.0,0.0,0.0,0.0,0.0,0.0,0.0,0.0,0.0,0.0,0.0,0.0,0.0,0.0,0.0,0.0,0.0,0.0,0.0,0.0,0.0,0.0,0.0,0.0,0.0,0.0,0.0,0.0,0.0,0.0,0.0,0.0,0.0,0.0,-2.6844,-2.568,-2.4509,-2.4454,-2.558,-2.4936,-2.5212,0.0,0.0,0.0,0.0,0.0,0.0,0.0,0.0,0.0,0.0,0.0,0.0,0.0,0.0,0.0,0.0,0.0,0.0,0.0,0.0,0.0,0.0,0.0,0.0,0.0,0.0,0.0,0.0,0.0,0.0,0.0,0.0,0.0,0.0,0.0,0.0,0.0,0.0,0.0,0.0,0.0,0.0,0.0,0.0,0.0,0.0,0.0,0.0,0.0,0.0,0.0,0.0,0.0,0.0,0.0,0.0,0.0,0.0,0.0,0.0,0.0,0.0,0.0,0.0,0.0,0.0,0.0,0.0,0.0,0.0,0.0,0.0,0.0,0.0,0.0,0.0,0.0,0.0,0.0,0.0,0.0,0.0,0.0,0.0,0.0,0.0,0.0,0.0,0.0,0.0,0.0,0.0,0.0,0.0,0.0,0.0,0.0,0.0,0.0,0.0,0.0,0.0,0.0,0.0,0.0,0.0,0.0,-2.8038,-2.6997,-2.5781,-2.488,-2.4825,-2.568,-2.5735,-2.6391,-2.7707,0.0,0.0,0.0,0.0,0.0,0.0,0.0,0.0,0.0,0.0,0.0,0.0,0.0,0.0,0.0,0.0,0.0,0.0,0.0,0.0,0.0,0.0,0.0,0.0,0.0,0.0,0.0,0.0,0.0,0.0,0.0,0.0,0.0,0.0,0.0,0.0,0.0,0.0,-3.7317,-3.4559,0.0,0.0,0.0,0.0,0.0,0.0,0.0,0.0,-3.0898,0.0,0.0,0.0,0.0,0.0,0.0,0.0,0.0,0.0,0.0,0.0,0.0,0.0,0.0,0.0,0.0,0.0,0.0,0.0,0.0,0.0,0.0,0.0,0.0,0.0,0.0,0.0,0.0,0.0,0.0,0.0,0.0,0.0,0.0,0.0,0.0,0.0,0.0,0.0,0.0,0.0,0.0,0.0,0.0,0.0,0.0,0.0,0.0,0.0,0.0,0.0,0.0,0.0,0.0,0.0,0.0,-2.9774,-2.891,-2.8359,-2.8135,-2.7276,-2.7222,-2.8082,-2.8135,-2.8581,-2.9448,0.0,0.0,0.0,0.0,0.0,0.0,0.0,0.0,0.0,0.0,0.0,0.0,0.0,0.0,0.0,0.0,0.0,0.0,0.0,0.0,0.0,0.0,0.0,0.0,0.0,0.0,0.0,0.0,0.0,0.0,0.0,0.0,0.0,0.0,0.0,0.0,0.0,0.0,0.0,-3.2985,-3.117,0.0,0.0,0.0,0.0,0.0,0.0,0.0,0.0,-3.0898,0.0,0.0,0.0,0.0,0.0,0.0,0.0,0.0,0.0,0.0,0.0,0.0,0.0,0.0,0.0,0.0,0.0,0.0,0.0,0.0,0.0,0.0,0.0,0.0,0.0,0.0,0.0,0.0,0.0,0.0,0.0,0.0,0.0,0.0,0.0,0.0,0.0,0.0,0.0,0.0,0.0,0.0,0.0,0.0,0.0,0.0,0.0,0.0,0.0,0.0,0.0,0.0,0.0,0.0,0.0,-2.9942,-2.9132,-2.8644,-2.8495,-2.7628,-2.7618,-2.8441,-2.8495,-2.8963,0.0,0.0,0.0,0.0,0.0,0.0,0.0,0.0,0.0,0.0,0.0,0.0,0.0,0.0,0.0,0.0,0.0,0.0,0.0,0.0,0.0,0.0,0.0,0.0,0.0,0.0,0.0,0.0,0.0,0.0,0.0,0.0,0.0,0.0,0.0,0.0,0.0,0.0,0.0,0.0,-3.3222,-3.1624,-3.1005,0.0,0.0,0.0,0.0,0.0,0.0,-3.0898,-3.0898,0.0,0.0,0.0,0.0,0.0,0.0,0.0,0.0,0.0,0.0,0.0,0.0,0.0,0.0,0.0,0.0,0.0,0.0,0.0,0.0,0.0,0.0,0.0,0.0,0.0,0.0,0.0,0.0,0.0,0.0,0.0,0.0,0.0,0.0,0.0,0.0,0.0,0.0,0.0,0.0,0.0,0.0,0.0,0.0,0.0,0.0,0.0,0.0,0.0,0.0,0.0,0.0,0.0,0.0,0.0,-2.9994,-2.929,-2.8867,-2.8611,-2.796,-2.796,-2.8611,-2.8664,-2.9089,0.0,0.0,0.0,0.0,0.0,0.0,0.0,0.0,0.0,0.0,0.0,0.0,0.0,0.0,0.0,0.0,0.0,0.0,0.0,0.0,0.0,0.0,0.0,0.0,0.0,0.0,0.0,0.0,0.0,0.0,0.0,0.0,0.0,0.0,0.0,0.0,0.0,0.0,0.0,0.0,0.0,-3.2238,-3.1064,-3.0898,0.0,0.0,0.0,0.0,-3.0898,-3.0898,0.0,0.0,0.0,0.0,0.0,0.0,0.0,0.0,0.0,0.0,0.0,0.0,0.0,0.0,0.0,0.0,0.0,0.0,0.0,0.0,0.0,0.0,0.0,0.0,0.0,0.0,0.0,0.0,0.0,0.0,0.0,0.0,0.0,0.0,0.0,0.0,0.0,0.0,0.0,0.0,0.0,0.0,0.0,0.0,0.0,0.0,0.0,0.0,0.0,0.0,0.0,0.0,0.0,0.0,0.0,0.0,-2.9994,-2.9879,-2.9827,-2.9774,-2.9659,-2.9732,-2.9784,-2.9784,-2.9889,0.0,0.0,0.0,0.0,0.0,0.0,0.0,0.0,0.0,0.0,0.0,0.0,0.0,0.0,0.0,0.0,0.0,0.0,0.0,0.0,0.0,0.0,0.0,0.0,0.0,0.0,0.0,0.0,0.0,0.0,0.0,0.0,0.0,0.0,0.0,0.0,0.0,0.0,0.0,0.0,0.0,-3.2238,-3.1064,-3.0898,-3.0898,0.0,0.0,-3.0898,-3.0898,-3.0898,0.0,0.0,0.0,0.0,0.0,0.0,0.0,0.0,0.0,0.0,0.0,0.0,0.0,0.0,0.0,0.0,0.0,0.0,0.0,0.0,0.0,0.0,0.0,0.0,0.0,0.0,0.0,0.0,0.0,0.0,0.0,0.0,0.0,0.0,0.0,0.0,0.0,0.0,0.0,0.0,0.0,0.0,0.0,0.0,0.0,0.0,0.0,0.0,0.0,0.0,0.0,0.0,0.0,0.0,0.0,-2.9601,-2.9591,-2.9342,-2.9126,-2.8973,-2.8962,-2.8962,-2.8962,-2.8962,-2.9188,0.0,0.0,0.0,0.0,0.0,0.0,0.0,0.0,0.0,0.0,0.0,0.0,0.0,0.0,0.0,0.0,0.0,0.0,0.0,0.0,0.0,0.0,0.0,0.0,0.0,0.0,0.0,0.0,0.0,0.0,0.0,0.0,0.0,0.0,0.0,0.0,0.0,0.0,0.0,0.0,0.0,0.0,-3.117,-3.0898,0.0,0.0,0.0,-3.0898,-3.0898,0.0,0.0,0.0,0.0,0.0,0.0,0.0,0.0,0.0,0.0,0.0,0.0,0.0,0.0,0.0,0.0,0.0,0.0,0.0,0.0,0.0,0.0,0.0,0.0,0.0,0.0,0.0,0.0,0.0,0.0,0.0,0.0,0.0,0.0,0.0,0.0,0.0,0.0,0.0,0.0,0.0,0.0,0.0,0.0,0.0,0.0,0.0,0.0,0.0,0.0,0.0,0.0,0.0,0.0,0.0,0.0,0.0,-2.9135,-2.8783,-2.8468,-2.8338,-2.8338,-2.8277,-2.8288,-2.8277,0.0,0.0,0.0,0.0,0.0,0.0,0.0,0.0,0.0,0.0,0.0,0.0,0.0,0.0,0.0,0.0,0.0,0.0,0.0,0.0,0.0,0.0,0.0,0.0,0.0,0.0,0.0,-3.9697,0.0,0.0,0.0,0.0,0.0,0.0,0.0,0.0,0.0,0.0,0.0,0.0,0.0,0.0,-3.3551,-3.1218,-3.0898,-3.0898,0.0,0.0,-3.0898,-3.0898,-3.0898,-3.0898,0.0,0.0,0.0,0.0,0.0,0.0,0.0,0.0,0.0,0.0,0.0,0.0,0.0,0.0,0.0,0.0,0.0,0.0,0.0,0.0,0.0,0.0,0.0,0.0,0.0,0.0,0.0,0.0,0.0,0.0,0.0,0.0,0.0,0.0,0.0,0.0,0.0,0.0,0.0,0.0,0.0,0.0,0.0,0.0,0.0,0.0,0.0,0.0,0.0,0.0,0.0,0.0,0.0,0.0,-2.8669,-2.8659,-2.8628,-2.8597,-2.8568,-2.8568,-2.8568,-2.8568,-2.8557,-2.8774,0.0,0.0,0.0,0.0,0.0,0.0,0.0,0.0,0.0,0.0,0.0,0.0,0.0,0.0,0.0,0.0,0.0,0.0,0.0,0.0,0.0,0.0,0.0,0.0,0.0,0.0,0.0,0.0,0.0,0.0,0.0,0.0,0.0,0.0,0.0,0.0,0.0,0.0,0.0,0.0,0.0,-3.3551,-3.1228,-3.0898,-3.0898,0.0,-3.0898,-3.0898,-3.0898,-3.0898,-3.0898,-3.0898,0.0,0.0,0.0,0.0,0.0,0.0,0.0,0.0,0.0,0.0,0.0,0.0,0.0,0.0,0.0,0.0,0.0,0.0,0.0,0.0,0.0,0.0,0.0,0.0,0.0,0.0,0.0,0.0,0.0,0.0,0.0,0.0,0.0,0.0,0.0,0.0,0.0,0.0,0.0,0.0,0.0,0.0,0.0,0.0,0.0,0.0,0.0,0.0,0.0,0.0,0.0,0.0,0.0,-2.8193,-2.8183,-2.7914,-2.7828,-2.7769,-2.7828,-2.7779,-2.7779,-2.7779,-2.7997,0.0,0.0,0.0,0.0,0.0,0.0,0.0,0.0,0.0,0.0,0.0,0.0,0.0,0.0,0.0,0.0,0.0,0.0,0.0,0.0,0.0,0.0,0.0,0.0,0.0,0.0,0.0,0.0,-3.9697,-3.9697,-3.9697,0.0,0.0,0.0,0.0,0.0,0.0,0.0,0.0,0.0,0.0,-3.4592,-3.1392,-3.1508,0.0,0.0,-3.0898,-3.0898,-3.0898,-3.0898,-3.0898,-3.0898,-3.0898,0.0,0.0,0.0,0.0,0.0,0.0,0.0,0.0,0.0,0.0,0.0,0.0,0.0,0.0,0.0,0.0,0.0,0.0,0.0,0.0,0.0,0.0,0.0,0.0,0.0,0.0,0.0,0.0,0.0,0.0,0.0,0.0,0.0,0.0,0.0,0.0,0.0,0.0,0.0,0.0,0.0,0.0,0.0,0.0,0.0,0.0,0.0,0.0,0.0,0.0,0.0,0.0,-2.7728,-2.7728,-2.7417,-2.732,-2.732,-2.732,-2.732,-2.732,-2.732,-2.7517,0.0,0.0,0.0,0.0,0.0,0.0,0.0,0.0,0.0,0.0,0.0,0.0,0.0,0.0,0.0,0.0,0.0,0.0,0.0,0.0,0.0,0.0,0.0,0.0,0.0,0.0,0.0,0.0,-3.9697,-3.9697,-3.9697,0.0,0.0,0.0,0.0,0.0,0.0,0.0,0.0,0.0,0.0,-3.4969,-3.1998,-3.2227,-3.2305,-3.1064,-3.1228,-3.1344,-3.0947,-3.0898,-3.0898,-3.0898,0.0,0.0,0.0,0.0,0.0,0.0,0.0,0.0,0.0,0.0,0.0,0.0,0.0,0.0,0.0,0.0,0.0,0.0,0.0,0.0,0.0,0.0,0.0,0.0,0.0,0.0,0.0,-2.6563,0.0,0.0,-2.9019,0.0,0.0,0.0,0.0,0.0,0.0,0.0,0.0,0.0,0.0,0.0,0.0,0.0,0.0,0.0,0.0,0.0,0.0,0.0,0.0,0.0,0.0,-2.733,-2.733,-2.732,-2.732,-2.732,-2.732,-2.732,-2.732,-2.732,-2.7517,-2.7903,0.0,0.0,0.0,0.0,0.0,0.0,0.0,0.0,0.0,0.0,0.0,0.0,0.0,0.0,0.0,0.0,0.0,0.0,0.0,0.0,0.0,0.0,0.0,0.0,0.0,0.0,-3.9697,-3.9697,-3.9697,0.0,0.0,0.0,0.0,0.0,0.0,0.0,0.0,0.0,-3.7571,-3.5999,-3.4526,-3.3191,-3.2825,-3.2295,-3.1064,-3.1903,-3.2238,-3.1064,-3.0898,-3.0898,0.0,0.0,0.0,0.0,0.0,0.0,0.0,0.0,0.0,0.0,0.0,0.0,0.0,0.0,0.0,0.0,0.0,0.0,0.0,0.0,0.0,0.0,0.0,0.0,0.0,0.0,0.0,-2.411,-2.5037,0.0,0.0,0.0,0.0,0.0,0.0,0.0,0.0,0.0,0.0,0.0,-2.7707,-2.7552,0.0,0.0,0.0,0.0,0.0,0.0,0.0,0.0,0.0,0.0,0.0,0.0,-2.732,-2.732,-2.732,-2.732,-2.732,-2.732,-2.732,-2.732,-2.732,-2.7469,-2.7865,0.0,0.0,0.0,0.0,0.0,0.0,0.0,0.0,0.0,0.0,0.0,0.0,0.0,0.0,0.0,0.0,0.0,0.0,0.0,0.0,0.0,0.0,0.0,0.0,0.0,-3.8816,0.0,0.0,0.0,0.0,0.0,0.0,0.0,0.0,0.0,0.0,0.0,-3.9077,-3.769,-3.7489,-3.6414,-3.3519,-3.3484,-3.3119,0.0,0.0,0.0,0.0,0.0,0.0,0.0,0.0,0.0,0.0,0.0,0.0,0.0,0.0,-3.0898,-3.0898,-3.1228,-3.1624,-3.2008,0.0,0.0,0.0,0.0,0.0,0.0,0.0,0.0,0.0,0.0,0.0,0.0,0.0,0.0,-2.2767,0.0,-2.422,0.0,0.0,0.0,0.0,0.0,0.0,0.0,0.0,-2.7147,-2.7156,-2.6918,-2.7167,-2.732,0.0,-2.732,-2.732,0.0,0.0,0.0,0.0,0.0,0.0,0.0,0.0,-2.732,-2.732,-2.732,-2.732,-2.732,-2.732,-2.732,-2.732,-2.732,-2.7444,-2.7676,-2.7686,-2.7696,0.0,0.0,0.0,0.0,0.0,0.0,0.0,0.0,0.0,0.0,0.0,0.0,0.0,0.0,0.0,0.0,0.0,0.0,0.0,0.0,0.0,0.0,0.0,-3.8372,0.0,0.0,0.0,0.0,0.0,0.0,0.0,0.0,0.0,-3.9697,-3.9697,-3.9349,-3.8413,-3.8307,-3.7435,-3.4947,0.0,0.0,0.0,0.0,0.0,0.0,0.0,-3.0898,-3.0898,-3.0947,-3.1054,-3.1054,-3.0947,-3.1005,-3.146,0.0,0.0,-3.1508,-3.1508,-3.1787,-3.2561,-3.3919,-3.4931,-3.5013,-3.6221,-3.7193,0.0,0.0,0.0,0.0,0.0,0.0,0.0,0.0,-2.0845,-2.14,0.0,-2.3021,0.0,0.0,0.0,0.0,0.0,-2.6534,0.0,0.0,-2.6572,-2.687,-2.6245,-2.6965,-2.732,-2.732,-2.732,-2.732,-2.732,-2.732,0.0,0.0,0.0,0.0,0.0,0.0,-2.732,-2.732,-2.732,-2.732,-2.732,-2.732,-2.732,-2.732,-2.732,-2.732,-2.732,-2.732,-2.732,-2.732,-2.733,0.0,0.0,0.0,0.0,0.0,0.0,0.0,0.0,0.0,0.0,0.0,0.0,0.0,0.0,0.0,0.0,0.0,0.0,0.0,0.0,-3.7885,0.0,0.0,0.0,0.0,0.0,0.0,0.0,0.0,0.0,0.0,-3.9697,-3.9697,-3.9697,-3.9697,0.0,0.0,0.0,0.0,-3.5793,-3.3529,-3.3877,-3.3618,-3.1392,-3.1064,-3.1005,-3.0967,0.0,0.0,-3.1373,-3.1218,-3.1508,-3.2571,-3.2799,-3.2799,-3.2846,-3.2846,-3.3413,-3.5454,-3.5135,-3.4902,-3.5783,-3.5532,-3.4914,-2.1211,0.0,0.0,0.0,0.0,-2.0859,-2.0728,-2.0453,-2.0365,-2.0674,-2.1186,-2.173,0.0,0.0,0.0,0.0,0.0,0.0,-2.5645,-2.579,-2.6235,-2.663,-2.6965,-2.7204,-2.732,-2.732,-2.732,-2.732,-2.732,-2.732,-2.732,-2.732,0.0,0.0,0.0,0.0,-2.732,-2.732,-2.732,-2.732,-2.732,-2.732,-2.732,-2.732,-2.732,-2.732,-2.732,-2.732,-2.732,-2.732,-2.732,0.0,0.0,0.0,0.0,0.0,0.0,0.0,0.0,0.0,0.0,0.0,0.0,0.0,0.0,0.0,0.0,0.0,0.0,0.0,-3.7885,-3.7885,-3.8384,0.0,0.0,0.0,0.0,0.0,0.0,0.0,0.0,0.0,-3.9697,-3.9697,-3.9697,0.0,0.0,-3.8477,-3.7624,-3.7156,-3.6414,-3.4914,-3.4914,0.0,-3.3877,-3.3031,-3.2404,-3.2226,-3.2411,-3.2675,-3.2834,-3.3529,-3.4146,-3.4481,-3.4536,-3.4814,-3.5597,-3.4781,-3.4224,-3.4792,-3.5278,-3.5729,-3.6122,-3.6557,-3.6935,-2.083,-2.0837,-2.0962,-2.083,-2.0537,-2.0475,-2.0365,-2.0223,-2.0315,-2.0467,-2.0635,-2.1238,-2.1726,-2.2123,-2.2979,0.0,0.0,0.0,-2.4854,-2.4766,-2.5343,-2.5887,-2.637,-2.6668,-2.7023,-2.732,-2.732,-2.732,-2.732,-2.732,-2.732,-2.732,0.0,0.0,-2.732,-2.732,-2.732,-2.732,-2.732,-2.732,-2.732,-2.732,-2.732,-2.732,-2.732,-2.732,-2.732,-2.732,-2.732,-2.732,-2.732,-2.732,0.0,0.0,0.0,0.0,0.0,0.0,0.0,0.0,0.0,0.0,0.0,-3.7394,-3.7885,0.0,0.0,0.0,-3.7073,-3.7233,-3.7222,-3.7619,0.0,0.0,0.0,0.0,0.0,0.0,0.0,-3.9697,-3.9697,-3.9697,-3.9697,-3.9697,-3.9697,-3.9697,-3.953,-3.9193,-3.8477,0.0,-3.7566,-3.6337,-3.6065,-3.5793,-3.5189,-3.447,-3.3942,-3.3884,-3.3919,-3.4098,-3.435,-3.4902,-3.5464,-3.5859,-3.6011,-3.6402,-3.7566,-3.6858,-3.5991,-3.5597,-3.6426,-3.7113,-3.6823,-3.7642,-3.8519,-2.0168,-2.023,-2.0516,-2.0472,-2.0146,-2.0146,-2.0179,-2.0244,-2.0468,-2.0597,-2.0732,-2.1404,-2.1471,-2.1121,-2.2325,0.0,-2.2644,-2.4057,-2.4016,-2.2736,-2.4205,-2.4943,-2.5041,-2.5839,-2.6582,-2.732,-2.732,-2.732,-2.732,-2.732,-2.732,-2.732,-2.732,-2.732,-2.732,-2.732,-2.732,-2.732,-2.732,-2.732,-2.732,-2.732,-2.732,-2.732,-2.732,-2.732,-2.732,-2.732,-2.732,-2.732,-2.732,-2.732,-2.733,0.0,0.0,0.0,0.0,0.0,0.0,0.0,0.0,0.0,0.0,0.0,0.0,0.0,0.0,0.0,-3.6684,0.0,-3.6348,-3.734,0.0,0.0,0.0,-3.9697,-3.9697,-3.9697,-3.9697,-3.9697,0.0,0.0,-3.9697,-3.9697,-3.9697,-3.9697,-3.9697,-3.9697,-3.9697,-3.9426,-3.8921,-3.7808,-3.7447,-3.6911,-3.6011,-3.5583,-3.5408,-3.5476,-3.5545,-3.5563,-3.5834,-3.589,-3.6174,-3.7126,-3.7299,-3.7631,-3.8684,-3.8736,-3.8514,-3.7299,-3.801,-3.8534,-3.7918,-3.8466,-3.9255,-2.0091,-1.9886,-1.9959,-1.9999,-1.9879,-1.9879,-1.9991,-2.0113,-2.0187,-2.0667,-2.1431,-2.1614,-2.1878,-2.219,-2.2535,-2.2644,-2.2653,-2.2987,-2.3238,-2.3488,-2.4461,-2.5187,-2.5849,-2.663,-2.7109,-2.7309,-2.732,-2.732,-2.732,-2.732,-2.732,-2.732,-2.732,-2.732,-2.732,-2.732,-2.732,-2.732,-2.732,-2.732,-2.732,-2.732,-2.732,-2.732,-2.732,-2.732,-2.732,-2.732,-2.732,-2.732,-2.732,-2.732,-2.732,-2.7686,0.0,0.0,0.0,0.0,0.0,0.0,0.0,0.0,0.0,-3.5388,-3.6511,0.0,-3.587,0.0,-3.5333,-3.6576,-3.7394,-3.8542,0.0,0.0,-3.953,-3.9697,-3.9697,-3.9697,-3.9697,-3.9697,-3.9697,-3.9697,-3.9697,-3.9697,-3.9697,-3.9697,-3.9697,-3.9697,-3.9697,-3.9645,-3.953,-3.9193,-3.9089,-3.8933,-3.8307,-3.7345,-3.6465,-3.579,-3.6419,-3.7042,-3.7323,-3.8096,-3.8764,-3.9037,-3.9089,-3.9206,-3.9426,-3.9478,-3.905,-3.8039,-3.8434,-3.9053,-3.8863,-3.9159,-3.9563,-1.9703,-1.955,-1.9595,-1.9595,-1.9595,-1.9603,-1.9799,-2.0138,-2.0344,-2.0909,-2.1725,-2.1979,-2.2291,-2.2603,-2.2603,-2.2603,-2.2603,-2.2603,-2.2846,-2.3238,-2.4016,-2.4805,-2.5596,-2.638,-2.6965,-2.7309,-2.732,-2.732,-2.732,-2.732,-2.732,-2.732,-2.732,-2.732,-2.732,-2.732,-2.732,-2.732,-2.732,-2.732,-2.732,-2.732,-2.732,-2.732,-2.732,-2.732,-2.732,-2.732,-2.732,-2.732,-2.732,-2.7498,-2.7946,-2.8327,-2.8778,0.0,0.0,0.0,0.0,0.0,0.0,0.0,0.0,0.0,0.0,0.0,-3.5344,-3.508,-3.6197,-3.7222,-3.7832,-3.8973,-3.9478,-3.8933,-3.9374,-3.9697,-3.9697,-3.9697,-3.9697,-3.9697,-3.9697,-3.9697,-3.9697,-3.9697,-3.9697,-3.9697,-3.9697,-3.9697,-3.9697,-3.9697,-3.9697,-3.9697,-3.9697,-3.9645,-3.9478,-3.8788,-3.8064,-3.7683,-3.8012,-3.8536,-3.865,-3.9258,-3.9697,-3.9697,-3.9697,-3.9697,-3.9697,-3.9697,-3.9426,-3.9084,-3.9349,-3.9665,-3.9128,-3.9616,-4.0161,-1.9272,-1.9272,-1.9272,-1.9272,-1.9331,-1.9383,-1.968,-2.0241,-2.0763,-2.1326,-2.1827,-2.2392,-2.2603,-2.2603,-2.2603,-2.2603,-2.2603,-2.2603,-2.2603,-2.2653,-2.3438,-2.4214,-2.4943,-2.5839,-2.663,-2.7309,-2.732,-2.732,-2.732,-2.732,-2.732,-2.732,-2.732,-2.732,-2.732,-2.732,-2.7299,-2.7394,-2.7299,-2.7357,-2.7489,-2.7404,-2.7394,-2.7489,-2.7499,-2.7489,-2.7489,-2.7489,-2.7489,-2.7489,-2.7489,-2.7899,-2.8855,-2.9206,-2.9615,0.0,-3.0478,0.0,0.0,0.0,0.0,0.0,0.0,0.0,0.0,-3.4692,-3.5619,-3.7725,-3.7885,-3.7885,-3.7885,-3.8973,-3.9258,-3.8332,-3.9089,-3.9697,-3.9697,-3.9697,-3.9697,-3.9697,-3.9697,-3.9697,-3.9697,-3.9697,-3.9697,-3.9697,-3.9697,-3.9697,-3.9697,-3.9697,-3.9697,-3.9697,-3.9697,-3.9685,-3.9697,-3.9685,-3.962,-3.9633,-3.9556,-3.9697,-3.9633,-3.9697,-3.9697,-3.9697,-3.9697,-3.9697,-3.9697,-3.9697,-3.9722,-3.9719,-4.0349,-4.0444,-3.9573,-4.0086,-4.0991,-1.9272,-1.9272,-1.9272,-1.9272,-1.9331,-1.9783,-2.0241,-2.0763,-2.1326,-2.1878,-2.2443,-2.2544,-2.2603,-2.2603,-2.2603,-2.2603,-2.2603,-2.2603,-2.2603,-2.2644,-2.4007,-2.4737,-2.4982,-2.6418,-2.7167,-2.7309,-2.732,-2.732,-2.732,-2.732,-2.732,-2.732,-2.732,-2.732,-2.732,0.0,0.0,0.0,-2.7489,-2.7668,-2.8409,-2.8081,-2.8034,-2.8398,-2.8456,0.0,-2.8456,-2.8398,-2.8445,-2.8456,-2.8445,0.0,0.0,0.0,0.0,0.0,0.0,0.0,0.0,0.0,0.0,0.0,-3.3247,-3.4153,-3.5704,-3.587,-3.648,-3.7725,-3.7885,-3.7885,-3.7938,-3.8985,-3.9633,-3.9426,-3.953,-3.9697,-3.9697,-3.9697,-3.9697,-3.9697,-3.9697,-3.9697,-3.9697,-3.9697,-3.9697,-3.9697,-3.9697,-3.9697,-3.9697,-3.9697,-3.9697,-3.9697,-3.9697,-3.9697,-3.9697,-3.9697,-3.9697,-3.9697,-3.9697,-3.9697,-3.9697,-3.9697,-3.9697,-3.9697,-3.9697,-3.9697,-3.9697,-3.9697,-3.9823,-4.0262,-4.0664,-4.0831,-4.0584,-4.1182,-4.1805,-1.9272,-1.9272,-1.9272,-1.9272,0.0,-1.9879,-2.0403,-2.0925,-2.1471,-2.203,-2.2603,-2.2603,-2.2603,-2.2603,-2.2603,-2.2603,-2.2603,-2.2603,-2.2603,-2.2695,-2.4156,-2.4884,-2.4943,-2.6562,-2.732,-2.732,-2.732,-2.732,-2.732,-2.732,-2.732,-2.732,-2.7547,-2.7631,-2.7668,-2.7857,-2.7987,-2.7987,-2.7998,-2.8233,-2.8735,-2.8513,-2.8456,-2.8678,-2.8678,0.0,0.0,0.0,0.0,0.0,0.0,0.0,0.0,-2.997,0.0,-3.0798,-3.0565,-3.0547,-3.0765,-3.0946,-3.1383,-3.2135,-3.3889,-3.5337,-3.6174,-3.6738,-3.7287,-3.7844,-3.8425,-3.8764,-3.8816,-3.9362,-3.9697,-3.9697,-3.9697,-3.9697,-3.9697,-3.9697,-3.9697,-3.9697,-3.9697,-3.9697,-3.9697,-3.9697,-3.9697,-3.9697,-3.9697,-3.9697,-3.9697,-3.9697,-3.9697,-3.9697,-3.9697,-3.9697,-3.9697,-3.9697,-3.9697,-3.9697,-3.9697,-3.9697,-3.9697,-3.9697,-3.9697,-3.9697,-3.9697,-3.9697,-3.9697,-3.9697,-3.9785,-4.0111,-4.0658,-4.1089,-4.111,-4.1614,-4.1972,-1.9272,-1.9272,-1.9272,-1.9272,-1.9324,-1.9872,-2.0447,-2.1078,0.0,0.0,0.0,-2.2603,-2.2603,-2.2603,-2.2603,-2.2603,-2.2603,-2.2603,-2.2603,-2.2695,-2.4205,-2.4884,-2.4992,-2.6572,-2.732,-2.732,-2.732,-2.732,-2.732,-2.732,-2.7357,-2.7441,-2.7809,-2.8034,-2.8128,-2.8585,-2.8631,-2.8269,-2.8538,-2.8828,-2.9035,-2.8943,-2.8932,-2.8967,-2.8956,-2.8956,-2.8956,-2.8956,-2.8956,-2.8956,-2.8956,-2.9642,-3.0982,-3.054,-3.0586,-3.148,-3.1002,-3.0443,-3.0067,-3.0864,-3.1662,-3.2171,-3.4874,-3.6522,-3.6511,-3.7566,-3.8214,-3.8214,-3.9067,-3.9584,-3.9685,-3.9597,-3.9597,-3.9685,-3.9697,-3.9697,-3.9697,-3.9697,-3.9697,-3.9697,-3.9697,-3.9697,-3.9697,-3.9697,-3.9697,-3.9697,-3.9697,-3.9697,-3.9697,-3.9697,-3.9697,-3.9697,-3.9697,-3.9697,-3.9697,-3.9697,-3.9697,-3.9697,-3.9697,-3.9697,-3.9697,-3.9697,-3.9697,-3.9697,-3.9697,-3.9697,-3.9697,-3.9697,-3.9735,-3.9823,-4.0626,-4.1326,-4.1489,-4.1842,-4.2061,-1.9272,-1.9272,-1.9272,-1.9272,-1.9324,-1.9879,-2.0652,-2.1623,-2.2182,-2.2544,-2.2603,-2.2603,-2.2603,-2.2603,-2.2603,-2.2603,-2.2603,-2.2603,-2.2603,-2.2695,-2.4156,-2.4884,-2.4992,-2.6572,-2.732,-2.732,-2.732,-2.732,-2.732,-2.732,-2.7478,-2.7857,-2.794,-2.8222,-2.8585,-2.9106,-2.9347,-2.9301,-2.8921,-2.9141,-2.9988,-2.9623,-2.9577,-2.9943,-2.9977,-2.9988,-2.9988,-2.9988,-2.9977,-2.9988,-2.9977,-3.0502,-3.1531,-3.0685,-3.0564,-3.1429,-3.0651,-3.0099,-3.0015,-3.0853,-3.2605,-3.5292,-3.683,-3.7672,-3.7725,-3.8764,-3.9478,-3.9453,-3.9168,-3.9182,-3.9584,-3.9283,-3.9233,-3.9622,-3.9697,-3.9697,-3.9697,-3.9697,-3.9697,-3.9697,-3.9697,-3.9697,-3.9697,-3.9697,-3.9697,-3.9697,-3.9697,-3.9697,-3.9697,-3.9697,-3.9697,-3.9697,-3.9697,-3.9697,-3.9697,-3.9697,-3.9697,-3.9697,-3.9697,-3.9697,-3.9697,-3.9697,-3.9697,-3.9697,-3.9697,-3.9697,-3.9697,-3.9697,-3.986,-4.0199,-4.0799,-4.143,-4.1831,-4.2195,-4.2344,-1.9272,-1.9272,-1.9272,-1.9272,-1.9383,-2.0197,-2.0806,-2.1326,-2.2241,-2.2603,-2.2603,-2.2603,-2.2603,-2.2603,-2.2603,-2.2603,-2.2603,-2.2603,-2.2603,-2.2695,-2.3728,-2.4452,-2.4992,-2.6081,-2.687,-2.7262,-2.732,-2.732,-2.732,-2.732,-2.7441,-2.7668,-2.8128,-2.8642,-2.9152,-2.9623,-2.9749,-2.9531,-2.952,-2.9749,-3.0159,-2.9977,-2.9988,-3.0216,-3.0216,-3.0216,-3.0216,-3.0216,-3.0216,-3.0216,-3.0216,-3.0553,-3.1219,-3.082,-3.0837,-3.1513,-3.0858,-3.0443,-3.0443,-3.1614,-3.3442,-3.5974,-3.6974,-3.779,-3.8374,-3.8913,-3.9245,-3.9245,-3.9057,-3.902,-3.9233,-3.9283,-3.9408,-3.9647,-3.9697,-3.9697,-3.9697,-3.9697,-3.9697,-3.9697,-3.9697,-3.9697,-3.9697,-3.9697,-3.9697,-3.9697,-3.9697,-3.9697,-3.9697,-3.9697,-3.9697,-3.9697,-3.9697,-3.9697,-3.9697,-3.9697,-3.9697,-3.9697,-3.9697,-3.9697,-3.9697,-3.9697,-3.9697,-3.9697,-3.9697,-3.9697,-3.9697,-3.9697,-3.9835,-4.0023,-4.0789,-4.1354,-4.1713,-4.2106,-4.2319,-1.9272,-1.9272,-1.9272,-1.9376,-1.9583,-2.0506,-2.0968,-2.1173,-2.219,-2.2603,-2.2603,-2.2603,-2.2603,-2.2603,-2.2603,-2.2603,-2.2603,-2.2603,-2.2603,-2.2695,-2.3338,-2.4115,-2.4943,-2.5742,-2.6534,-2.7214,-2.732,-2.732,-2.732,-2.732,-2.7394,-2.7668,-2.8456,-2.9106,-2.9485,-2.9852,-2.9852,-2.9531,-2.9954,-3.0216,-3.0216,-3.0216,-3.0216,-3.0216,-3.0216,-3.0216,-3.0216,-3.0216,-3.0216,-3.0193,-3.02,-3.046,-3.1001,-3.0981,-3.1116,-3.1502,-3.1105,-3.0984,-3.1375,-3.2534,-3.4218,-3.6244,-3.6951,-3.7706,-3.8554,-3.8555,-3.8605,-3.8655,-3.8668,-3.8705,-3.8957,-3.9233,-3.9559,-3.9672,-3.9697,-3.9697,-3.9697,-3.9697,-3.9697,-3.9697,-3.9697,-3.9697,-3.9697,-3.9697,-3.9697,-3.9697,-3.9697,-3.9697,-3.9697,-3.9697,-3.9697,-3.9697,-3.9697,-3.9697,-3.9697,-3.9697,-3.9697,-3.9697,-3.9697,-3.9697,-3.9697,-3.9697,-3.9697,-3.9697,-3.9697,-3.9697,-3.9697,-3.9697,-3.971,-3.9823,-4.0475,-4.1128,-4.1471,-4.2123,-4.2388,-1.9272,-1.9272,-1.9272,-1.9576,-2.0078,-2.066,-2.1173,-2.1683,-2.2333,-2.2603,-2.2603,-2.2603,-2.2603,-2.2603,-2.2603,-2.2603,-2.2603,-2.2603,-2.2603,-2.2695,-2.3338,-2.4125,-2.4894,-2.5693,-2.6534,-2.7214,-2.732,-2.732,-2.732,-2.732,-2.7715,-2.8538,-2.9152,-2.9393,-2.9485,-2.9531,-2.9531,-2.9531,-2.9943,-3.0216,-3.0216,-3.0216,-3.0216,-3.0216,-3.0216,-3.0216,-3.0216,-3.0216,-3.0216,-3.0216,-3.0211,-3.0602,-3.1445,-3.1189,-3.1116,-3.1534,-3.1105,-3.1397,-3.2743,-3.3499,-3.4836,-3.6777,-3.7512,-3.7879,-3.8065,-3.7638,-3.7575,-3.7965,-3.809,-3.8329,-3.8844,-3.8956,-3.9233,-3.9647,-3.9697,-3.9697,-3.9697,-3.9697,-3.9697,-3.9697,-3.9697,-3.9697,-3.9697,-3.9697,-3.9697,-3.9697,-3.9697,-3.9697,-3.9697,-3.9697,-3.9697,-3.9697,-3.9697,-3.9697,-3.9697,-3.9697,-3.9697,-3.9697,-3.9697,-3.9697,-3.9697,-3.9697,-3.9697,-3.9697,-3.9697,-3.9697,-3.9697,-3.9697,-3.9697,-3.9747,-4.0237,-4.0811,-4.1551,-4.23,-4.2631,-1.9272,-1.9272,-1.9272,-1.9628,-2.0138,-2.066,-2.1173,-2.1725,-2.2342,-2.2603,-2.2603,-2.2603,-2.2603,-2.2603,-2.2603,-2.2603,-2.2603,-2.2603,-2.2603,-2.2653,-2.2946,-2.3719,-2.4845,-2.5197,-2.6022,-2.7214,-2.732,-2.732,-2.732,-2.732,-2.7809,-2.8642,-2.8689,-2.8735,-2.9013,-2.9347,-2.9347,-2.9048,-2.9806,-3.0216,-3.0216,-3.0216,-3.0216,-3.0216,-3.0216,-3.0216,-3.0216,-3.0216,-3.0217,-3.0201,-3.0156,-3.0451,-3.1172,-3.1262,-3.1411,-3.1607,-3.171,-3.1994,-3.2599,-3.405,-3.5429,-3.6588,-3.7171,-3.7525,-3.75,-3.7059,-3.6923,-3.745,-3.7801,-3.8128,-3.8391,-3.8956,-3.9446,-3.9647,-3.9697,-3.9697,-3.9697,-3.9697,-3.9697,-3.9697,-3.9697,-3.9697,-3.9697,-3.9697,-3.9697,-3.9697,-3.9697,-3.9697,-3.9697,-3.9697,-3.9697,-3.9697,-3.9697,-3.9697,-3.9697,-3.9697,-3.9697,-3.9697,-3.9697,-3.9697,-3.9697,-3.9697,-3.9697,-3.9697,-3.9697,-3.9697,-3.9697,-3.9697,-3.9697,-3.9772,-4.0129,-4.0812,-4.1785,-4.2275,-4.2494,-1.9272,-1.9272,-1.9272,-1.9687,-2.0344,-2.0712,-2.1326,-2.1928,-2.2443,-2.2603,-2.2603,-2.2603,-2.2603,-2.2603,-2.2603,-2.2603,-2.2603,-2.2603,-2.2603,-2.2603,-2.2603,-2.3288,-2.451,-2.4796,-2.5635,-2.6822,-2.7214,-2.732,-2.7309,-2.7441,-2.7951,-2.8606,-2.8269,-2.8315,-2.8863,-2.9209,-2.9198,-2.9048,-2.9749,-3.0216,-3.0216,-3.0216,-3.0216,-3.0216,-3.0216,-3.0216,-3.0216,-3.0216,-3.0262,-3.0413,-3.0371,-3.064,-3.1263,-3.1519,-3.1516,-3.1414,-3.1902,-3.2367,-3.2731,-3.4427,-3.5742,-3.6439,-3.6873,-3.7008,-3.6945,-3.6631,-3.6681,-3.7149,-3.7688,-3.8052,-3.8341,-3.9107,-3.9659,-3.9697,-3.9697,-3.9697,-3.9697,-3.9697,-3.9697,-3.9697,-3.9697,-3.9697,-3.9697,-3.9697,-3.9697,-3.9697,-3.9697,-3.9697,-3.9697,-3.9697,-3.9697,-3.9697,-3.9697,-3.9697,-3.9697,-3.9697,-3.9697,-3.9697,-3.9697,-3.9697,-3.9697,-3.9697,-3.9697,-3.9697,-3.9697,-3.9697,-3.9697,-3.9697,-3.9697,-3.9786,-4.013,-4.0664,-4.1383,-4.1781,-4.2063,-1.9272,-1.9272,-1.9272,-1.9894,-2.0865,-2.0865,-2.153,-2.2493,-2.2594,-2.2603,-2.2603,-2.2603,-2.2603,-2.2603,-2.2603,-2.2603,-2.2603,-2.2603,-2.2603,-2.2603,-2.2603,-2.2987,-2.3777,-2.4559,-2.5343,-2.6294,-2.6965,-2.732,-2.7357,-2.7726,-2.8222,-2.8631,-2.8186,-2.8466,-2.9163,-2.8956,-2.9013,-2.9336,-2.9897,-3.0216,-3.0216,-3.0216,-3.0216,-3.0216,-3.0216,-3.0216,-3.0216,-3.0216,-3.0423,-3.095,-3.0872,-3.1296,-3.2222,-3.1873,-3.1414,-3.1043,-3.1381,-3.2345,-3.3735,-3.457,-3.5563,-3.6746,-3.6699,-3.6468,-3.6531,-3.6455,-3.6681,-3.7149,-3.7701,-3.8203,-3.8781,-3.9333,-3.9685,-3.9697,-3.9697,-3.9697,-3.9697,-3.9697,-3.9697,-3.9697,-3.9697,-3.9697,-3.9697,-3.9697,-3.9697,-3.9697,-3.9697,-3.9697,-3.9697,-3.9697,-3.9697,-3.9697,-3.9697,-3.9697,-3.9697,-3.9697,-3.9697,-3.9697,-3.9697,-3.9697,-3.9697,-3.9697,-3.9697,-3.9697,-3.9697,-3.9697,-3.9697,-3.9697,-3.9697,-3.9851,-4.0067,-4.0586,-4.093,-4.1128,-4.1426,-1.9272,-1.9272,-1.9272,-1.9946,-2.0865,-2.0925,-2.153,-2.2603,-2.2603,-2.2603,-2.2603,-2.2603,-2.2603,-2.2603,-2.2603,-2.2603,-2.2603,-2.2603,-2.2603,-2.2603,-2.2603,-2.2987,-2.3728,-2.451,-2.5343,-2.6139,-2.6918,-2.732,-2.7309,-2.7489,-2.7762,-2.8081,-2.7809,-2.7914,-2.8466,-2.8631,-2.8817,-2.9059,-2.9795,-3.0216,-3.0216,-3.0216,-3.0216,-3.0216,-3.0216,-3.0216,-3.0216,-3.0216,-3.0422,-3.0923,-3.0934,-3.1383,-3.2261,-3.1927,-3.168,-3.1863,-3.2348,-3.317,-3.4414,-3.5344,-3.604,-3.6561,-3.6531,-3.6417,-3.6417,-3.643,-3.6779,-3.752,-3.7838,-3.8379,-3.9182,-3.9584,-3.9697,-3.9697,-3.9697,-3.9697,-3.9697,-3.9697,-3.9697,-3.9697,-3.9697,-3.9697,-3.9697,-3.9697,-3.9697,-3.9697,-3.9697,-3.9697,-3.9697,-3.9697,-3.9697,-3.9697,-3.9697,-3.9697,-3.9697,-3.9697,-3.9697,-3.9697,-3.9697,-3.9697,-3.9697,-3.9697,-3.9697,-3.9697,-3.9697,-3.9697,-3.9697,-3.9697,-3.9697,-3.9774,-4.0042,-4.0179,-4.0438,-4.0636,-4.0924,-1.9272,-1.9272,-1.9272,-1.9946,-2.0873,-2.0925,-2.1581,-2.2552,-2.2603,-2.2603,-2.2603,-2.2603,-2.2603,-2.2603,-2.2603,-2.2603,-2.2603,-2.2603,-2.2603,-2.2603,-2.2603,-2.2837,-2.3429,-2.4402,-2.5187,-2.5839,-2.6812,-2.732,-2.732,-2.732,-2.7584,-2.7951,-2.7536,-2.7631,-2.8175,-2.8538,-2.8781,-2.9095,-2.9795,-3.0216,-3.0216,-3.0216,-3.0216,-3.0216,-3.0216,-3.0216,-3.0227,-3.0376,-3.0719,-3.1092,-3.1326,-3.1629,-3.2067,-3.1823,-3.1761,-3.2156,-3.2801,-3.3697,-3.4727,-3.5763,-3.6417,-3.6417,-3.6417,-3.6417,-3.6417,-3.6568,-3.7081,-3.777,-3.8202,-3.8705,-3.9421,-3.9697,-3.9697,-3.9697,-3.9697,-3.9697,-3.9697,-3.9697,-3.9697,-3.9697,-3.9697,-3.9697,-3.9697,-3.9697,-3.9697,-3.9697,-3.9697,-3.9697,-3.9697,-3.9697,-3.9697,-3.9697,-3.9697,-3.9697,-3.9697,-3.9697,-3.9697,-3.9697,-3.9697,-3.9697,-3.9697,-3.9697,-3.9697,-3.9697,-3.9697,-3.9697,-3.9697,-3.9697,-3.9697,-3.9697,-3.9786,-3.9925,-4.0099,-4.0185,-4.0423,-1.9272,-1.9272,-1.9272,-1.9894,-2.0822,-2.0925,-2.153,-2.2502,-2.2603,-2.2603,-2.2603,-2.2603,-2.2603,-2.2603,-2.2603,-2.2603,-2.2603,-2.2603,-2.2603,-2.2603,-2.2603,-2.2603,-2.2795,-2.4205,-2.505,-2.5333,-2.662,-2.7309,-2.732,-2.732,-2.7536,-2.7809,-2.7536,-2.7668,-2.8631,-2.8631,-2.8967,-2.9393,-2.9897,-3.0216,-3.0216,-3.0216,-3.0216,-3.0216,-3.0216,-3.0239,-3.0262,-3.0721,-3.1203,-3.1683,-3.2153,-3.2153,-3.1735,-3.1618,-3.1607,-3.1891,-3.265,-3.3697,-3.4824,-3.581,-3.6417,-3.6417,-3.6417,-3.6417,-3.648,-3.687,-3.7396,-3.7936,-3.8491,-3.9082,-3.9546,-3.9697,-3.9697,-3.9697,-3.9697,-3.9697,-3.9697,-3.9697,-3.9697,-3.9697,-3.9697,-3.9697,-3.9697,-3.9697,-3.9697,-3.9697,-3.9697,-3.9697,-3.9697,-3.9697,-3.9697,-3.9697,-3.9697,-3.9697,-3.9697,-3.9697,-3.9697,-3.9697,-3.9697,-3.9697,-3.9697,-3.9697,-3.9697,-3.9697,-3.9697,-3.9697,-3.9697,-3.9697,-3.9697,-3.9697,-3.971,-3.9722,-3.9848,-3.9909,-3.9885,-1.9272,-1.9272,-1.9272,-1.9946,-2.0873,-2.0925,-2.153,-2.2552,-2.2603,-2.2603,-2.2603,-2.2603,-2.2603,-2.2603,-2.2603,-2.2603,-2.2603,-2.2603,-2.2603,-2.2603,-2.2603,-2.2603,-2.2887,-2.4165,-2.5479,-2.6466,-2.7013,-2.732,-2.732,-2.732,-2.7404,-2.7441,-2.7394,-2.7441,-2.7809,-2.8362,-2.8828,-2.9082,-2.9806,-3.0216,-3.0216,-3.0216,-3.0216,-3.0216,-3.0216,-3.0376,-3.0744,-3.0928,-3.1249,-3.1731,-3.2225,-3.2214,-3.1713,-3.1567,-3.1953,-3.2661,-3.3001,-3.403,-3.5667,-3.6168,-3.6417,-3.6417,-3.6417,-3.6417,-3.6468,-3.6885,-3.7426,-3.7966,-3.8555,-3.9107,-3.9559,-3.9697,-3.9697,-3.9697,-3.9697,-3.9697,-3.9697,-3.9697,-3.9697,-3.9697,-3.9697,-3.9697,-3.9697,-3.9697,-3.9697,-3.9697,-3.9697,-3.9697,-3.9697,-3.9697,-3.9697,-3.9697,-3.9697,-3.9697,-3.9697,-3.9697,-3.9697,-3.9697,-3.9697,-3.9697,-3.9697,-3.9697,-3.9697,-3.9697,-3.9697,-3.9697,-3.9697,-3.9697,-3.9697,-3.9697,-3.971,-3.971,-3.9697,-3.9697,-3.9697,-1.9272,-1.9331,-1.9532,-2.0094,-2.0925,-2.1121,-2.1733,-2.2552,-2.2603,-2.2603,-2.2603,-2.2603,-2.2603,-2.2603,-2.2603,-2.2603,-2.2603,-2.2603,-2.2603,-2.2603,-2.2603,-2.2603,-2.2787,-2.4165,-2.5722,-2.7061,-2.732,-2.732,-2.7309,-2.7441,-2.7573,-2.7584,-2.7726,-2.7715,-2.7678,-2.8502,-2.8921,-2.8921,-2.9703,-3.0216,-3.0216,-3.0216,-3.0216,-3.025,-3.0411,-3.0675,-3.1019,-3.1341,-3.1697,-3.2041,-3.25,-3.2379,-3.1699,-3.1618,-3.2066,-3.2951,-3.335,-3.4129,-3.6061,-3.637,-3.6417,-3.6417,-3.6417,-3.6508,-3.6747,-3.7163,-3.7741,-3.8303,-3.8867,-3.932,-3.9622,-3.9697,-3.9697,-3.9697,-3.9697,-3.9697,-3.9697,-3.9697,-3.9697,-3.9697,-3.9697,-3.9697,-3.9697,-3.9697,-3.9697,-3.9697,-3.9697,-3.9697,-3.9697,-3.9697,-3.9697,-3.9697,-3.9697,-3.9697,-3.9697,-3.9697,-3.9697,-3.9697,-3.9697,-3.9697,-3.9697,-3.9697,-3.9697,-3.9697,-3.9697,-3.9697,-3.9697,-3.9697,-3.9697,-3.9697,-3.9697,-3.9697,-3.9697,-3.9697,-3.9697,-1.9272,-1.9376,-1.9828,-2.0344,-2.0925,-2.1369,-2.1928,-2.2544,-2.2603,-2.2603,-2.2603,-2.2603,-2.2603,-2.2603,-2.2603,-2.2603,-2.2603,-2.2603,-2.2603,-2.2603,-2.2603,-2.2644,-2.2987,-2.4264,-2.5674,-2.6918,-2.7262,-2.732,-2.7299,-2.7715,-2.7987,-2.7987,-2.8315,-2.8445,-2.8269,-2.9013,-2.9198,-2.9013,-2.9749,-3.0216,-3.0216,-3.0216,-3.0216,-3.0239,-3.064,-3.1008,-3.1226,-3.1972,-3.2489,-3.2592,-3.307,-3.2889,-3.1975,-3.1721,-3.2409,-3.3338,-3.335,-3.4434,-3.5918,-3.6417,-3.6417,-3.6417,-3.6443,-3.6646,-3.7089,-3.7589,-3.8141,-3.8751,-3.9292,-3.9647,-3.9685,-3.9697,-3.9697,-3.9697,-3.9697,-3.9697,-3.9697,-3.9697,-3.9697,-3.9697,-3.9697,-3.9697,-3.9697,-3.9697,-3.9697,-3.9697,-3.9697,-3.9697,-3.9697,-3.9697,-3.9697,-3.9697,-3.9697,-3.9697,-3.9697,-3.9697,-3.9697,-3.9697,-3.9697,-3.9697,-3.9697,-3.9697,-3.9697,-3.9697,-3.9697,-3.9697,-3.9697,-3.9697,-3.9697,-3.9697,-3.9697,-3.9697,-3.9697,-3.9697,-3.9697,-1.9272,-1.9324,-1.948,-2.0042,-2.0873,-2.107,-2.1683,-2.2552,-2.2603,-2.2603,-2.2603,-2.2603,-2.2603,-2.2603,-2.2603,-2.2603,-2.2603,-2.2603,-2.2603,-2.2603,-2.2603,-2.2946,-2.3479,-2.4412,-2.5441,-2.6438,-2.7061,-2.732,-2.7357,-2.7809,-2.8034,-2.7987,-2.8549,-2.8678,-2.8631,-2.9198,-2.9439,-2.9393,-2.984,-3.0216,-3.0216,-3.0216,-3.0216,-3.0262,-3.0744,-3.1215,-3.1605,-3.2535,-3.3074,-3.3124,-3.3737,-3.3709,-3.2901,-3.3239,-3.3735,-3.4129,-3.4374,-3.4921,-3.6061,-3.6417,-3.6417,-3.6417,-3.6455,-3.6634,-3.715,-3.7713,-3.8241,-3.883,-3.9396,-3.9697,-3.9697,-3.9697,-3.9697,-3.9697,-3.9697,-3.9697,-3.9697,-3.9697,-3.9697,-3.9697,-3.9697,-3.9697,-3.9697,-3.9697,-3.9697,-3.9697,-3.9697,-3.9697,-3.9697,-3.9697,-3.9697,-3.9697,-3.9697,-3.9697,-3.9697,-3.9697,-3.9697,-3.9697,-3.9697,-3.9697,-3.9697,-3.9697,-3.9697,-3.9697,-3.9697,-3.9697,-3.9697,-3.9697,-3.9697,-3.9697,-3.9697,-3.9697,-3.9697,-3.9697,-3.9697,-1.9272,-1.9331,-1.9524,-2.0145,-2.0873,-2.1113,-2.1733,-2.2502,-2.2603,-2.2603,-2.2603,-2.2603,-2.2603,-2.2603,-2.2603,-2.2603,-2.2603,-2.2603,-2.2603,-2.2603,-2.2603,-2.3188,-2.4057,-2.4747,-2.5489,-2.6582,-2.7061,-2.7394,-2.7678,-2.8092,-2.8362,-2.8735,-2.9106,-2.9244,-2.9048,-2.952,-2.9669,-2.9623,-2.9943,-3.0216,-3.0216,-3.0216,-3.0388,-3.0583,-3.1065,-3.1628,-3.2363,-3.2982,-3.3431,-3.3744,-3.4152,-3.4178,-3.3796,-3.4129,-3.4532,-3.4775,-3.4775,-3.5271,-3.6156,-3.6417,-3.6417,-3.6468,-3.6581,-3.6973,-3.75,-3.804,-3.8605,-3.9195,-3.9534,-3.9659,-3.9697,-3.9697,-3.9697,-3.9697,-3.9697,-3.9697,-3.9697,-3.9697,-3.9697,-3.9697,-3.9697,-3.9697,-3.9697,-3.9697,-3.9697,-3.9697,-3.9697,-3.9697,-3.9697,-3.9697,-3.9697,-3.9697,-3.9697,-3.9697,-3.9697,-3.9697,-3.9697,-3.9697,-3.9697,-3.9697,-3.9697,-3.9697,-3.9697,-3.9697,-3.9697,-3.9697,-3.9697,-3.9697,-3.9697,-3.9697,-3.9697,-3.9697,-3.9697,-3.9697,-3.9697,-1.9272,-1.9376,-1.9835,-2.0344,-2.0917,-2.1428,-2.1937,-2.2544,-2.2603,-2.2603,-2.2603,-2.2603,-2.2603,-2.2603,-2.2603,-2.2603,-2.2603,-2.2603,-2.2603,-2.2603,-2.2745,-2.3329,-2.4648,-2.4845,-2.5722,-2.6907,-2.7262,-2.762,-2.8034,-2.8491,-2.8967,-2.9347,-2.9852,-2.9943,-2.9715,-2.9943,-2.9943,-2.976,-2.9988,-3.0216,-3.0216,-3.0239,-3.0445,-3.0939,-3.1547,-3.2248,-3.2914,-3.3331,-3.3656,-3.4495,-3.4532,-3.4581,-3.4593,-3.4629,-3.4824,-3.5078,-3.5223,-3.5559,-3.6216,-3.6417,-3.6417,-3.648,-3.6895,-3.7412,-3.7902,-3.8442,-3.9007,-3.9546,-3.9685,-3.9697,-3.9697,-3.9697,-3.9697,-3.9697,-3.9697,-3.9697,-3.9697,-3.9697,-3.9697,-3.9697,-3.9697,-3.9697,-3.9697,-3.9697,-3.9697,-3.9697,-3.9697,-3.9697,-3.9697,-3.9697,-3.9697,-3.9697,-3.9697,-3.9697,-3.9697,-3.9697,-3.9697,-3.9697,-3.9697,-3.9697,-3.9697,-3.9697,-3.9697,-3.9697,-3.9697,-3.9697,-3.9697,-3.9697,-3.9697,-3.9697,-3.9697,-3.9697,-3.9697,-3.9697,-3.9697,-1.9272,-1.9279,-1.9428,-2.0042,-2.0814,-2.1019,-2.1683,-2.2603,-2.2603,-2.2603,-2.2603,-2.2603,-2.2603,-2.2603,-2.2603,-2.2603,-2.2603,-2.2603,-2.2603,-2.2603,-2.2603,-2.3479,-2.4639,-2.4884,-2.5674,-2.6754,-2.7204,-2.7762,-2.8398,-2.8724,-2.9013,-2.9531,-2.9943,-3.017,-3.008,-3.0125,-3.0159,-3.008,-3.017,-3.0216,-3.0227,-3.0273,-3.0537,-3.11,-3.1903,-3.2615,-3.3132,-3.3281,-3.3953,-3.4993,-3.5331,-3.5331,-3.5715,-3.6298,-3.6392,-3.6061,-3.6143,-3.6285,-3.6405,-3.6417,-3.643,-3.6518,-3.6983,-3.7425,-3.7965,-3.863,-3.912,-3.9559,-3.9697,-3.9697,-3.9697,-3.9697,-3.9697,-3.9697,-3.9697,-3.9697,-3.9697,-3.9697,-3.9697,-3.9697,-3.9697,-3.9697,-3.9697,-3.9697,-3.9697,-3.9697,-3.9697,-3.9697,-3.9697,-3.9697,-3.9697,-3.9697,-3.9697,-3.9697,-3.9697,-3.9697,-3.9697,-3.9697,-3.9697,-3.9697,-3.9697,-3.9697,-3.9697,-3.9697,-3.9697,-3.9697,-3.9697,-3.9697,-3.9697,-3.9697,-3.9697,-3.9697,-3.9697,-3.9697,-3.9697,-1.9272,-1.9272,-1.9272,-1.9946,-2.0814,-2.0925,-2.1538,-2.2451,-2.2603,-2.2603,-2.2603,-2.2603,-2.2603,-2.2603,-2.2603,-2.2603,-2.2603,-2.2603,-2.2603,-2.2603,-2.2653,-2.3479,-2.4639,-2.508,-2.5674,-2.7125,-2.7573,-2.8175,-2.8828,-2.9106,-2.9382,-2.9806,-3.008,-3.017,-3.0216,-3.0216,-3.0216,-3.0216,-3.0216,-3.0216,-3.0227,-3.048,-3.0996,-3.1662,-3.2443,-3.3028,-3.3258,-3.3281,-3.3904,-3.4799,-3.5427,-3.5966,-3.6593,-3.7168,-3.7134,-3.6734,-3.6628,-3.6568,-3.6452,-3.643,-3.6531,-3.6782,-3.7249,-3.7814,-3.8366,-3.8931,-3.9333,-3.9609,-3.9697,-3.9697,-3.9697,-3.9697,-3.9697,-3.9697,-3.9697,-3.9697,-3.9697,-3.9697,-3.9697,-3.9697,-3.9697,-3.9697,-3.9697,-3.9697,-3.9697,-3.9697,-3.9697,-3.9697,-3.9697,-3.9697,-3.9697,-3.9697,-3.9697,-3.9697,-3.9697,-3.9697,-3.9697,-3.9697,-3.9697,-3.9697,-3.9697,-3.9697,-3.9697,-3.9697,-3.9697,-3.9697,-3.9697,-3.9697,-3.9697,-3.9697,-3.9697,-3.9697,-3.9697,-3.9697,-3.9697,-1.9272,-1.9272,-1.9272,-1.9894,-2.0814,-2.0925,-2.153,-2.2502,-2.2603,-2.2603,-2.2603,-2.2603,-2.2603,-2.2603,-2.2603,-2.2603,-2.2603,-2.2603,-2.2603,-2.2603,-2.2603,-2.3529,-2.4599,-2.5178,-2.6099,-2.7893,-2.7998,-2.8549,-2.9301,-2.9577,-2.9658,-3.008,-3.017,-3.0216,-3.0216,-3.0216,-3.0216,-3.0216,-3.0216,-3.0216,-3.0308,-3.0709,-3.1421,-3.2271,-3.2879,-3.3201,-3.3281,-3.3331,-3.3645,-3.4397,-3.5187,-3.6191,-3.7062,-3.7505,-3.7261,-3.6756,-3.6756,-3.6675,-3.6452,-3.6443,-3.6631,-3.7149,-3.7676,-3.8241,-3.8781,-3.9258,-3.9572,-3.9659,-3.9697,-3.9697,-3.9697,-3.9697,-3.9697,-3.9697,-3.9697,-3.9697,-3.9697,-3.9697,-3.9697,-3.9697,-3.9697,-3.9697,-3.9697,-3.9697,-3.9697,-3.9697,-3.9697,-3.9697,-3.9697,-3.9697,-3.9697,-3.9697,-3.9697,-3.9697,-3.9697,-3.9697,-3.9697,-3.9697,-3.9697,-3.9697,-3.9697,-3.9697,-3.9697,-3.9697,-3.9697,-3.9697,-3.9697,-3.9697,-3.9697,-3.9697,-3.9697,-3.9697,-3.9697,-3.9697,-3.9697,-1.9272,-1.9272,-1.9272,-1.9946,-2.0822,-2.0925,-2.1581,-2.2502,-2.2603,-2.2603,-2.2603,-2.2603,-2.2603,-2.2603,-2.2603,-2.2603,-2.2603,-2.2603,-2.2603,-2.2603,-2.2644,-2.3429,-2.4698,-2.5373,-2.6607,-2.7966,-2.8362,-2.8828,-2.9669,-2.9749,-2.9806,-3.0125,-3.0216,-3.0216,-3.0216,-3.0216,-3.0216,-3.0216,-3.0216,-3.0227,-3.0411,-3.0905,-3.1593,-3.2489,-3.3051,-3.3247,-3.3281,-3.3331,-3.3645,-3.4385,-3.5174,-3.6001,-3.6769,-3.74,-3.74,-3.6968,-3.6922,-3.6828,-3.6499,-3.6455,-3.6707,-3.7149,-3.7751,-3.8291,-3.8856,-3.9358,-3.9647,-3.9697,-3.9697,-3.9697,-3.9697,-3.9697,-3.9697,-3.9697,-3.9697,-3.9697,-3.9697,-3.9697,-3.9697,-3.9697,-3.9697,-3.9697,-3.9697,-3.9697,-3.9697,-3.9697,-3.9697,-3.9697,-3.9697,-3.9697,-3.9697,-3.9697,-3.9697,-3.9697,-3.9697,-3.9697,-3.9697,-3.9697,-3.9697,-3.9697,-3.9697,-3.9697,-3.9697,-3.9697,-3.9697,-3.9697,-3.9697,-3.9697,-3.9697,-3.9697,-3.9697,-3.9697,-3.9697,-3.9697,-3.9697,-1.9272,-1.9324,-1.9576,-2.0145,-2.0865,-2.1216,-2.1776,-2.2552,-2.2603,-2.2603,-2.2603,-2.2603,-2.2603,-2.2603,-2.2603,-2.2603,-2.2603,-2.2603,-2.2603,-2.2603,-2.2695,-2.3429,-2.4835,-2.547,-2.6904,-2.8247,-2.8781,-2.9198,-3.0068,-2.9988,-2.9988,-3.0125,-3.0216,-3.0216,-3.0216,-3.0216,-3.0216,-3.0216,-3.0227,-3.0365,-3.0686,-3.1329,-3.2156,-3.2753,-3.3097,-3.3269,-3.3281,-3.3281,-3.3419,-3.3941,-3.4945,-3.5667,-3.6345,-3.7074,-3.7564,-3.7062,-3.7015,-3.6875,-3.6587,-3.6644,-3.7061,-3.7588,-3.8115,-3.8693,-3.9157,-3.9546,-3.9685,-3.9697,-3.9697,-3.9697,-3.9697,-3.9697,-3.9697,-3.9697,-3.9697,-3.9697,-3.9697,-3.9697,-3.9697,-3.9697,-3.9697,-3.9697,-3.9697,-3.9697,-3.9697,-3.9697,-3.9697,-3.9697,-3.9697,-3.9697,-3.9697,-3.9697,-3.9697,-3.9697,-3.9697,-3.9697,-3.9697,-3.9697,-3.9697,-3.9697,-3.9697,-3.9697,-3.9697,-3.9697,-3.9697,-3.9697,-3.9697,-3.9697,-3.9697,-3.9697,-3.9697,-3.9697,-3.9697,-3.9697,-3.9697,-1.9272,-1.9331,-1.9887,-2.0395,-2.0917,-2.1479,-2.203,-2.2552,-2.2603,-2.2603,-2.2603,-2.2603,-2.2603,-2.2603,-2.2603,-2.2603,-2.2603,-2.2603,-2.2603,-2.2644,-2.2846,-2.3619,-2.4688,-2.5751,-2.6952,-2.8527,-2.9152,-2.976,-3.0125,-3.017,-3.0216,-3.0216,-3.0216,-3.0216,-3.0216,-3.0216,-3.0216,-3.0216,-3.0239,-3.0514,-3.1226,-3.2007,-3.2741,-3.3224,-3.3281,-3.3281,-3.3281,-3.3519,-3.3607,-3.404,-3.4811,-3.5702,-3.6001,-3.6968,-3.7459,-3.7168,-3.7108,-3.6875,-3.672,-3.6908,-3.7337,-3.7877,-3.8504,-3.9082,-3.9509,-3.9647,-3.9697,-3.9697,-3.9697,-3.9697,-3.9697,-3.9697,-3.9697,-3.9697,-3.9697,-3.9697,-3.9697,-3.9697,-3.9697,-3.9697,-3.9697,-3.9697,-3.9697,-3.9697,-3.9697,-3.9697,-3.9697,-3.9697,-3.9697,-3.9697,-3.9697,-3.9697,-3.9697,-3.9697,-3.9697,-3.9697,-3.9697,-3.9697,-3.9697,-3.9697,-3.9697,-3.9697,-3.9697,-3.9697,-3.9697,-3.9697,-3.9697,-3.9697,-3.9697,-3.9697,-3.9697,-3.9697,-3.9697,-3.9697,-3.9697,-1.9272,-1.9324,-1.9887,-2.0395,-2.0976,-2.1522,-2.2038,-2.2603,-2.2603,-2.2603,-2.2603,-2.2603,-2.2603,-2.2603,-2.2603,-2.2603,-2.2603,-2.2603,-2.2603,-2.2644,-2.3188,-2.3917,-2.4982,-2.6147,-2.7295,-2.8631,-2.929,-2.976,-3.008,-3.0216,-3.0216,-3.0216,-3.0216,-3.0216,-3.0216,-3.0216,-3.0216,-3.0216,-3.025,-3.0709,-3.15,-3.2213,-3.2787,-3.3143,-3.3281,-3.3381,-3.3469,-3.388,-3.4164,-3.4397,-3.5126,-3.5893,-3.6427,-3.6675,-3.6956,-3.7062,-3.7062,-3.6968,-3.6814,-3.7056,-3.7525,-3.809,-3.8617,-3.912,-3.9521,-3.9697,-3.9697,-3.9697,-3.9697,-3.9697,-3.9697,-3.9697,-3.9697,-3.9697,-3.9697,-3.9697,-3.9697,-3.9697,-3.9697,-3.9697,-3.9697,-3.9697,-3.9697,-3.9697,-3.9697,-3.9697,-3.9697,-3.9697,-3.9697,-3.9697,-3.9697,-3.9697,-3.9697,-3.9697,-3.9697,-3.9697,-3.9697,-3.9697,-3.9697,-3.9697,-3.9697,-3.9697,-3.9697,-3.9697,-3.9697,-3.9697,-3.9697,-3.9697,-3.9697,-3.9697,-3.9697,-3.9697,-3.9697,-3.9697,-3.9697,-1.9272,-1.9383,-2.0205,-2.066,-2.1019,-2.1827,-2.2342,-2.2552,-2.2603,-2.2603,-2.2603,-2.2603,-2.2603,-2.2603,-2.2603,-2.2603,-2.2603,-2.2603,-2.2603,-2.2795,-2.3388,-2.4165,-2.5138,-2.6484,-2.7825,-2.8667,-2.9417,-2.9943,-3.017,-3.0216,-3.0216,-3.0216,-3.0216,-3.0216,-3.0216,-3.0216,-3.0216,-3.0376,-3.0767,-3.1295,-3.1846,-3.2489,-3.304,-3.3269,-3.3281,-3.3507,-3.3918,-3.4152,-3.4678,-3.5066,-3.5798,-3.6332,-3.6769,-3.7108,-3.7459,-3.7505,-3.7413,-3.7228,-3.7074,-3.7434,-3.7864,-3.8442,-3.8981,-3.9446,-3.9659,-3.9697,-3.9697,-3.9697,-3.9697,-3.9697,-3.9697,-3.9697,-3.9697,-3.9697,-3.9697,-3.9697,-3.9697,-3.9697,-3.9697,-3.9697,-3.9697,-3.9697,-3.9697,-3.9697,-3.9697,-3.9697,-3.9697,-3.9697,-3.9697,-3.9697,-3.9697,-3.9697,-3.9697,-3.9697,-3.9697,-3.9697,-3.9697,-3.9697,-3.9697,-3.9697,-3.9697,-3.9697,-3.9697,-3.9697,-3.9697,-3.9697,-3.9697,-3.9697,-3.9697,-3.9697,-3.9697,-3.9697,-3.9697,-3.9697,-3.9697,-1.9272,-1.9383,-2.0462,-2.0925,-2.1019,-2.2139,-2.2603,-2.2603,-2.2603,-2.2603,-2.2603,-2.2603,-2.2603,-2.2603,-2.2603,-2.2603,-2.2603,-2.2603,-2.2603,-2.2896,-2.3569,-2.4402,-2.547,-2.6819,-2.8117,-2.891,-2.952,-2.9988,-3.017,-3.0216,-3.0216,-3.0216,-3.0216,-3.0216,-3.0216,-3.0239,-3.0273,-3.056,-3.126,-3.1779,-3.2147,-3.281,-3.3155,-3.3281,-3.3381,-3.3645,-3.4288,-3.4678,-3.5126,-3.5846,-3.6285,-3.6722,-3.7108,-3.7261,-3.7505,-3.7616,-3.7648,-3.7801,-3.7782,-3.796,-3.839,-3.8881,-3.9333,-3.9634,-3.9672,-3.9697,-3.9697,-3.9697,-3.9697,-3.9697,-3.9697,-3.9697,-3.9697,-3.9697,-3.9697,-3.9697,-3.9697,-3.9697,-3.9697,-3.9697,-3.9697,-3.9697,-3.9697,-3.9697,-3.9697,-3.9697,-3.9697,-3.9697,-3.9697,-3.9697,-3.9697,-3.9697,-3.9697,-3.9697,-3.9697,-3.9697,-3.9697,-3.9697,-3.9697,-3.9697,-3.9697,-3.9697,-3.9697,-3.9697,-3.9697,-3.9697,-3.9697,-3.9697,-3.9697,-3.9697,-3.9697,-3.9697,-3.9697,-3.9697,-3.9697,-1.9272,-1.9376,-2.0462,-2.0925,-2.0968,-2.2089,-2.2603,-2.2603,-2.2603,-2.2603,-2.2603,-2.2603,-2.2603,-2.2603,-2.2603,-2.2603,-2.2603,-2.2603,-2.2603,-2.3088,-2.4016,-2.4924,-2.5945,-2.7115,-2.8456,-2.9244,-2.9715,-2.9943,-3.0125,-3.0216,-3.0216,-3.0216,-3.0216,-3.0216,-3.0216,-3.0227,-3.048,-3.0836,-3.1479,-3.1984,-3.2386,-3.2937,-3.3258,-3.3281,-3.3331,-3.3656,-3.4397,-3.503,-3.581,-3.6534,-3.6769,-3.7108,-3.7459,-3.7307,-3.7413,-3.7629,-3.8039,-3.8243,-3.8457,-3.847,-3.859,-3.8944,-3.9333,-3.9697,-3.9697,-3.9697,-3.9697,-3.9697,-3.9697,-3.9697,-3.9697,-3.9697,-3.9697,-3.9697,-3.9697,-3.9697,-3.9697,-3.9697,-3.9697,-3.9697,-3.9697,-3.9697,-3.9697,-3.9697,-3.9697,-3.9697,-3.9697,-3.9697,-3.9697,-3.9697,-3.9697,-3.9697,-3.9697,-3.9697,-3.9697,-3.9697,-3.9697,-3.9697,-3.9697,-3.9697,-3.9697,-3.9697,-3.9697,-3.9697,-3.9697,-3.9697,-3.9697,-3.9697,-3.9697,-3.9697,-3.9697,-3.9697,-3.9697,-3.9697,-3.9697,-1.9272,-1.9376,-2.0462,-2.0925,-2.0968,-2.2148,-2.2603,-2.2603,-2.2603,-2.2603,-2.2603,-2.2603,-2.2603,-2.2603,-2.2603,-2.2603,-2.2603,-2.2603,-2.2603,-2.3138,-2.4057,-2.508,-2.6137,-2.7426,-2.8817,-2.9428,-2.976,-2.9988,-3.017,-3.0216,-3.0216,-3.0216,-3.0216,-3.0216,-3.0216,-3.025,-3.0549,-3.1019,-3.1525,-3.2043,-3.2489,-3.2982,-3.3281,-3.3281,-3.3281,-3.3991,-3.4993,-3.5379,-3.631,-3.7028,-3.7307,-3.7551,-3.7795,-3.7505,-3.7505,-3.7781,-3.8262,-3.8726,-3.8981,-3.8998,-3.9108,-3.9334,-3.9572,-3.9697,-3.9697,-3.9697,-3.9697,-3.9697,-3.9697,-3.9697,-3.9697,-3.9697,-3.9697,-3.9697,-3.9697,-3.9697,-3.9697,-3.9697,-3.9697,-3.9697,-3.9697,-3.9697,-3.9697,-3.9697,-3.9697,-3.9697,-3.9697,-3.9697,-3.9697,-3.9697,-3.9697,-3.9697,-3.9697,-3.9697,-3.9697,-3.9697,-3.9697,-3.9697,-3.9697,-3.9697,-3.9697,-3.9697,-3.9697,-3.9697,-3.9697,-3.9697,-3.9697,-3.9697,-3.9697,-3.9697,-3.9697,-3.9697,-3.9697,-3.9697,-3.9697,-1.9428,-1.9628,-2.0344,-2.0763,-2.1019,-2.2139,-2.2603,-2.2603,-2.2603,-2.2603,-2.2603,-2.2603,-2.2603,-2.2603,-2.2603,-2.2603,-2.2603,-2.2603,-2.2603,-2.3188,-2.4106,-2.5168,-2.6368,-2.7662,-2.9059,-2.9623,-2.9988,-3.0216,-3.0216,-3.0216,-3.0216,-3.0216,-3.0216,-3.0216,-3.0216,-3.025,-3.0537,-3.1169,-3.1559,-3.2193,-3.2684,-3.3063,-3.3281,-3.3281,-3.3281,-3.3854,-3.4751,-3.5174,-3.5953,-3.6875,-3.7413,-3.7598,-3.7795,-3.79,-3.79,-3.8122,-3.8566,-3.906,-3.9301,-3.948,-3.9563,-3.9623,-3.9647,-3.9697,-3.9697,-3.9697,-3.9697,-3.9697,-3.9697,-3.9697,-3.9697,-3.9697,-3.9697,-3.9697,-3.9697,-3.9697,-3.9697,-3.9697,-3.9697,-3.9697,-3.9697,-3.9697,-3.9697,-3.9697,-3.9697,-3.9697,-3.9697,-3.9697,-3.9697,-3.9697,-3.9697,-3.9697,-3.9697,-3.9697,-3.9697,-3.9697,-3.9697,-3.9697,-3.9697,-3.9697,-3.9697,-3.9697,-3.9697,-3.9697,-3.9697,-3.9697,-3.9697,-3.9697,-3.9697,-3.9697,-3.9697,-3.9697,-3.9697,-3.9697,-3.9697,-1.9583,-2.0086,-2.0138,-2.0454,-2.107,-2.2089,-2.2594,-2.2603,-2.2603,-2.2603,-2.2603,-2.2603,-2.2603,-2.2603,-2.2603,-2.2603,-2.2603,-2.2603,-2.2653,-2.3138,-2.4205,-2.5353,-2.6655,-2.8002,-2.9209,-2.9988,-3.0216,-3.0216,-3.0216,-3.0216,-3.0216,-3.0216,-3.0216,-3.0216,-3.0216,-3.0227,-3.0698,-3.1523,-3.1731,-3.2423,-3.2982,-3.3235,-3.3269,-3.3281,-3.3281,-3.3805,-3.4446,-3.4678,-3.5415,-3.6427,-3.6722,-3.7015,-3.7598,-3.7703,-3.7749,-3.7965,-3.8958,-3.9473,-3.9646,-3.9902,-3.9892,-3.9724,-3.9697,-3.9697,-3.9697,-3.9697,-3.9697,-3.9697,-3.9697,-3.9697,-3.9697,-3.9697,-3.9697,-3.9697,-3.9697,-3.9697,-3.9697,-3.9697,-3.9697,-3.9697,-3.9697,-3.9697,-3.9697,-3.9697,-3.9697,-3.9697,-3.9697,-3.9697,-3.9697,-3.9697,-3.9697,-3.9697,-3.9697,-3.9697,-3.9697,-3.9697,-3.9697,-3.9697,-3.9697,-3.9697,-3.9697,-3.9697,-3.9697,-3.9697,-3.9697,-3.9697,-3.9697,-3.9697,-3.9697,-3.9697,-3.9697,-3.9697,-3.9697,-3.9697,-3.9697,-1.9628,-2.013,-2.0498,-2.0917,-2.1471,-2.1827,-2.2241,-2.2552,-2.2603,-2.2603,-2.2603,-2.2603,-2.2603,-2.2603,-2.2603,-2.2603,-2.2603,-2.2644,-2.2695,-2.3429,-2.4501,-2.58,-2.7094,-2.8247,-2.9301,-2.9988,-3.0216,-3.0216,-3.0216,-3.0216,-3.0216,-3.0216,-3.0216,-3.0216,-3.0331,-3.0537,-3.1134,-3.1708,-3.2099,-3.2592,-3.3201,-3.3281,-3.3281,-3.3281,-3.3281,-3.3656,-3.425,-3.4299,-3.4872,-3.5798,-3.5941,-3.6332,-3.6968,-3.7108,-3.7413,-3.7937,-3.8937,-3.9797,-4.0031,-4.0274,-4.0109,-3.989,-3.9697,-3.9697,-3.9697,-3.9697,-3.9697,-3.9697,-3.9697,-3.9697,-3.9697,-3.9697,-3.9697,-3.9697,-3.9697,-3.9697,-3.9697,-3.9697,-3.9697,-3.9697,-3.9697,-3.9697,-3.9697,-3.9697,-3.9697,-3.9697,-3.9697,-3.9697,-3.9697,-3.9697,-3.9697,-3.9697,-3.9697,-3.9697,-3.9697,-3.9697,-3.9697,-3.9697,-3.9697,-3.9697,-3.9697,-3.9697,-3.9697,-3.9697,-3.9697,-3.9697,-3.9697,-3.9697,-3.9697,-3.9697,-3.9697,-3.9697,-3.9697,-3.9697,-3.9697,-1.9556,-2.0209,-2.0581,-2.1212,-2.192,-2.203,-2.2241,-2.2603,-2.2603,-2.2603,-2.2603,-2.2603,-2.2603,-2.2603,-2.2603,-2.2603,-2.2653,-2.2946,-2.3088,-2.3877,-2.5089,-2.6292,-2.7494,-2.8585,-2.9428,-3.0034,-3.0216,-3.0216,-3.0216,-3.0216,-3.0216,-3.0216,-3.0216,-3.0216,-3.0365,-3.0721,-3.1237,-3.1754,-3.2202,-3.2707,-3.312,-3.3281,-3.3281,-3.3281,-3.3331,-3.3507,-3.388,-3.4115,-3.4348,-3.4933,-3.5271,-3.5571,-3.6096,-3.6628,-3.6922,-3.7663,-3.883,-3.9754,-4.0296,-4.0453,-4.0198,-3.9749,-3.9697,-3.9697,-3.9697,-3.9697,-3.9697,-3.9697,-3.9697,-3.9697,-3.9697,-3.9697,-3.9697,-3.9697,-3.9697,-3.9697,-3.9697,-3.9697,-3.9697,-3.9697,-3.9697,-3.9697,-3.9697,-3.9697,-3.9697,-3.9697,-3.9697,-3.9697,-3.9697,-3.9697,-3.9697,-3.9697,-3.9697,-3.9697,-3.9697,-3.9697,-3.9697,-3.9697,-3.9697,-3.9697,-3.9697,-3.9697,-3.9697,-3.9697,-3.9697,-3.9697,-3.9697,-3.9697,-3.9697,-3.9697,-3.9697,-3.9697,-3.9697,-3.9697,-3.9697,-1.9532,-2.0303,-2.0311,-2.117,-2.2433,-2.2526,-2.2594,-2.2603,-2.2603,-2.2603,-2.2603,-2.2603,-2.2603,-2.2603,-2.2603,-2.2703,-2.2846,-2.3388,-2.3786,-2.4412,-2.5771,-2.6877,-2.7872,-2.8874,-2.9623,-3.0034,-3.0216,-3.0216,-3.0216,-3.0216,-3.0216,-3.0216,-3.0216,-3.0285,-3.0491,-3.0893,-3.1364,-3.18,-3.2386,-3.2845,-3.3212,-3.3281,-3.3281,-3.3281,-3.3331,-3.3331,-3.3469,-3.3519,-3.3843,-3.4164,-3.4397,-3.4872,-3.5451,-3.6238,-3.6487,-3.7291,-3.8748,-3.9558,-4.0361,-4.0491,-4.0198,-3.9788,-3.9697,-3.9697,-3.9697,-3.9697,-3.9697,-3.9697,-3.9697,-3.9697,-3.9697,-3.9697,-3.9697,-3.9697,-3.9697,-3.9697,-3.9697,-3.9697,-3.9697,-3.9697,-3.9697,-3.9697,-3.9697,-3.9697,-3.9697,-3.9697,-3.9697,-3.9697,-3.9697,-3.9697,-3.9697,-3.9697,-3.9697,-3.9697,-3.9697,-3.9697,-3.9697,-3.9697,-3.9697,-3.9697,-3.9697,-3.9697,-3.9697,-3.9697,-3.9697,-3.9697,-3.9697,-3.9697,-3.9697,-3.9697,-3.9697,-3.9697,-3.9697,-3.9697,-3.9697,-1.9434,-2.0068,-2.0411,-2.1163,-2.2117,-2.2491,-2.2603,-2.2603,-2.2603,-2.2603,-2.2603,-2.2603,-2.2603,-2.2603,-2.2603,-2.2946,-2.3288,-2.3737,-2.452,-2.5441,-2.6446,-2.7447,-2.8351,-2.9198,-2.976,-3.0034,-3.0216,-3.0216,-3.0216,-3.0216,-3.0216,-3.0216,-3.0216,-3.0399,-3.0801,-3.1283,-3.1559,-3.1961,-3.2592,-3.3005,-3.3224,-3.3281,-3.3281,-3.3281,-3.3281,-3.3281,-3.3281,-3.3281,-3.3507,-3.3607,-3.3656,-3.3991,-3.4678,-3.5054,-3.5478,-3.7777,-3.8651,-3.9212,-4.0235,-4.0504,-4.03,-3.9839,-3.9685,-3.9697,-3.9697,-3.9697,-3.9697,-3.9697,-3.9697,-3.9697,-3.9697,-3.9697,-3.9697,-3.9697,-3.9697,-3.9697,-3.9697,-3.9697,-3.9697,-3.9697,-3.9697,-3.9697,-3.9697,-3.9697,-3.9697,-3.9697,-3.9697,-3.9697,-3.9697,-3.9697,-3.9697,-3.9697,-3.9697,-3.9697,-3.9697,-3.9697,-3.9697,-3.9697,-3.9697,-3.9697,-3.9697,-3.9697,-3.9697,-3.9697,-3.9697,-3.9697,-3.9697,-3.9697,-3.9697,-3.9697,-3.9697,-3.9697,-3.9697,-3.9697,-3.9697,-1.891,-1.9461,-2.0142,-2.1017,-2.1963,-2.2448,-2.2603,-2.2603,-2.2603,-2.2603,-2.2603,-2.2603,-2.2603,-2.2695,-2.2946,-2.3288,-2.3678,-2.4569,-2.5353,-2.6157,-2.7115,-2.8117,-2.8978,-2.9531,-2.9909,-3.0125,-3.0216,-3.0216,-3.0216,-3.0216,-3.0216,-3.0216,-3.0216,-3.0549,-3.0985,-3.1444,-3.1834,-3.2271,-3.2753,-3.3166,-3.3281,-3.3281,-3.3281,-3.3281,-3.3281,-3.3281,-3.3281,-3.3281,-3.3281,-3.3281,-3.3281,-3.3469,-3.4066,-3.4286,-3.5367,-3.7393,-3.8309,-3.8979,-3.9855,-4.0389,-4.0198,-3.9993,-3.9788,-3.9697,-3.9697,-3.9697,-3.9697,-3.9697,-3.9697,-3.9697,-3.9697,-3.9697,-3.9697,-3.9697,-3.9697,-3.9697,-3.9697,-3.9697,-3.9697,-3.9697,-3.9697,-3.9697,-3.9697,-3.9697,-3.9697,-3.9697,-3.9697,-3.9697,-3.9697,-3.9697,-3.9697,-3.9697,-3.9697,-3.9697,-3.9697,-3.9697,-3.9697,-3.9697,-3.9697,-3.9697,-3.9697,-3.9697,-3.9697,-3.9697,-3.9697,-3.9697,-3.9697,-3.9697,-3.9697,-3.9697,-3.9697,-3.9697,-3.9697,-3.9697,-3.9697,-1.8277,-1.8703,-1.9667,-2.0799,-2.1895,-2.2371,-2.256,-2.2603,-2.2603,-2.2603,-2.2603,-2.2603,-2.2603,-2.2745,-2.3188,-2.3687,-2.4322,-2.5157,-2.6081,-2.6924,-2.7872,-2.8781,-2.9347,-2.9943,-3.008,-3.017,-3.0216,-3.0216,-3.0216,-3.0216,-3.0216,-3.0227,-3.0331,-3.0663,-3.1203,-3.1697,-3.2144,-3.2627,-3.296,-3.3281,-3.3281,-3.3281,-3.3281,-3.3281,-3.3281,-3.3281,-3.3281,-3.3281,-3.3281,-3.3281,-3.3281,-3.3331,-3.3557,-3.3915,-3.5264,-3.6478,-3.7519,-3.8605,-3.9436,-4.0058,-4.0236,-4.0032,-3.989,-3.98,-3.98,-3.9697,-3.9697,-3.9697,-3.9697,-3.9697,-3.9697,-3.9697,-3.9697,-3.9697,-3.9697,-3.9697,-3.9697,-3.9697,-3.9697,-3.9697,-3.9697,-3.9697,-3.9697,-3.9697,-3.9697,-3.9697,-3.9697,-3.9697,-3.9697,-3.9697,-3.9697,-3.9697,-3.9697,-3.9697,-3.9697,-3.9697,-3.9697,-3.9697,-3.9697,-3.9697,-3.9697,-3.9697,-3.9697,-3.9697,-3.9697,-3.9697,-3.9697,-3.9697,-3.9697,-3.9697,-3.9697,-3.9697,-3.9697,-3.9697,-3.9697,-1.8132,-1.8325,-1.957,-2.0657,-2.1528,-2.197,-2.2354,-2.2594,-2.2603,-2.2603,-2.2603,-2.2603,-2.2603,-2.2745,-2.3479,-2.4026,-2.4756,-2.5693,-2.6716,-2.7505,-2.8445,-2.9059,-2.9531,-2.9988,-3.017,-3.0216,-3.0216,-3.0216,-3.0216,-3.0216,-3.0239,-3.0273,-3.0514,-3.0996,-3.1502,-3.1995,-3.2477,-3.296,-3.3132,-3.3281,-3.3281,-3.3281,-3.3281,-3.3281,-3.3281,-3.3281,-3.3281,-3.3281,-3.3281,-3.3281,-3.3281,-3.3281,-3.3331,-3.3519,-3.4531,-3.592,-3.6577,-3.767,-3.8874,-3.957,-3.9789,-4.0121,-4.0083,-3.9942,-3.9852,-3.9749,-3.9697,-3.9697,-3.9697,-3.9697,-3.9697,-3.9697,-3.9697,-3.9697,-3.9697,-3.9697,-3.9697,-3.9697,-3.9697,-3.9697,-3.9697,-3.9697,-3.9697,-3.9697,-3.9697,-3.9697,-3.9697,-3.9697,-3.9697,-3.9697,-3.9697,-3.9697,-3.9697,-3.9697,-3.9697,-3.9697,-3.9697,-3.9697,-3.9697,-3.9697,-3.9697,-3.9697,-3.9697,-3.9697,-3.9697,-3.9697,-3.9697,-3.9697,-3.9697,-3.9697,-3.9697,-3.9697,-3.9697,-3.9697,-3.9697,-1.7753,-1.7931,-1.924,-2.0448,-2.1343,-2.1833,-2.2251,-2.256,-2.2603,-2.2603,-2.2603,-2.2603,-2.2603,-2.2846,-2.3728,-2.4362,-2.5138,-2.6129,-2.7231,-2.8186,-2.8642,-2.9198,-2.9658,-3.008,-3.017,-3.0216,-3.0216,-3.0216,-3.0216,-3.0216,-3.0239,-3.0285,-3.0767,-3.1283,-3.1766,-3.2248,-3.2764,-3.3235,-3.3281,-3.3281,-3.3281,-3.3281,-3.3281,-3.3281,-3.3281,-3.3281,-3.3281,-3.3281,-3.3281,-3.3281,-3.3281,-3.3281,-3.3281,-3.3331,-3.4062,-3.5035,-3.5765,-3.6383,-3.7907,-3.8859,-3.9248,-3.9519,-4.0236,-4.0147,-4.0018,-3.9902,-3.98,-3.9788,-3.9697,-3.9697,-3.9697,-3.9697,-3.9697,-3.9697,-3.9697,-3.9697,-3.9697,-3.9697,-3.9697,-3.9697,-3.9697,-3.9697,-3.9697,-3.9697,-3.9697,-3.9697,-3.9697,-3.9697,-3.9697,-3.9697,-3.9697,-3.9697,-3.9697,-3.9697,-3.9697,-3.9697,-3.9697,-3.9697,-3.9697,-3.9697,-3.9697,-3.9697,-3.9697,-3.9697,-3.9697,-3.9697,-3.9697,-3.9697,-3.9697,-3.9697,-3.9697,-3.9697,-3.9697,-3.9697,-3.9697,-1.7426,-1.765,-1.8808,-2.0122,-2.1326,-2.1764,-2.2158,-2.2551,-2.2603,-2.2603,-2.2653,-2.2745,-2.2745,-2.3229,-2.4156,-2.4698,-2.5479,-2.6706,-2.7857,-2.8513,-2.8828,-2.9382,-2.984,-3.0216,-3.0216,-3.0216,-3.0216,-3.0216,-3.0216,-3.0227,-3.0285,-3.0354,-3.0836,-3.1364,-3.1834,-3.2328,-3.2891,-3.3178,-3.3281,-3.3281,-3.3281,-3.3281,-3.3281,-3.3281,-3.3281,-3.3281,-3.3281,-3.3281,-3.3281,-3.3281,-3.3281,-3.3281,-3.3181,-3.3204,-3.3873,-3.4618,-3.4947,-3.5742,-3.6938,-3.8072,-3.8388,-3.8884,-3.9853,-4.0211,-4.0069,-4.0018,-3.9903,-3.9839,-3.98,-3.9697,-3.9697,-3.9697,-3.9697,-3.9697,-3.9697,-3.9697,-3.9697,-3.9697,-3.9697,-3.9697,-3.9697,-3.9697,-3.9697,-3.9697,-3.9697,-3.9697,-3.9697,-3.9697,-3.9697,-3.9697,-3.9697,-3.9697,-3.9697,-3.9697,-3.9697,-3.9697,-3.9697,-3.9697,-3.9697,-3.9697,-3.9697,-3.9697,-3.9697,-3.9697,-3.9697,-3.9697,-3.9697,-3.9697,-3.9697,-3.9697,-3.9697,-3.9697,-3.9697,-3.9697,-3.9697,-1.7746,-1.8558,-1.8806,-1.9845,-2.1266,-2.1499,-2.191,-2.2534,-2.2603,-2.2603,-2.2745,-2.3238,-2.3488,-2.3538,-2.4412,-2.5138,-2.5887,-2.7136,-2.7977,-2.8631,-2.8967,-2.9566,-3.0023,-3.017,-3.0216,-3.0216,-3.0216,-3.0216,-3.0216,-3.0239,-3.0457,-3.0766,-3.1259,-3.1812,-3.2317,-3.2764,-3.312,-3.3281,-3.3281,-3.3281,-3.3281,-3.3281,-3.3281,-3.3281,-3.3281,-3.3281,-3.3281,-3.3281,-3.3281,-3.3281,-3.3281,-3.3281,-3.3119,-3.2964,-3.3498,-3.4175,-3.4489,-3.5301,-3.643,-3.7376,-3.7808,-3.8505,-3.9376,-3.9943,-3.9929,-4.0108,-4.0032,-4.0044,-3.9942,-3.9749,-3.9749,-3.9697,-3.9697,-3.9697,-3.9697,-3.9697,-3.9697,-3.9697,-3.9697,-3.9697,-3.9697,-3.9697,-3.9697,-3.9697,-3.9697,-3.9697,-3.9697,-3.9697,-3.9697,-3.9697,-3.9697,-3.9697,-3.9697,-3.9697,-3.9697,-3.9697,-3.9697,-3.9697,-3.9697,-3.9697,-3.9697,-3.9697,-3.9697,-3.9697,-3.9697,-3.9697,-3.9697,-3.9697,-3.9697,-3.9697,-3.9697,-3.9697,-3.9697,-3.9697,-3.9697]}]]